[[[{"header":{"parameterUnit":"kt","parameterCategory":2,"dx":1,"dy":1,"la1":29.587661999999998,"la2":31.0,"lo1":-88.76705300000003,"lo2":-86.6583820000003,"nx":115,"ny":88,"refTime":"2022-11-01T06:00:00:Z","depth":0,"parameterNumber":1,"parameterNumberName":"U-component_of_WINDS"},"data":[4.6004,4.9164,5.0593,5.2057,5.3488,5.4151,5.5678,5.7598,5.8671,5.9927,6.0699,6.0468,6.0432,5.9976,6.0284,6.1148,6.2046,6.2402,6.2477,6.256,6.3372,6.3521,6.3769,6.4747,6.4633,6.5081,6.5615,6.5416,6.5503,6.585,6.6189,6.6132,6.6777,6.7433,6.8184,6.8617,6.8915,6.9342,6.9066,6.8923,6.9556,6.9628,6.9364,6.9562,7.0016,7.0399,7.0995,7.2378,7.3152,7.3486,7.3508,7.342,7.4222,7.5506,7.6402,7.6321,7.6397,7.5941,7.5872,7.5734,7.5388,7.4449,7.4185,7.4068,7.4126,7.441,7.441,7.4478,7.4378,7.507,7.5251,7.5569,7.5905,7.6453,7.7066,7.8634,8.0856,8.2269,8.3147,8.3341,8.3341,8.2974,8.2362,8.2829,8.3245,8.355,8.374,8.3849,8.4127,8.3626,8.3124,8.3299,8.341,8.3134,8.3173,8.1983,8.0681,8.0183,7.9725,7.9094,7.8603,7.8322,7.8637,8.015,8.0784,8.1203,8.2189,8.2931,8.311,8.3321,8.3321,8.3321,8.3391,8.3244,8.3204,4.5473,4.7855,4.9442,5.0706,5.1672,5.2708,5.4216,5.5792,5.7147,5.814,5.891,5.8809,5.9797,6.0356,6.0739,6.16,6.2265,6.2532,6.2994,6.3324,6.3568,6.3615,6.4032,6.4589,6.4712,6.5035,6.5269,6.5084,6.4773,6.5049,6.5101,6.4507,6.4927,6.5578,6.6194,6.6853,6.7852,6.8643,6.916,6.9186,6.9309,6.9656,6.9167,6.9423,7.0159,7.1026,7.1409,7.1957,7.2297,7.271,7.3036,7.3114,7.3635,7.3843,7.4294,7.4329,7.4398,7.4401,7.4298,7.4473,7.416,7.3847,7.3533,7.3461,7.3388,7.3563,7.3563,7.3454,7.3015,7.3153,7.3227,7.337,7.3589,7.391,7.4683,7.5661,7.8667,8.1393,8.2113,8.2681,8.2759,8.2881,8.2867,8.3204,8.3535,8.3931,8.4073,8.4143,8.4178,8.4037,8.3966,8.393,8.3505,8.354,8.3753,8.2441,8.0706,8.0006,7.8708,7.8745,7.8464,7.734,7.7235,7.8639,7.9731,8.0363,8.1279,8.1843,8.2723,8.3145,8.3039,8.2899,8.3075,8.3427,8.3388,4.5089,4.6746,4.8569,5.0021,5.1214,5.2603,5.4022,5.5438,5.6803,5.7356,5.7484,5.7987,5.8649,5.9482,6.0224,6.0959,6.1541,6.2297,6.2704,6.2821,6.2906,6.3371,6.3339,6.3278,6.3942,6.3878,6.3902,6.4208,6.4023,6.4246,6.4689,6.4889,6.5419,6.6117,6.6865,6.7498,6.8244,6.856,6.9342,6.88,6.765,6.7924,6.8025,6.8306,6.8946,6.9844,7.0483,7.1187,7.1925,7.2729,7.308,7.3254,7.3393,7.3184,7.3114,7.3184,7.3393,7.3565,7.3735,7.3904,7.3967,7.3936,7.3799,7.37,7.3598,7.3967,7.4033,7.3531,7.3114,7.3114,7.315,7.3254,7.3428,7.37,7.4318,7.5608,7.8283,8.0787,8.1911,8.2432,8.2758,8.2868,8.3012,8.3327,8.4021,8.4388,8.4788,8.4925,8.4984,8.4876,8.4905,8.4725,8.3919,8.3703,8.3243,8.2006,8.0628,7.9046,7.7403,7.7345,7.7112,7.6097,7.5718,7.695,7.8076,7.9027,7.959,7.9942,8.0716,8.2267,8.2513,8.2511,8.3039,8.3462,8.3538,4.4711,4.5804,4.7656,4.924,5.0649,5.228,5.3646,5.5034,5.6287,5.6866,5.7053,5.7664,5.8412,5.932,6.0141,6.0887,6.1286,6.2028,6.2005,6.2292,6.2491,6.2757,6.2563,6.2779,6.2652,6.2495,6.2623,6.3096,6.3056,6.3388,6.3873,6.4407,6.4996,6.556,6.6235,6.6894,6.7355,6.7501,6.7491,6.6374,6.6409,6.668,6.7045,6.716,6.7988,6.8988,6.9541,7.0304,7.1308,7.2522,7.3005,7.3455,7.3802,7.3428,7.3289,7.3324,7.3802,7.4063,7.4222,7.4314,7.437,7.4405,7.4378,7.4251,7.4314,7.476,7.4734,7.4128,7.3834,7.3799,7.3866,7.4033,7.4199,7.442,7.4778,7.6679,7.8619,8.0374,8.1946,8.2473,8.2822,8.2988,8.3143,8.364,8.4371,8.478,8.5009,8.5261,8.5105,8.5093,8.4949,8.4574,8.388,8.2969,8.2004,8.1069,8.0385,7.8948,7.8157,7.6875,7.5665,7.5744,7.6041,7.6375,7.6559,7.754,7.8246,7.846,7.9484,8.1069,8.1703,8.2374,8.2938,8.3608,8.3719,4.4421,4.5021,4.6091,4.7548,4.9021,5.0789,5.2163,5.3207,5.5124,5.6379,5.7476,5.8237,5.9128,5.997,6.077,6.1279,6.1725,6.2137,6.2465,6.2633,6.2712,6.2928,6.2898,6.2761,6.2826,6.3023,6.295,6.2708,6.2179,6.2466,6.2859,6.2661,6.3727,6.4688,6.5366,6.584,6.5988,6.5959,6.4814,6.4461,6.5374,6.6443,6.7269,6.6538,6.7258,6.8433,6.8812,6.932,6.9895,7.1074,7.204,7.2831,7.3494,7.3857,7.3767,7.3904,7.442,7.476,7.4967,7.4991,7.5145,7.5122,7.5098,7.4907,7.5027,7.5414,7.5298,7.4846,7.4511,7.4448,7.4636,7.476,7.4821,7.5003,7.5395,7.6622,7.8042,7.9127,8.0541,8.1299,8.1668,8.1907,8.2052,8.2492,8.3123,8.3558,8.3957,8.4538,8.4651,8.4798,8.4525,8.4161,8.3325,8.2453,8.1433,8.0468,7.99,7.9654,7.9441,7.8293,7.6289,7.6072,7.635,7.6126,7.6034,7.6636,7.7132,7.781,7.873,8.0185,8.1316,8.2093,8.294,8.3647,8.3789,4.4566,4.5143,4.5861,4.6878,4.8258,5.054,5.2324,5.3475,5.529,5.6783,5.785,5.8831,5.9767,6.0714,6.1279,6.1754,6.2086,6.2604,6.3143,6.325,6.3599,6.375,6.396,6.393,6.3431,6.2928,6.2767,6.2573,6.2099,6.2257,6.2783,6.3103,6.3921,6.4491,6.4788,6.4925,6.4751,6.3832,6.3221,6.3368,6.4009,6.4919,6.5349,6.5254,6.5614,6.6744,6.7719,6.8073,6.9115,7.0401,7.1997,7.2486,7.2093,7.4123,7.476,7.4857,7.524,7.5548,7.5771,7.5826,7.5862,7.5843,7.5788,7.5696,7.5862,7.6006,7.5807,7.564,7.5298,7.5062,7.5298,7.5507,7.5528,7.5584,7.6092,7.6544,7.7284,7.8005,7.892,7.9883,8.0347,8.054,8.0891,8.1343,8.1755,8.2213,8.2669,8.3269,8.3541,8.363,8.3359,8.314,8.2431,8.1703,8.0704,7.9637,7.868,7.8138,7.8517,7.8205,7.7027,7.6246,7.6152,7.5919,7.5655,7.5736,7.6021,7.6884,7.8,7.9399,8.0643,8.1878,8.301,8.3684,8.3681,4.4566,4.5165,4.5718,4.6714,4.7979,5.0429,5.2587,5.4017,5.5792,5.73,5.8301,5.9419,6.0257,6.0941,6.1643,6.1976,6.2524,6.3036,6.3675,6.4095,6.4407,6.4716,6.4819,6.4828,6.3996,6.3349,6.2868,6.2666,6.188,6.2241,6.2804,6.3036,6.3114,6.3484,6.3943,6.457,6.3816,6.3196,6.3195,6.3484,6.397,6.4419,6.4688,6.4925,6.524,6.5745,6.6623,6.6961,6.8064,6.9406,7.0837,7.1829,7.1055,7.3429,7.5591,7.5717,7.613,7.6389,7.6541,7.659,7.6541,7.6476,7.6527,7.6541,7.6627,7.6627,7.6613,7.6287,7.5988,7.5934,7.6041,7.6094,7.613,7.6094,7.6291,7.667,7.7012,7.7592,7.7793,7.859,7.8699,7.8967,7.9233,7.9668,8.0206,8.069,8.1238,8.1676,8.1968,8.2041,8.188,8.1734,8.115,8.0384,7.9509,7.8865,7.76,7.6749,7.6977,7.6985,7.6504,7.6364,7.6094,7.5916,7.5912,7.5743,7.5499,7.6324,7.7524,7.884,8.0419,8.1831,8.3003,8.3507,8.3716,4.4421,4.4834,4.6003,4.6974,4.8166,4.9944,5.2387,5.4907,5.6059,5.723,5.8809,5.9309,6.0257,6.1133,6.1946,6.2386,6.2682,6.3629,6.409,6.4603,6.4644,6.4967,6.5128,6.5134,6.4108,6.3766,6.3297,6.2282,6.1115,6.1515,6.1521,6.1474,6.1986,6.2285,6.2618,6.3015,6.33,6.3491,6.3665,6.4037,6.4398,6.4703,6.5011,6.5217,6.5415,6.5752,6.6037,6.6322,6.7277,6.8199,6.8969,7.0085,7.1271,7.2734,7.4587,7.5872,7.6457,7.6724,7.6855,7.6974,7.6964,7.7057,7.7149,7.7149,7.7104,7.7149,7.7057,7.6833,7.6701,7.6701,7.6749,7.6749,7.6701,7.6701,7.6701,7.6846,7.7114,7.7211,7.7345,7.7441,7.7623,7.7709,7.8038,7.8098,7.8605,7.9096,7.9682,8.0048,8.0169,8.0267,8.0876,8.073,8.0036,7.9183,7.8573,7.8082,7.7194,7.6906,7.6833,7.6928,7.6808,7.6676,7.653,7.6367,7.6214,7.6077,7.5934,7.6431,7.7372,7.8816,8.0521,8.2019,8.3705,8.3966,8.3535,4.5287,4.5596,4.6453,4.7256,4.8121,4.8812,5.0085,5.1909,5.3965,5.5459,5.6936,5.8601,5.9697,6.059,6.1665,6.2682,6.307,6.3418,6.3665,6.4229,6.402,6.4082,6.4234,6.4068,6.3627,6.2535,6.2137,6.197,6.0647,6.0725,6.098,6.1297,6.1636,6.1927,6.2381,6.2853,6.3474,6.3879,6.4363,6.4713,6.5031,6.5307,6.5556,6.5757,6.5979,6.6208,6.645,6.6679,6.7077,6.7785,6.861,6.9435,6.953,7.0938,7.3507,7.5573,7.6403,7.6072,7.6961,7.7292,7.7416,7.7501,7.7581,7.7581,7.7544,7.7544,7.7459,7.7372,7.7247,7.7292,7.7379,7.7396,7.7391,7.7391,7.7428,7.7379,7.7526,7.7438,7.7496,7.7387,7.745,7.736,7.7415,7.7431,7.7585,7.7908,7.8148,7.8202,7.832,7.9377,8.0248,7.9808,7.9184,7.8927,7.8496,7.7732,7.7431,7.7186,7.7195,7.7284,7.7211,7.7129,7.6984,7.6881,7.6652,7.649,7.6359,7.6764,7.7716,7.9069,8.0754,8.2463,8.4124,8.4037,8.3427,4.516,4.5321,4.6131,4.709,4.794,4.825,4.9094,5.0415,5.2386,5.4363,5.5973,5.7552,5.8798,5.9612,6.0732,6.1659,6.232,6.243,6.295,6.3608,6.3464,6.3303,6.3566,6.3717,6.3148,6.2101,6.1814,6.1684,6.0629,6.0804,6.1157,6.1458,6.189,6.2381,6.3052,6.3658,6.4158,6.4632,6.5067,6.5415,6.568,6.5901,6.6126,6.637,6.6597,6.6832,6.7067,6.7126,6.7339,6.7723,6.8239,6.8693,6.8703,6.9766,7.2307,7.4372,7.5894,7.5529,7.6374,7.7602,7.783,7.7906,7.7945,7.7869,7.7869,7.7869,7.783,7.779,7.7673,7.775,7.783,7.7873,7.7911,7.7911,7.791,7.7871,7.7871,7.7753,7.771,7.7617,7.7575,7.7549,7.7586,7.7775,7.782,7.8038,7.8107,7.7959,7.7964,7.8913,7.9459,7.8986,7.8849,7.8728,7.8538,7.7996,7.7627,7.7501,7.7581,7.7623,7.7623,7.7544,7.7416,7.7372,7.7149,7.6881,7.6774,7.6904,7.7957,7.9488,8.1368,8.3128,8.4209,8.414,8.343,4.372,4.4029,4.5171,4.6316,4.7598,4.8301,4.9066,5.0221,5.1665,5.3586,5.5703,5.692,5.7845,5.8622,5.9718,6.0688,6.1347,6.1671,6.2069,6.2605,6.2686,6.3224,6.3382,6.3292,6.276,6.2498,6.2168,6.1714,6.119,6.1272,6.1603,6.1927,6.2277,6.2753,6.363,6.4363,6.4933,6.5228,6.5771,6.6013,6.6208,6.6474,6.6687,6.692,6.7114,6.7312,6.7543,6.7626,6.7704,6.7781,6.815,6.8296,6.843,6.9697,7.1359,7.3165,7.4426,7.5242,7.5724,7.7171,7.7911,7.8133,7.8243,7.817,7.8171,7.8171,7.8134,7.8134,7.8061,7.8098,7.8135,7.817,7.8206,7.8206,7.8206,7.8207,7.8241,7.8169,7.8098,7.8023,7.7986,7.7986,7.7984,7.8021,7.806,7.8061,7.8022,7.8022,7.806,7.843,7.8651,7.8468,7.8579,7.8543,7.8428,7.8096,7.7947,7.7906,7.7904,7.7904,7.7904,7.7787,7.7783,7.7824,7.7538,7.7094,7.7048,7.7037,7.8716,8.0329,8.2157,8.3674,8.4088,8.431,8.3683,4.4206,4.4818,4.56,4.6179,4.6715,4.7136,4.8157,4.9297,5.0383,5.2015,5.4244,5.6071,5.7226,5.8245,5.9634,6.0859,6.1079,6.1183,6.1571,6.1701,6.1602,6.1311,6.1485,6.1676,6.1886,6.1463,6.1385,6.1754,6.1597,6.167,6.2031,6.2483,6.2986,6.3561,6.4632,6.6006,6.7249,6.7587,6.7789,6.7713,6.6732,6.7009,6.7271,6.7437,6.763,6.7818,6.7892,6.8002,6.8074,6.8108,6.8177,6.8279,6.8831,6.9832,7.1322,7.2543,7.3726,7.4985,7.6391,7.7349,7.7247,7.8324,7.8547,7.8547,7.8547,7.8547,7.8542,7.8542,7.8547,7.8515,7.8547,7.8605,7.8636,7.8574,7.8542,7.851,7.8536,7.8473,7.8445,7.8379,7.8348,7.8243,7.8244,7.8243,7.8348,7.8379,7.8348,7.8385,7.8345,7.8345,7.8385,7.8445,7.8567,7.8445,7.8316,7.8243,7.817,7.8098,7.8059,7.8134,7.8095,7.798,7.7941,7.7901,7.7659,7.7313,7.7241,7.7414,7.9036,8.1165,8.3106,8.4994,8.5225,8.4833,8.4135,4.4087,4.4594,4.5573,4.6172,4.6503,4.6933,4.7831,4.8825,4.9799,5.1069,5.2721,5.4949,5.6526,5.7588,5.9282,6.0168,6.0578,6.036,6.0672,6.0712,6.0674,6.0464,6.0673,6.0913,6.0932,6.1041,6.1198,6.1458,6.1923,6.2171,6.2585,6.3316,6.3975,6.4539,6.5137,6.618,6.7154,6.7651,6.7905,6.8002,6.7212,6.7466,6.7628,6.7781,6.8037,6.8108,6.8174,6.8282,6.8316,6.8349,6.8415,6.8442,6.869,6.9291,7.09,7.2834,7.2749,7.4303,7.6301,7.6886,7.7192,7.8456,7.8869,7.8906,7.8988,7.895,7.8923,7.8869,7.885,7.8784,7.8878,7.8923,7.8976,7.895,7.8923,7.8906,7.8878,7.8763,7.8704,7.8666,7.8642,7.8547,7.8547,7.851,7.8636,7.8696,7.871,7.8785,7.8771,7.8763,7.8755,7.8841,7.8923,7.8878,7.8673,7.851,7.8412,7.8313,7.8209,7.8283,7.8283,7.8171,7.8019,7.7824,7.7659,7.7446,7.7415,7.7763,7.9411,8.1939,8.4057,8.58,8.5777,8.5382,8.4603,4.3365,4.3796,4.5161,4.6149,4.678,4.7264,4.7825,4.8592,4.9579,5.0543,5.1651,5.3765,5.5426,5.6845,5.7828,5.8706,5.9205,5.9159,5.9693,6.0093,6.0244,6.0596,6.0866,6.1198,6.1305,6.1452,6.167,6.189,6.2207,6.2754,6.3504,6.4373,6.4783,6.5233,6.5788,6.6494,6.717,6.7508,6.7882,6.785,6.7657,6.7743,6.7892,6.8071,6.8211,6.8312,6.8436,6.8442,6.851,6.8633,6.8633,6.8626,6.8938,6.9669,7.1771,7.3481,7.3653,7.4503,7.6285,7.7162,7.7735,7.8562,7.915,7.9173,7.9263,7.9284,7.9284,7.9279,7.9115,7.9065,7.9102,7.9126,7.9188,7.9164,7.9177,7.9115,7.9065,7.8988,7.8961,7.8961,7.8934,7.885,7.885,7.8923,7.8965,7.8976,7.9025,7.8998,7.9014,7.9053,7.9078,7.914,7.9225,7.9177,7.8923,7.8784,7.8673,7.8515,7.8419,7.839,7.8467,7.8358,7.8172,7.8019,7.7901,7.7659,7.7599,7.9262,8.1073,8.3116,8.4687,8.5985,8.6356,8.6074,8.5333,4.3773,4.4927,4.5033,4.56,4.6508,4.6154,4.6668,4.7757,4.8508,4.9302,5.0477,5.1727,5.3722,5.5762,5.7694,5.8702,5.9095,5.9419,5.9819,6.0211,6.0563,6.0941,6.1312,6.1642,6.189,6.2135,6.2275,6.2857,6.3223,6.39,6.4713,6.5233,6.5752,6.5858,6.6432,6.7183,6.7846,6.8184,6.8659,6.8509,6.815,6.8137,6.8298,6.8461,6.8581,6.8659,6.8687,6.8696,6.8771,6.8827,6.8864,6.9057,6.9772,7.1133,7.3486,7.5649,7.518,7.5723,7.7299,7.7856,7.8065,7.882,7.9404,7.9405,7.9478,7.9657,7.9723,7.955,7.9384,7.9322,7.9384,7.9404,7.9401,7.936,7.9316,7.9279,7.9257,7.9225,7.9202,7.9177,7.9177,7.9128,7.9173,7.9263,7.9263,7.9257,7.9272,7.9249,7.9257,7.9343,7.9322,7.9279,7.9338,7.9354,7.914,7.8988,7.885,7.8734,7.8579,7.852,7.8565,7.8462,7.839,7.8246,7.8095,7.8017,7.8096,8.0576,8.3016,8.4701,8.6155,8.6893,8.6974,8.6729,8.6219,4.4421,4.5905,4.6159,4.6762,4.7472,4.6988,4.7292,4.8049,4.8337,4.8904,4.9885,5.0808,5.2328,5.4487,5.7073,5.8517,5.9355,5.966,6.0055,6.0487,6.1016,6.1458,6.1818,6.2207,6.2415,6.2551,6.2889,6.3663,6.5852,6.6714,6.7115,6.7657,6.7355,6.7077,6.7736,6.7941,6.8184,6.8537,6.88,6.8776,6.8558,6.8544,6.865,6.8806,6.8859,6.8885,6.8873,6.8911,6.921,6.996,6.9198,6.9644,7.1599,7.3083,7.5312,7.809,7.6924,7.7178,7.9031,7.8691,7.8864,7.9415,7.9636,7.9614,7.9657,7.9758,7.9837,7.9799,7.9604,7.9516,7.9566,7.9582,7.9571,7.9555,7.9499,7.9461,7.9461,7.9442,7.9418,7.9397,7.9338,7.9366,7.9422,7.9495,7.9516,7.948,7.9443,7.9404,7.9443,7.948,7.9443,7.9404,7.9422,7.9439,7.9272,7.914,7.9014,7.8934,7.8755,7.8704,7.8686,7.8659,7.8659,7.8528,7.8611,7.8717,7.8781,8.0914,8.3853,8.5923,8.776,8.7809,8.7734,8.7456,8.6903,4.5083,4.6617,4.7565,4.8285,4.8645,4.8011,4.8231,4.8705,4.8199,4.8659,4.9157,5.0504,5.1524,5.3099,5.5563,5.7763,5.9271,6.0133,6.0563,6.1016,6.1603,6.2135,6.2551,6.2754,6.3057,6.3735,6.3828,6.6089,6.8213,6.915,6.9741,6.9552,6.8675,6.8501,6.8086,6.7639,6.7181,6.7552,6.7818,6.8377,6.9088,6.961,6.9835,6.9921,6.9982,7.0132,7.0351,7.0426,7.0479,7.1561,7.0836,7.1861,7.3346,7.3952,7.555,7.7023,7.7644,7.7419,7.9258,7.953,7.9635,7.966,7.9799,7.9796,7.9779,7.9826,7.9917,7.9893,7.9774,7.9709,7.9698,7.9698,7.9723,7.9681,7.9651,7.9643,7.9629,7.9604,7.9591,7.9573,7.9588,7.9591,7.9633,7.9685,7.9723,7.9681,7.9598,7.9566,7.955,7.9571,7.9536,7.9536,7.9555,7.9422,7.9279,7.9234,7.914,7.9115,7.9002,7.8923,7.8906,7.8916,7.8897,7.898,7.9354,7.9466,7.9908,8.1726,8.4636,8.6572,8.7798,8.8209,8.8286,8.8049,8.7598,4.644,4.7056,4.6871,4.7314,4.7859,4.6564,4.6603,4.7104,4.6795,4.708,4.7771,4.8866,5.035,5.2188,5.437,5.6942,5.9911,6.0748,6.1198,6.1636,6.2205,6.2687,6.312,6.3647,6.4287,6.5112,6.5706,6.7328,6.9422,6.9884,6.9579,6.9357,6.8938,6.8254,6.7703,6.751,6.7586,6.7745,6.8131,6.9259,7.082,7.2281,7.3228,7.3328,7.3348,7.3199,7.3011,7.2898,7.2671,7.3122,7.4324,7.5144,7.1657,7.0752,7.2315,7.5269,7.6676,7.7993,7.9283,7.9793,7.9855,7.9837,7.9913,7.9893,7.9849,7.9863,7.9901,7.9922,7.9855,7.9855,7.9827,7.9855,7.9871,7.9849,7.9822,7.9796,7.9761,7.9736,7.9733,7.9723,7.9761,7.9796,7.9806,7.9855,7.9844,7.9773,7.9736,7.9671,7.9671,7.9681,7.9658,7.9658,7.9553,7.9461,7.9381,7.9338,7.9234,7.9211,7.9164,7.914,7.914,7.9115,7.9115,7.9091,7.9654,8.0694,8.1295,8.2521,8.5268,8.7203,8.7988,8.8325,8.8288,8.8098,8.7851,4.6647,4.7754,4.8081,4.8564,4.894,4.7397,4.7222,4.7822,4.6822,4.6775,4.7639,4.8529,4.9799,5.1478,5.3719,5.7125,5.9972,6.1272,6.178,6.2205,6.2755,6.322,6.3543,6.3859,6.5045,6.6172,6.703,6.8116,6.9883,7.0141,7.0123,6.9657,6.9047,6.8698,6.8342,6.7877,6.7855,6.8456,6.9326,7.0483,7.1621,7.3403,7.4312,7.4479,7.4475,7.4621,7.4554,7.41,7.3382,7.3638,7.4486,7.2944,7.1024,7.0314,7.1494,7.4436,7.5741,7.6955,7.8399,7.9564,7.9819,7.9886,7.9928,7.9895,7.9902,7.9905,7.9908,7.9895,7.9923,7.9917,7.9917,7.9893,7.9922,7.9913,7.9913,7.9875,7.9837,7.9855,7.9817,7.9837,7.9855,7.9872,7.9917,7.9917,7.9901,7.9884,7.9844,7.9806,7.9779,7.9773,7.9747,7.9704,7.9642,7.9537,7.9459,7.9381,7.9279,7.9279,7.9257,7.9316,7.9316,7.9316,7.9316,7.9397,8.0608,8.1798,8.2606,8.3713,8.5996,8.8188,8.8421,8.854,8.8397,8.8214,8.7975,4.6928,4.8206,4.9289,4.9896,4.9894,4.8537,4.8225,4.8793,4.7448,4.741,4.8289,4.9035,5.0014,5.1709,5.4325,5.7279,6.0162,6.1575,6.2205,6.2721,6.3154,6.3573,6.3859,6.4237,6.5221,6.6478,6.7352,6.8592,6.9976,7.0393,7.0377,7.0453,6.9677,6.9019,6.8821,6.8591,6.8282,6.9356,7.0457,7.1929,7.3104,7.4592,7.5414,7.5983,7.6111,7.5835,7.5218,7.4007,7.3337,7.3988,7.1535,7.0372,6.9922,6.997,7.1717,7.4068,7.4809,7.5587,7.7469,7.8777,7.9423,7.984,7.9915,7.9915,7.9915,7.9915,7.9911,7.9913,7.9917,7.9895,7.9918,7.9907,7.9901,7.9907,7.9907,7.9894,7.9886,7.9913,7.9887,7.9887,7.9907,7.9918,7.9923,7.9923,7.9918,7.9907,7.988,7.9864,7.9834,7.9846,7.9834,7.9774,7.9689,7.9646,7.9556,7.9442,7.9364,7.9364,7.9401,7.9401,7.9479,7.9499,7.9669,7.9857,8.078,8.2291,8.3934,8.5427,8.7137,8.8444,8.8652,8.8814,8.8571,8.8321,8.8137,4.7975,4.7764,4.8336,4.8479,4.8091,4.7315,4.7568,4.8192,4.7487,4.8162,4.9673,4.9528,5.1159,5.3472,5.5035,5.6927,5.941,6.122,6.2619,6.3057,6.3479,6.3859,6.4228,6.4726,6.5615,6.7314,6.7598,6.8531,6.9894,7.061,6.9847,6.9339,6.9228,6.8962,6.8293,6.8217,6.9006,7.0307,7.1206,7.2705,7.5271,7.6057,7.7155,7.7918,7.8132,7.756,7.6529,7.5856,7.5047,7.2793,7.0941,7.0084,6.99,7.0094,7.1461,7.4534,7.3644,7.4378,7.6337,7.7588,7.8506,7.988,7.9872,7.988,7.988,7.9887,7.988,7.9894,7.9875,7.9875,7.9908,7.9911,7.9916,7.9915,7.9908,7.9916,7.9913,7.9917,7.9905,7.9895,7.9902,7.9911,7.9911,7.9913,7.9911,7.9908,7.9923,7.9907,7.9913,7.9907,7.9872,7.9827,7.9786,7.9704,7.9658,7.9588,7.9499,7.9499,7.9518,7.9555,7.9608,7.9663,7.9734,8.012,8.0975,8.2531,8.4142,8.5779,8.7188,8.8491,8.8953,8.8833,8.8664,8.8421,8.8248,4.832,4.8271,4.8321,4.8203,4.7915,4.7497,4.7667,4.8128,4.7756,4.8745,5.0347,5.0844,5.2313,5.4766,5.6355,5.767,5.9415,6.1427,6.2755,6.3251,6.3671,6.4045,6.4408,6.506,6.5626,6.6393,6.6821,6.7369,6.8163,6.8362,6.8531,6.8048,6.8325,6.8328,6.8073,6.8399,6.9265,7.032,7.1233,7.3011,7.5279,7.5907,7.6732,7.8068,7.76,7.6913,7.5993,7.5251,7.3905,7.2325,7.0649,6.9577,6.9535,6.9869,7.0631,7.2287,7.2256,7.369,7.4712,7.6151,7.7602,7.8383,7.933,7.9595,7.9758,7.9796,7.9796,7.9784,7.9789,7.9804,7.9908,7.9899,7.9899,7.9902,7.9911,7.9905,7.989,7.9902,7.9917,7.9917,7.9917,7.9917,7.9916,7.9915,7.9916,7.9916,7.9916,7.9915,7.9916,7.9915,7.9899,7.988,7.9817,7.9799,7.976,7.9666,7.9604,7.9588,7.9588,7.962,7.9719,7.9747,7.9811,8.0404,8.1034,8.2632,8.3871,8.5765,8.7273,8.8418,8.9,8.8915,8.8758,8.8525,8.8353,4.8394,4.8642,4.8129,4.771,4.7713,4.7636,4.778,4.8174,4.8062,4.911,5.0692,5.1367,5.2792,5.5013,5.6846,5.8454,5.9352,6.122,6.2585,6.3217,6.3699,6.4132,6.4668,6.5198,6.5699,6.589,6.6023,6.6306,6.6582,6.7022,6.7002,6.7412,6.784,6.7966,6.8303,6.8622,6.9072,6.9988,7.1314,7.3078,7.456,7.5218,7.5909,7.6539,7.5721,7.4843,7.4138,7.3008,7.2459,7.2263,7.1378,7.0718,7.0439,7.0145,7.003,7.0558,7.1722,7.2505,7.2785,7.509,7.7049,7.739,7.8653,7.9629,7.9596,7.962,7.9605,7.9643,7.9629,7.9622,7.9788,7.9846,7.9846,7.988,7.9894,7.9901,7.9907,7.9923,7.9899,7.9902,7.9902,7.9895,7.9918,7.989,7.989,7.989,7.9895,7.9899,7.9902,7.9905,7.9917,7.9907,7.9864,7.9844,7.9811,7.9736,7.9695,7.9733,7.9695,7.9671,7.9773,7.9844,7.9855,8.0364,8.1086,8.207,8.3139,8.4992,8.6986,8.8154,8.9081,8.901,8.8894,8.8627,8.8425,4.8121,4.7853,4.7025,4.6348,4.6162,4.6579,4.7309,4.7751,4.8325,4.9437,5.0646,5.0454,5.2251,5.4906,5.6421,5.7633,5.9323,6.1218,6.2175,6.2855,6.3636,6.4433,6.4897,6.5397,6.5767,6.5987,6.6087,6.6331,6.6614,6.6885,6.7139,6.7466,6.7926,6.8219,6.8454,6.8811,6.995,7.1088,7.1932,7.3004,7.4309,7.4962,7.5127,7.5044,7.4509,7.3729,7.2801,7.2514,7.2757,7.3764,7.3584,7.3357,7.2889,7.0669,6.9776,6.9911,7.0955,7.1846,7.2249,7.4583,7.6539,7.6997,7.8342,7.9328,7.931,7.9292,7.9348,7.9405,7.9305,7.9348,7.9582,7.9711,7.9748,7.9747,7.9827,7.9893,7.9917,7.9901,7.9913,7.9913,7.9913,7.9913,7.9907,7.9894,7.9917,7.9894,7.9925,7.9925,7.9887,7.9918,7.9917,7.9899,7.9901,7.9893,7.9865,7.9784,7.9811,7.9811,7.9735,7.9747,7.9837,7.9872,7.988,7.9969,8.0326,8.115,8.26,8.4455,8.6276,8.7696,8.8982,8.9119,8.9019,8.8758,8.8529,4.863,4.8546,4.6848,4.6075,4.6123,4.7444,4.7741,4.767,4.8805,5.0016,5.0785,5.0964,5.2526,5.4981,5.6642,5.8085,5.9248,6.111,6.2101,6.2517,6.3282,6.4219,6.5011,6.5557,6.587,6.6087,6.6234,6.6474,6.6751,6.7053,6.7307,6.7626,6.8076,6.8456,6.8622,6.9052,6.9732,7.0481,7.0948,7.1862,7.3182,7.2975,7.2882,7.3294,7.24,7.1738,7.1194,7.1671,7.2596,7.3846,7.545,7.6379,7.5795,7.1673,6.9048,6.9224,7.0734,7.1535,7.1777,7.3467,7.5227,7.6378,7.7959,7.8751,7.8878,7.8878,7.8927,7.899,7.8794,7.894,7.9329,7.9512,7.9598,7.9605,7.9711,7.9784,7.9913,7.9901,7.9917,7.9925,7.9917,7.9917,7.9894,7.9901,7.9922,7.9913,7.9903,7.9893,7.9903,7.9907,7.9911,7.9916,7.9895,7.9907,7.988,7.9875,7.9844,7.9875,7.9846,7.9837,7.988,7.9918,7.9918,7.9875,7.9837,8.048,8.2689,8.4713,8.6447,8.7934,8.8737,8.9246,8.9092,8.8915,8.8664,4.8538,4.8855,4.6824,4.6228,4.6736,4.7956,4.8167,4.7721,4.8998,4.9771,5.0444,5.1121,5.2176,5.4067,5.5982,5.7611,5.8641,6.0261,6.1523,6.2415,6.3054,6.3887,6.4783,6.5522,6.5921,6.6037,6.6283,6.6531,6.6877,6.7139,6.7353,6.7706,6.8221,6.8622,6.8848,6.9219,6.9483,6.9634,6.9755,7.053,7.1421,7.0621,7.0574,7.1489,7.0621,7.0026,6.9876,7.113,7.235,7.3598,7.6463,7.8019,7.7159,7.2799,7.006,7.0474,7.1691,7.2267,7.1701,7.3398,7.4807,7.5445,7.7145,7.8441,7.8408,7.8371,7.8371,7.8412,7.8478,7.8621,7.9051,7.9263,7.9309,7.9404,7.9495,7.9614,7.9799,7.9855,7.9922,7.9901,7.9893,7.9893,7.9893,7.9837,7.9806,7.9844,7.9834,7.9784,7.9806,7.9834,7.9894,7.9908,7.9917,7.9905,7.9913,7.991,7.9893,7.9925,7.9901,7.9901,7.989,7.9905,7.9908,7.9899,7.9864,8.0959,8.3005,8.4478,8.6934,8.8921,8.9331,8.9317,8.9197,8.885,8.8571,4.7605,4.8104,4.6814,4.667,4.7219,4.77,4.8051,4.8203,4.8651,4.9129,4.9355,4.9929,5.0618,5.1585,5.3668,5.5636,5.7147,5.8922,6.061,6.2278,6.3094,6.375,6.4558,6.5425,6.5894,6.5972,6.6185,6.6521,6.6841,6.7139,6.747,6.7855,6.8328,6.8727,6.8999,6.9223,6.9467,6.9591,6.974,6.9883,7.0144,6.9969,7.0041,6.9986,6.9906,6.9718,6.9792,7.0898,7.2234,7.3604,7.5946,7.7354,7.6777,7.4493,7.269,7.2468,7.4058,7.3059,7.2099,7.4096,7.5907,7.4167,7.6242,7.7908,7.8017,7.7906,7.783,7.775,7.8098,7.8585,7.8784,7.8841,7.8923,7.9102,7.9279,7.9461,7.9681,7.9811,7.9844,7.9865,7.9922,7.9922,7.9913,7.9796,7.9761,7.9736,7.9774,7.9736,7.9761,7.9796,7.9882,7.9901,7.9918,7.9913,7.9905,7.9923,7.9918,7.9895,7.9905,7.9911,7.9917,7.9917,7.9917,7.9899,8.0107,8.1684,8.3144,8.3825,8.5508,8.7408,8.8448,8.9212,8.9095,8.8679,8.8398,4.8363,4.8643,4.7368,4.7159,4.762,4.8716,4.8756,4.8403,4.9372,4.9608,4.9455,4.9908,5.0482,5.1369,5.2984,5.501,5.6981,5.8516,6.0771,6.3427,6.4082,6.4626,6.5343,6.5988,6.6204,6.591,6.61,6.6427,6.6787,6.7096,6.747,6.7965,6.8423,6.8789,6.9127,6.9353,6.9615,6.9703,6.9776,6.9805,6.9857,6.9871,6.9814,6.9789,6.9639,6.9479,6.9429,7.0497,7.1785,7.3275,7.4978,7.6336,7.6938,7.6139,7.4772,7.3333,7.3035,7.2474,7.0675,7.2773,7.3943,7.4407,7.5999,7.7255,7.7365,7.7438,7.7409,7.7409,7.7746,7.8061,7.8379,7.8371,7.8462,7.8718,7.9002,7.9257,7.9442,7.9566,7.9695,7.9748,7.9773,7.9784,7.9834,7.9799,7.9747,7.9798,7.9757,7.9689,7.9786,7.9799,7.9822,7.9855,7.9855,7.988,7.9879,7.9916,7.9913,7.9917,7.9917,7.9911,7.9915,7.9916,7.9917,7.9928,7.9901,8.1334,8.2622,8.3308,8.4014,8.4789,8.6105,8.6994,8.7816,8.7653,8.7712,4.8449,4.8631,4.776,4.7639,4.8028,4.9068,4.9166,4.8636,4.9638,4.9901,4.9678,5.0165,5.0732,5.1474,5.2564,5.4549,5.6947,5.805,6.0708,6.4036,6.4794,6.5279,6.5816,6.6304,6.6236,6.5771,6.6001,6.6427,6.666,6.7053,6.747,6.7929,6.8345,6.8789,6.9096,6.9425,6.9655,6.9736,6.9764,6.9778,6.9748,6.9736,6.9705,6.9656,6.941,6.9139,6.9023,7.0048,7.1356,7.2761,7.4138,7.5455,7.6566,7.7037,7.6106,7.4129,7.3263,7.1968,7.026,7.1092,7.2324,7.2934,7.472,7.5825,7.6055,7.6445,7.6906,7.7149,7.7495,7.7706,7.7985,7.8131,7.8371,7.8505,7.8813,7.9128,7.9272,7.9346,7.9516,7.9614,7.9657,7.9723,7.9786,7.9785,7.9704,7.9757,7.9712,7.9658,7.9747,7.9695,7.9671,7.9786,7.9817,7.9796,7.9875,7.9895,7.9902,7.9899,7.9913,7.9894,7.9937,7.9953,7.9953,7.9971,7.9918,8.0653,8.1911,8.2859,8.3523,8.4303,8.4735,8.5312,8.5974,8.6248,8.6297,4.773,4.7888,4.7798,4.7985,4.8281,4.8636,4.8744,4.8804,4.9306,4.9709,5.0021,5.0347,5.094,5.1415,5.1848,5.3759,5.6516,5.7355,6.0178,6.4509,6.5138,6.5587,6.6265,6.6596,6.6392,6.5874,6.6115,6.6511,6.669,6.7264,6.754,6.7744,6.8353,6.8799,6.8999,6.9445,6.9667,6.9727,6.9781,6.9748,6.9764,6.9653,6.95,6.9355,6.9134,6.8822,6.8473,6.9618,7.0766,7.2139,7.3564,7.5085,7.6018,7.6749,7.687,7.6019,7.4794,7.2444,6.9818,7.0449,7.057,7.0244,7.2063,7.3814,7.4161,7.5024,7.5888,7.6541,7.7262,7.7824,7.7746,7.8098,7.8449,7.8579,7.8741,7.8944,7.9091,7.9225,7.936,7.9498,7.962,7.9666,7.9719,7.9689,7.9642,7.9642,7.9591,7.9573,7.9642,7.962,7.9566,7.9674,7.9709,7.9735,7.9855,7.9922,7.9893,7.9901,7.9913,7.9922,7.9956,7.9951,7.9954,7.9943,7.9895,8.0146,8.1411,8.1704,8.2535,8.2993,8.3749,8.4221,8.4459,8.4577,8.4723,4.8081,4.8094,4.8064,4.825,4.8452,4.8683,4.8804,4.9062,4.9467,4.9908,5.0276,5.0667,5.1146,5.155,5.1949,5.3861,5.6783,5.7322,6.0514,6.5868,6.6534,6.7542,6.8887,6.9263,6.9015,6.8481,6.8669,6.8445,6.806,6.852,6.8459,6.7892,6.8362,6.8848,6.9259,6.9587,6.9726,6.9761,6.977,6.9753,6.9629,6.9445,6.9277,6.9127,6.8859,6.8566,6.814,6.8371,6.909,7.0289,7.1702,7.2575,7.3009,7.5286,7.574,7.3655,7.2475,7.0547,6.7975,6.8435,6.9046,6.8875,7.0535,7.1811,7.207,7.2348,7.3438,7.5025,7.6399,7.7519,7.7701,7.7984,7.8317,7.8419,7.8547,7.8704,7.885,7.8971,7.9091,7.9241,7.9404,7.9518,7.9571,7.9573,7.9555,7.9573,7.9461,7.9461,7.9518,7.9498,7.9516,7.9553,7.9666,7.9695,7.9747,7.9784,7.9806,7.9903,7.992,7.9893,7.9913,7.9908,7.9918,7.9915,8.0022,8.024,8.0444,8.0592,8.086,8.1133,8.1894,8.2702,8.2813,8.292,8.3384,4.8818,4.8606,4.8406,4.8483,4.8606,4.8683,4.8911,4.9243,4.9657,5.0053,5.0411,5.1009,5.1383,5.155,5.208,5.3994,5.6817,5.7389,6.0584,6.5631,6.6575,6.7818,6.9682,7.0124,7.0088,6.9895,7.0025,6.9909,6.971,7.0338,7.0011,6.9033,6.9236,6.9411,6.9411,6.955,6.9753,6.9775,6.9765,6.9729,6.9505,6.9298,6.9067,6.8885,6.8619,6.8275,6.7929,6.7704,6.8153,6.9374,7.0148,7.0771,7.1147,7.3177,7.3494,7.1652,7.0552,6.8854,6.6601,6.6784,6.732,6.7656,6.8928,6.9876,7.0016,6.9569,7.0279,7.3098,7.5617,7.6893,7.7065,7.7491,7.7984,7.8244,7.8348,7.8515,7.8673,7.8801,7.8953,7.9115,7.9249,7.936,7.9401,7.9418,7.9418,7.9442,7.9364,7.9401,7.9461,7.9442,7.9442,7.9518,7.9582,7.9629,7.9658,7.9709,7.9761,7.986,7.9909,7.9875,7.9893,7.9907,7.9895,7.9905,7.9917,8.0069,8.0106,8.0282,8.0227,8.0387,8.033,8.0992,8.1186,8.125,8.1791,4.974,4.9362,4.8835,4.8606,4.8606,4.8606,4.8866,4.9212,4.9699,5.0062,5.0411,5.111,5.1483,5.155,5.208,5.3994,5.6752,5.7619,6.0315,6.4445,6.5485,6.6614,6.8229,6.8898,6.9601,7.0402,7.0775,7.1238,7.1851,7.2357,7.1862,7.0437,7.0755,7.0471,6.9447,6.9496,6.9697,6.9781,6.9791,6.9663,6.9445,6.9279,6.902,6.8668,6.8367,6.8069,6.767,6.7547,6.7954,6.9201,6.9147,6.9516,7.0502,7.0626,7.1056,7.1095,6.9518,6.7623,6.6053,6.5822,6.5858,6.5965,6.7178,6.8106,6.8384,6.7154,6.7947,7.1331,7.4642,7.6094,7.5319,7.6328,7.7491,7.8024,7.8135,7.8348,7.8642,7.8673,7.885,7.9065,7.9128,7.9191,7.9286,7.9338,7.9286,7.9316,7.9316,7.9354,7.9418,7.9429,7.9376,7.9461,7.9536,7.9571,7.9674,7.9747,7.9837,7.9886,7.9837,7.9849,7.9898,7.9909,7.9922,7.9917,7.9918,7.9899,7.9905,7.9913,7.9918,7.9915,7.9895,7.9917,8.0394,7.9958,8.0201,5.0021,4.9615,4.9168,4.8835,4.8606,4.8606,4.8866,4.9243,4.9615,5.0053,5.0411,5.0866,5.1247,5.1684,5.221,5.4157,5.6954,5.7685,6.0348,6.4313,6.545,6.6843,6.8724,7.0481,7.1752,7.2486,7.3716,7.4598,7.5122,7.4781,7.317,7.1049,7.1055,7.0695,6.9634,6.9679,6.9835,6.9895,6.9811,6.9686,6.9533,6.943,6.9149,6.8799,6.8535,6.8137,6.767,6.751,6.7479,6.744,6.8231,6.8357,6.7594,6.9482,7.1623,7.343,7.0205,6.723,6.5787,6.5504,6.5593,6.5978,6.6124,6.6462,6.6647,6.6473,6.7437,6.9797,7.2268,7.3833,7.3517,7.4887,7.6451,7.7834,7.8061,7.8207,7.8416,7.8622,7.8808,7.8934,7.8998,7.9009,7.9152,7.9178,7.9166,7.9324,7.9309,7.9332,7.9332,7.9435,7.9456,7.9479,7.9591,7.9674,7.9681,7.976,7.9747,7.9774,7.9647,7.9633,7.9774,7.9727,7.9727,7.9834,7.9882,7.9913,7.988,7.9887,7.9901,7.9918,7.9913,7.9911,7.989,7.9901,7.988,4.9008,4.9127,4.8695,4.8491,4.8452,4.825,4.8483,4.8942,4.9318,4.9762,5.0237,5.0553,5.1041,5.1751,5.221,5.4157,5.7055,5.7685,6.0043,6.3637,6.4656,6.613,6.8098,7.0474,7.2307,7.3609,7.5458,7.6554,7.6838,7.6554,7.4835,7.2361,7.228,7.1492,6.9724,6.9707,6.9862,7.0008,6.9896,6.9793,6.9677,6.9571,6.9314,6.8923,6.8677,6.8308,6.7781,6.7589,6.7302,6.6868,6.7377,6.7255,6.6159,6.7658,6.937,7.0789,6.8194,6.6225,6.5575,6.5522,6.5663,6.6008,6.5921,6.5936,6.6149,6.6379,6.6929,6.8346,7.0719,7.2091,7.1772,7.366,7.5591,7.6718,7.7651,7.8172,7.8419,7.8552,7.8741,7.8961,7.8971,7.8971,7.9077,7.9141,7.9191,7.9286,7.9309,7.9354,7.9376,7.9459,7.9518,7.9593,7.9696,7.9733,7.976,7.976,7.976,7.9596,7.9151,7.9122,7.9197,7.9231,7.8987,7.9733,7.9774,7.9799,7.9796,7.9806,7.9844,7.9903,7.9901,7.9899,7.9918,7.9905,7.9913,4.7264,4.7852,4.7653,4.7758,4.7929,4.7719,4.7907,4.8529,4.8942,4.9404,4.9886,5.0205,5.0871,5.1751,5.2145,5.3959,5.6921,5.7514,5.9428,6.2312,6.3366,6.4847,6.6858,6.9263,7.1611,7.3712,7.5774,7.699,7.7554,7.7836,7.6744,7.4607,7.4145,7.2558,6.997,6.9726,6.9862,7.0004,7.0004,6.9849,6.9573,6.9412,6.9128,6.857,6.8384,6.8052,6.7229,6.7299,6.695,6.6485,6.6189,6.5957,6.5682,6.5564,6.5432,6.5465,6.5152,6.5046,6.5323,6.5627,6.5886,6.5936,6.6037,6.6136,6.6283,6.6427,6.6567,6.7313,6.9755,7.0925,7.0212,7.2501,7.4358,7.5125,7.661,7.7875,7.8118,7.8467,7.8688,7.9078,7.904,7.8976,7.9115,7.914,7.9188,7.9316,7.9338,7.936,7.9459,7.9518,7.9573,7.968,7.9795,7.9849,7.9824,7.99,7.966,7.9241,7.8054,7.7503,7.7853,7.7649,7.7405,7.8529,7.922,7.9378,7.9495,7.9673,7.9698,7.9824,7.9849,7.9893,7.9923,7.9918,7.9899,4.6426,4.6341,4.6933,4.6908,4.6451,4.7059,4.759,4.8033,4.8499,4.9062,4.9552,5.0237,5.0977,5.1851,5.2209,5.3717,5.5797,5.634,5.8344,6.1294,6.2416,6.3946,6.5929,6.8321,7.0591,7.2694,7.4895,7.6688,7.806,7.8449,7.8255,7.7621,7.5454,7.2845,6.9831,6.989,6.995,6.9966,7.0009,6.9268,6.7869,6.77,6.688,6.5506,6.5119,6.475,6.4393,6.4138,6.3846,6.3421,6.3257,6.3168,6.3111,6.3403,6.4018,6.4925,6.5046,6.5158,6.5288,6.561,6.5886,6.6185,6.6136,6.6185,6.6427,6.6474,6.6531,6.6913,6.7825,6.8915,6.9819,7.0859,7.1862,7.3381,7.517,7.6424,7.6669,7.7926,7.8923,7.9053,7.9078,7.914,7.9225,7.9249,7.9272,7.9338,7.9401,7.9461,7.9537,7.9591,7.9625,7.9717,7.9712,7.9757,7.976,7.9811,7.9306,7.7859,7.6262,7.5553,7.5462,7.5441,7.5762,7.7141,7.7593,7.8138,7.9268,7.9528,7.9598,7.9719,7.9733,7.9786,7.9865,7.9886,7.9918,4.4703,4.4922,4.5284,4.5692,4.6192,4.6325,4.686,4.7499,4.7348,4.7653,4.8424,4.9919,5.1081,5.2014,5.2431,5.3831,5.5892,5.6227,5.7782,6.0429,6.1999,6.3427,6.4991,6.802,7.0206,7.1613,7.372,7.5287,7.637,7.738,7.7876,7.7786,7.565,7.2972,7.0094,6.9933,7.0004,6.9954,6.9202,6.8328,6.7358,6.6451,6.5109,6.335,6.3725,6.343,6.2274,6.2028,6.1751,6.1348,6.0503,5.9408,5.8133,6.0011,6.2366,6.484,6.3958,6.3302,6.3354,6.3473,6.4047,6.5071,6.5155,6.5297,6.5564,6.4913,6.5264,6.6864,6.7139,6.7714,6.88,6.9727,7.0653,7.1725,7.4281,7.5858,7.6265,7.7773,7.9002,7.9219,7.9279,7.9338,7.9422,7.9384,7.9384,7.9401,7.9518,7.9536,7.948,7.9573,7.9608,7.9588,7.9588,7.9658,7.9719,7.9836,7.9104,7.7465,7.5004,7.3746,7.4272,7.355,7.404,7.5341,7.6437,7.7232,7.7989,7.882,7.9367,7.9571,7.962,7.9666,7.9774,7.9827,7.988,4.2751,4.3499,4.3435,4.428,4.5699,4.5256,4.5594,4.6502,4.5689,4.59,4.6987,4.9162,5.0731,5.1876,5.244,5.3921,5.6003,5.6292,5.754,5.9571,6.1462,6.2782,6.3865,6.7437,6.9545,7.0393,7.2368,7.3627,7.4234,7.5711,7.6478,7.6272,7.503,7.2985,7.0516,7.0114,6.9855,6.9575,6.8146,6.7356,6.7074,6.5311,6.3477,6.1848,6.2804,6.2552,6.0669,6.0187,5.9862,5.9451,5.788,5.5507,5.2654,5.6051,6.0144,6.4083,6.1621,5.9757,5.9722,5.9971,6.0792,6.2282,6.3088,6.3611,6.3784,6.2489,6.3121,6.6494,6.7161,6.743,6.7704,6.907,7.0031,7.0435,7.3166,7.5366,7.577,7.7434,7.8777,7.9328,7.931,7.9103,7.9024,7.9042,7.9062,7.9158,7.9347,7.9646,7.948,7.931,7.9216,7.944,7.9498,7.9553,7.962,7.9633,7.847,7.7056,7.3837,7.1936,7.3064,7.2249,7.2131,7.3576,7.52,7.6373,7.6922,7.8149,7.9175,7.9443,7.9499,7.9553,7.9681,7.9433,7.9276,4.1639,4.1582,4.2283,4.2452,4.2195,4.2904,4.3271,4.3218,0.0,0.0,0.0,4.7136,4.8866,5.0968,5.1404,5.2845,5.5039,5.5411,5.6714,5.8731,5.9525,6.0841,6.2598,6.5057,6.7145,6.8833,7.0927,7.2696,7.4206,7.4782,7.5007,7.4853,7.3476,7.2426,7.1863,7.0616,6.9217,6.7782,6.7537,6.6809,6.5379,6.3586,6.1851,6.0096,6.0153,5.989,5.9377,5.7858,5.6905,5.6674,5.5109,5.2657,4.9575,5.2216,5.6298,6.1077,5.6573,5.3554,5.3544,5.4696,5.5641,5.6058,5.8669,6.0396,6.0676,5.945,6.0511,6.4972,6.6782,6.7744,6.7818,6.8333,6.8693,6.879,7.0692,7.2592,7.417,7.596,7.7683,7.8911,7.8273,7.7574,7.7572,7.7572,7.7592,7.7743,7.8554,7.9518,7.9348,7.8292,7.7801,7.8933,7.8933,7.9329,7.9344,7.8221,7.6526,7.512,7.2143,7.0014,7.0063,6.9907,7.0433,7.1952,7.3553,7.514,7.6569,7.812,7.9279,7.9343,7.9459,7.9556,7.9566,7.8636,7.7311,4.1391,4.1239,4.1546,4.1603,0.0,4.1746,4.1409,4.0746,4.1145,4.2724,4.5086,4.6699,4.8355,4.9829,5.036,5.1769,5.3944,5.4241,5.5565,5.769,5.8969,6.0243,6.1463,6.3537,6.5069,6.6234,6.8199,6.9682,7.0652,7.2553,7.3443,7.3449,7.1894,7.1141,7.1081,6.8677,6.7413,6.7377,6.7406,6.7065,6.6164,6.4498,6.2315,5.981,6.0292,0.0,0.0,0.0,0.0,0.0,0.0,0.0,0.0,0.0,0.0,5.4081,4.9252,4.6181,4.6157,4.6805,4.7954,4.9684,5.2791,5.3408,5.0413,5.1987,5.5778,6.2085,6.5868,6.7266,6.5788,6.5769,6.6294,6.7294,6.8938,7.0787,7.2609,7.4408,7.5884,7.6688,7.6328,7.5872,7.5884,7.5884,7.5884,7.5965,7.6607,7.7307,7.7989,7.682,7.5914,7.6782,7.6574,7.6348,7.6724,7.5629,7.4272,7.3199,7.1069,6.956,6.9311,6.9348,6.9612,7.0389,7.2538,7.4425,7.5507,7.7598,7.9324,7.9294,7.936,7.9007,7.7252,7.6422,7.5659,4.1017,4.1299,4.1021,4.1066,4.1372,4.0927,4.0191,3.9274,3.9776,4.1457,4.4132,4.6303,4.7812,4.8812,4.9342,5.0715,5.279,5.3395,5.4663,5.65,5.8568,5.9779,6.0332,6.2233,6.3264,6.3623,6.5463,6.6454,6.6678,6.9483,7.0903,7.0865,6.9622,6.905,6.8862,0.0,0.0,0.0,6.7283,6.7462,6.738,6.5756,6.3541,6.0816,6.1885,0.0,5.818,5.6126,5.4905,5.4627,5.1261,0.0,0.0,0.0,0.0,0.0,0.0,0.0,0.0,0.0,0.0,0.0,4.4416,4.4069,4.0914,4.42,5.0136,5.8499,6.3985,6.5972,6.3654,6.2998,6.3506,6.5589,6.7135,6.8749,7.0562,7.226,7.355,7.4046,7.4156,7.4168,7.4191,7.4181,7.4153,7.4199,7.4448,7.4977,7.5657,7.4362,7.3839,7.4387,7.4142,7.3708,7.433,7.3595,7.2747,7.1898,7.0484,6.9485,6.9372,6.941,6.9386,6.9381,7.1696,7.3861,7.4619,7.656,7.8186,7.8609,7.845,7.7513,7.4632,7.4092,7.412,3.9507,4.0989,4.0546,4.0185,3.9969,3.9976,3.9957,3.9972,4.0709,4.1688,4.2892,4.4654,4.6425,4.814,4.8552,4.9818,5.1791,5.3503,5.4661,5.5368,5.7295,5.8369,5.8892,6.068,6.1667,6.2009,6.3795,6.4704,6.4889,6.5402,6.5694,6.5672,6.5596,6.5559,6.5491,6.3672,6.3525,6.5227,6.6712,6.747,6.7424,6.581,6.4649,6.4116,6.4284,6.4089,6.3453,6.0338,5.8632,5.8439,5.4367,5.2474,5.3296,4.4924,3.8675,0.0,3.3854,0.0,0.0,0.0,0.0,0.0,0.0,0.0,0.0,3.9532,4.3948,5.3566,6.0237,6.3839,6.3543,6.1078,6.0747,6.3873,6.4458,6.528,6.7099,6.8951,7.0614,7.2124,7.236,7.2445,7.2338,7.2465,7.2465,7.2338,7.3231,7.326,7.1357,7.0575,7.1311,7.4292,7.4499,7.3552,7.3782,7.2991,7.2049,7.1764,7.0464,6.9447,6.9392,6.939,6.9386,6.952,7.089,7.2861,7.538,7.5207,7.5328,7.6373,7.5755,7.4458,7.2765,7.2381,7.1988,3.7935,3.9473,3.9182,3.8729,3.8179,3.8947,3.9621,4.0338,4.1619,4.2755,4.3728,4.3976,4.4272,4.4666,4.4935,4.655,4.9099,5.0115,5.2177,5.5111,5.6192,5.7288,5.8581,6.0374,6.0884,6.0354,6.3983,6.4855,6.3272,6.4217,6.4244,6.3342,6.2535,6.1196,5.9491,5.951,6.1376,6.4882,6.6603,6.7904,6.8786,6.8139,6.7251,6.626,6.5359,6.4358,6.3262,5.9954,5.7607,5.664,5.5197,5.4353,5.4015,4.2318,3.3364,0.0,0.0,0.0,0.0,0.0,0.0,0.0,0.0,0.0,0.0,0.0,3.83,3.7435,5.1607,6.0354,5.9356,5.5805,5.4502,5.704,5.7264,5.7594,5.8387,6.1714,6.4234,6.5048,6.7602,6.8959,6.8153,6.8835,6.9062,6.8153,6.8702,6.8729,6.7343,6.7046,6.7462,6.8869,6.9143,6.9392,7.0234,7.0464,7.0561,7.0466,6.9863,6.9411,6.943,6.9411,6.941,6.9523,7.0744,7.2395,7.3801,7.414,7.4628,7.5275,7.3695,7.161,7.0672,7.0653,7.0622,3.5945,3.7357,3.6393,3.6014,3.6215,3.7691,3.8883,3.9898,4.1656,4.3236,4.4477,4.341,4.2664,4.2135,4.1911,4.3037,4.5243,4.6492,4.9438,5.3524,5.4233,5.5508,5.7387,5.8813,5.8896,5.8192,6.1952,6.2598,6.0338,6.1696,6.1509,5.9773,5.7046,5.4481,5.2231,5.5196,5.9072,6.3668,6.659,6.8676,6.9929,7.0003,6.9402,6.809,6.6394,6.4876,6.3428,5.981,5.6936,5.5175,5.4698,5.3374,5.0737,3.8634,0.0,0.0,0.0,0.0,0.0,0.0,0.0,0.0,0.0,2.3259,2.2936,0.0,3.1646,0.0,4.1984,5.4166,5.4138,5.049,0.0,0.0,4.9896,4.9948,4.959,5.403,5.7306,5.7831,6.1939,6.4611,6.4233,6.5275,6.5179,6.2702,6.2453,6.2866,6.3668,6.3625,6.3966,6.5263,6.5689,6.5771,6.7088,6.8104,6.8694,6.8337,6.8224,6.8224,6.8224,6.8206,6.8375,6.8846,6.9899,7.0932,7.1777,7.2545,7.3388,7.3952,7.1771,6.9424,6.941,6.9524,6.9625,3.3223,3.476,3.1305,3.1349,3.3877,3.5895,3.7079,3.7921,4.0086,4.2182,4.4055,4.2954,4.2466,4.2407,4.1289,0.0,3.939,4.3907,4.7021,4.895,5.0578,5.2237,5.3999,5.4342,5.4439,5.4486,5.4989,5.5177,5.5069,5.5415,5.4727,5.2938,4.6844,4.361,4.3813,5.1256,5.6842,6.0265,6.6535,6.9814,6.9966,7.0,6.9932,6.9742,6.8173,6.7168,6.6882,6.2244,5.8801,5.6901,5.266,4.7304,4.0897,0.0,0.0,0.0,0.0,0.0,0.0,0.0,0.0,0.0,0.0,0.0,0.0,0.0,0.0,0.0,3.2765,0.0,4.9146,4.6694,0.0,0.0,0.0,4.4372,4.2932,4.7296,5.0994,5.268,0.0,0.0,6.2209,6.2691,6.102,5.6227,5.5731,5.6902,5.9873,6.028,6.1959,6.6,6.6958,6.6998,6.6527,6.6899,6.6627,6.5183,6.4903,6.4957,6.501,6.4869,6.5475,6.6884,6.7264,6.7789,6.9411,6.9766,6.9816,7.0079,6.959,6.9311,6.9164,6.9242,6.9291,2.7375,2.5538,2.4278,2.5323,2.7917,2.9862,3.2725,3.6198,3.8006,4.0024,4.1855,3.963,3.7555,3.5615,3.3235,0.0,0.0,0.0,4.2174,4.5703,4.8298,5.0465,5.2223,5.4253,5.4851,5.4121,5.5231,5.4783,5.2983,5.2157,4.844,4.1926,0.0,0.0,3.9602,4.5709,5.2006,5.827,6.4012,6.7903,6.9934,6.9986,6.9943,6.9813,6.731,6.5415,6.4388,5.9522,5.4605,4.984,4.5913,3.9624,0.0,0.0,0.0,0.0,0.0,0.0,0.0,0.0,0.0,0.0,0.0,1.8089,1.796,0.0,0.0,0.0,2.7085,3.7666,4.8443,4.2791,0.0,0.0,0.0,0.0,0.0,0.0,0.0,4.3061,4.9765,5.4475,5.4823,5.5761,5.6379,5.6356,5.5506,5.5366,5.6653,0.0,5.7529,5.953,6.0664,6.1277,6.1288,6.2859,6.3551,6.1899,6.1606,6.1908,6.2852,6.2225,6.2494,6.4752,6.5492,6.6285,6.8903,6.7696,6.6884,6.8876,6.7786,6.6412,6.622,6.6397,6.6887,2.1478,0.0,0.0,0.0,0.0,2.4893,2.8235,3.2151,3.4254,3.5968,3.7184,3.4622,0.0,0.0,0.0,0.0,0.0,0.0,3.7121,4.1793,4.4576,4.6994,4.9126,5.1558,5.2163,5.1281,5.2553,5.1817,4.9145,4.5288,3.9062,3.0833,0.0,0.0,0.0,0.0,4.808,5.5821,6.233,6.7061,6.9849,6.9925,6.9875,6.9771,6.6161,6.3136,6.1001,5.5615,4.9597,4.2846,3.806,0.0,0.0,0.0,0.0,0.0,0.0,0.0,0.0,0.0,0.0,0.0,0.0,0.0,0.0,0.0,0.0,0.0,0.0,0.0,4.1754,3.7885,3.3611,0.0,0.0,0.0,0.0,0.0,0.0,0.0,0.0,0.0,4.5923,4.8786,5.1881,0.0,0.0,5.4634,5.4094,5.4502,5.4985,5.5506,5.6982,0.0,5.6824,5.8997,5.9923,5.7265,5.6851,5.7241,5.8411,5.7629,5.8016,6.175,6.2381,6.2084,6.2067,6.0735,6.1188,6.3688,6.3011,6.1507,6.1464,6.2371,6.3425,0.0,0.0,0.0,0.0,0.0,0.0,0.0,0.0,2.8003,2.9465,0.0,2.7873,0.0,0.0,0.0,0.0,2.2739,2.7549,0.0,0.0,3.8692,4.1071,4.405,4.4389,4.4398,4.4442,4.4697,4.3917,4.1944,3.2879,0.0,0.0,0.0,0.0,0.0,0.0,4.5802,5.2719,6.2307,6.8135,6.9726,6.9764,6.9793,6.9697,6.4959,6.0851,5.746,5.1138,4.4445,3.7615,2.9543,0.0,0.0,0.0,0.0,0.0,0.0,0.0,0.0,0.0,0.0,0.0,0.0,0.0,0.0,0.0,0.0,0.0,0.0,0.0,0.0,3.1578,0.0,0.0,0.0,0.0,0.0,0.0,0.0,0.0,0.0,0.0,3.6055,4.2634,4.7606,4.7645,0.0,0.0,0.0,0.0,5.5382,5.6952,5.8663,5.8619,5.5539,5.644,5.5824,5.0983,0.0,0.0,5.018,5.0031,5.1515,5.6417,5.7149,5.4375,4.5796,4.7715,5.0838,5.2865,5.4047,5.4648,5.4896,5.6924,5.9196,0.0,0.0,0.0,0.0,0.0,0.0,0.0,0.0,0.0,2.3539,0.0,2.2967,0.0,0.0,0.0,0.0,0.0,0.0,0.0,0.0,3.5882,3.8692,4.0756,4.1872,4.2449,0.0,3.943,3.5544,0.0,0.0,0.0,0.0,0.0,0.0,0.0,0.0,4.2474,5.234,6.0177,6.5995,6.9562,6.9767,6.973,6.9587,6.6852,6.1308,5.2636,4.4938,3.7575,0.0,0.0,0.0,0.0,0.0,0.0,0.0,0.0,0.0,0.0,0.0,0.0,0.0,0.0,0.0,0.0,0.0,0.0,0.0,0.0,0.0,0.0,0.0,2.7115,0.0,0.0,0.0,0.0,0.0,0.0,0.0,0.0,0.0,3.4878,3.9446,4.3786,4.6834,5.0585,5.2823,5.2156,0.0,0.0,0.0,0.0,0.0,0.0,0.0,5.3076,5.0326,4.8903,4.7407,4.5292,4.4835,4.5669,4.8535,0.0,0.0,4.1894,4.2795,4.4486,4.4151,4.5269,4.6598,4.7664,4.886,5.0331,0.0,0.0,0.0,0.0,0.0,0.0,0.0,0.0,0.0,1.8365,1.8769,0.0,0.0,0.0,0.0,0.0,0.0,0.0,0.0,0.0,0.0,0.0,3.588,3.7013,0.0,0.0,0.0,0.0,0.0,0.0,0.0,0.0,0.0,0.0,0.0,0.0,4.1332,5.2212,5.9563,6.5379,6.9604,6.9755,6.9649,6.95,6.7404,6.1823,5.2427,0.0,0.0,0.0,0.0,0.0,0.0,0.0,0.0,0.0,0.0,0.0,0.0,0.0,0.0,0.0,0.0,0.0,0.0,0.0,0.0,0.0,0.0,0.0,0.0,0.0,2.4821,0.0,0.0,0.0,0.0,0.0,0.0,0.0,0.0,0.0,0.0,0.0,4.0149,4.4975,4.9836,5.292,5.2878,5.4309,5.4857,0.0,0.0,0.0,0.0,0.0,0.0,0.0,0.0,0.0,0.0,0.0,0.0,0.0,0.0,3.7754,3.4285,3.4597,3.5209,3.4612,0.0,0.0,0.0,0.0,0.0,0.0,0.0,0.0,0.0,0.0,0.0,0.0,0.0,0.0,0.0,1.2449,0.0,0.0,1.0067,0.0,0.0,0.0,0.0,0.0,0.0,0.0,0.0,0.0,0.0,0.0,0.0,0.0,0.0,0.0,0.0,0.0,0.0,0.0,0.0,0.0,0.0,4.238,5.2416,6.0653,6.6477,6.9641,6.9653,6.9512,6.9336,6.613,6.1961,5.6681,0.0,0.0,0.0,0.0,0.0,0.0,0.0,0.0,0.0,0.0,0.0,0.0,0.0,0.0,0.0,0.0,0.0,0.0,0.0,0.0,0.0,0.0,0.0,0.0,0.0,0.0,2.9121,2.6782,2.4273,0.0,0.0,0.0,0.0,0.0,0.0,0.0,0.0,0.0,4.1619,4.9326,5.4381,5.4343,5.5864,5.6402,5.4819,5.7392,5.7974,5.3334,5.2458,5.0153,0.0,0.0,0.0,0.0,0.0,0.0,0.0,0.0,0.0,0.0,0.0,0.0,0.0,0.0,0.0,0.0,0.0,0.0,0.0,0.0,0.0,0.0,0.0,0.0,0.0,0.0,0.0,0.0,0.0,0.0,0.0,0.0,0.0,0.0,0.0,0.0,0.0,0.0,0.0,0.0,0.0,0.0,0.0,0.0,0.0,0.0,0.0,0.0,0.0,0.0,0.0,0.0,0.0,0.0,4.123,5.239,6.0691,6.6424,6.9577,6.9512,6.943,6.9126,6.3914,5.8059,0.0,0.0,0.0,0.0,0.0,0.0,0.0,0.0,0.0,0.0,0.0,0.0,0.0,0.0,0.0,0.0,0.0,0.0,0.0,0.0,0.0,0.0,0.0,0.0,0.0,0.0,0.0,0.0,2.6524,2.5594,2.2778,0.0,0.0,0.0,0.0,0.0,0.0,0.0,0.0,0.0,0.0,5.0156,5.2509,5.6131,5.7597,5.4858,5.5451,5.6509,5.7357,5.3551,5.0287,4.9468,0.0,0.0,0.0,0.0,0.0,0.0,0.0,0.0,0.0,0.0,0.0,0.0,0.0,0.0,0.0,0.0,0.0,0.0,0.0,0.0,0.0,0.0,0.0,0.0,0.0,0.0,0.0,0.0,0.0,0.0,0.0,0.0,0.0,0.0,0.0,0.0,0.0,0.0,0.0,0.0,0.0,0.0,0.0,0.0,0.0,0.0,0.0,0.0,0.0,0.0,0.0,0.0,0.0,4.0091,5.2276,5.9979,6.5746,6.9377,6.9448,6.9372,6.9193,6.288,5.6708,0.0,0.0,0.0,0.0,0.0,0.0,0.0,0.0,0.0,0.0,0.0,0.0,0.0,0.0,0.0,0.0,0.0,0.0,0.0,0.0,0.0,0.0,0.0,0.0,0.0,0.0,0.0,0.0,2.6567,2.6839,2.2902,0.0,0.0,0.0,0.0,0.0,0.0,0.0,0.0,0.0,0.0,4.7529,5.1493,5.5627,0.0,0.0,5.519,5.7014,5.8493,5.4226,5.0678,5.0467,4.2629,0.0,0.0,0.0,0.0,0.0,0.0,0.0,0.0,0.0,0.0,0.0,0.0,0.0,0.0,0.0,0.0,0.0,0.0,0.0,0.0,0.0,0.0,0.0,0.0,0.0,0.0,0.0,0.0,0.0,0.0,0.0,0.0,0.0,0.0,0.0,0.0,0.0,0.0,0.0,0.0,0.0,0.0,0.0,0.0,0.0,0.0,0.0,0.0,0.0,0.0,0.0,0.0,3.8943,5.1799,5.8775,6.4624,6.937,6.9449,6.9348,6.9089,6.2653,5.68,0.0,0.0,0.0,0.0,0.0,0.0,0.0,0.0,0.0,0.0,0.0,0.0,0.0,0.0,0.0,0.0,0.0,0.0,0.0,0.0,0.0,0.0,0.0,0.0,0.0,0.0,0.0,0.0,0.0,0.0,0.0,0.0,0.0,0.0,0.0,0.0,0.0,0.0,0.0,0.0,0.0,4.5956,5.0913,5.4353,5.5253,0.0,5.5714,5.8454,5.7002,5.4143,5.1011,4.7766,0.0,0.0,0.0,0.0,0.0,0.0,0.0,0.0,0.0,0.0,0.0,0.0,0.0,0.0,0.0,0.0,0.0,0.0,0.0,0.0,0.0,0.0,0.0,0.0,0.0,0.0,0.0,0.0,0.0,0.0,0.0,0.0,0.0,0.0,0.0,0.0,0.0,0.0,0.0,0.0,0.0,0.0,0.0,0.0,0.0,0.0,0.0,0.0,0.0,0.0,0.0,0.0,0.0,0.0,5.0211,5.8191,6.4557,6.9241,6.9294,6.9247,6.9052,6.0435,0.0,0.0,0.0,0.0,0.0,0.0,0.0,0.0,0.0,0.0,0.0,0.0,0.0,0.0,0.0,0.0,0.0,0.0,0.0,0.0,0.0,0.0,0.0,0.0,0.0,0.0,0.0,1.3634,0.0,0.0,0.0,0.0,0.0,0.0,0.0,0.0,0.0,0.0,0.0,0.0,0.0,0.0,4.2666,4.7555,5.1049,5.1524,0.0,0.0,5.3704,5.341,5.1704,4.9269,0.0,0.0,0.0,0.0,0.0,0.0,0.0,0.0,0.0,0.0,0.0,0.0,0.0,0.0,0.0,0.0,0.0,0.0,0.0,0.0,0.0,0.0,0.0,0.0,0.0,0.0,0.0,0.0,0.0,0.0,0.0,0.0,0.0,0.0,0.0,0.0,0.0,0.0,0.0,0.0,0.0,0.0,0.0,0.0,0.0,0.0,0.0,0.0,0.0,0.0,0.0,0.0,0.0,0.0,3.7459,4.7531,5.6483,6.335,6.8092,6.8849,6.9133,6.9179,5.955,5.243,0.0,0.0,0.0,0.0,0.0,0.0,0.0,0.0,0.0,0.0,0.0,0.0,0.0,0.0,0.0,0.0,0.0,0.0,0.0,0.0,0.0,0.0,0.0,0.0,0.0,0.0,0.0,0.0,0.0,0.0,0.0,0.0,0.0,0.0,0.0,0.0,0.0,0.0,0.0,0.0,0.0,0.0,4.5457,4.8122,0.0,0.0,0.0,4.8657,4.8792,0.0,0.0,0.0,0.0,0.0,0.0,0.0,0.0,0.0,0.0,0.0,0.0,0.0,0.0,0.0,0.0,0.0,0.0,0.0,0.0,0.0,0.0,0.0,0.0,0.0,0.0,0.0,0.0,0.0,0.0,0.0,0.0,0.0,0.0,0.0,0.0,0.0,0.0,0.0,0.0,0.0,0.0,0.0,0.0,0.0,0.0,0.0,0.0,0.0,0.0,0.0,0.0,0.0,0.0,0.0,0.0,0.0,4.512,5.4646,6.1854,6.6637,6.8284,6.8986,6.8772,5.9397,5.2677,0.0,0.0,0.0,0.0,0.0,0.0,0.0,0.0,0.0,0.0,0.0,0.0,0.0,0.0,0.0,0.0,0.0,0.0,0.0,0.0,0.0,0.0,0.0,0.0,0.0,0.0,0.0,0.0,0.0,0.0,0.0,0.0,0.0,0.0,0.0,0.0,0.0,0.0,0.0,0.0,0.0,4.2269,4.3738,4.4968,4.3944,0.0,0.0,4.3448,4.3397,4.2521,0.0,0.0,0.0,0.0,0.0,0.0,0.0,0.0,0.0,0.0,0.0,0.0,0.0,0.0,0.0,0.0,0.0,0.0,0.0,0.0,0.0,0.0,0.0,0.0,0.0,0.0,0.0,0.0,0.0,0.0,0.0,0.0,0.0,0.0,0.0,0.0,0.0,0.0,0.0,0.0,0.0,0.0,0.0,0.0,0.0,0.0,0.0,0.0,0.0,0.0,0.0,0.0,0.0,0.0,0.0,0.0,4.6649,5.5175,6.1875,6.6637,6.8247,6.8374,6.6914,5.8735,5.208,0.0,0.0,0.0,0.0,0.0,0.0,0.0,0.0,0.0,0.0,0.0,0.0,0.0,0.0,0.0,0.0,0.0,0.0,0.0,0.0,0.0,0.0,0.0,0.0,0.0,0.0,0.0,0.0,0.0,0.0,0.0,0.0,0.0,0.0,0.0,0.0,0.0,0.0,0.0,0.0,0.0,4.0256,4.0584,3.9687,0.0,0.0,0.0,0.0,3.6748,3.8562,0.0,0.0,0.0,0.0,0.0,0.0,0.0,0.0,0.0,0.0,0.0,0.0,0.0,0.0,0.0,0.0,0.0,0.0,0.0,0.0,0.0,0.0,0.0,0.0,0.0,0.0,0.0,0.0,0.0,0.0,0.0,0.0,0.0,0.0,0.0,0.0,0.0,0.0,0.0,0.0,0.0,0.0,0.0,0.0,0.0,0.0,0.0,0.0,0.0,0.0,0.0,0.0,0.0,0.0,0.0,0.0,4.4861,5.3792,6.0752,6.551,6.7848,6.8174,6.6416,5.9284,5.2667,0.0,0.0,0.0,0.0,0.0,0.0,0.0,0.0,0.0,0.0,0.0,0.0,0.0,0.0,0.0,0.0,0.0,0.0,0.0,0.0,0.0,0.0,0.0,0.0,0.0,0.0,0.0,0.0,0.0,0.0,0.0,0.0,0.0,0.0,0.0,0.0,0.0,0.0,0.0,0.0,3.7092,3.9371,3.856,0.0,0.0,0.0,0.0,0.0,0.0,3.4225,3.4423,0.0,0.0,0.0,0.0,0.0,0.0,0.0,0.0,0.0,0.0,0.0,0.0,0.0,0.0,0.0,0.0,0.0,0.0,0.0,0.0,0.0,0.0,0.0,0.0,0.0,0.0,0.0,0.0,0.0,0.0,0.0,0.0,0.0,0.0,0.0,0.0,0.0,0.0,0.0,0.0,0.0,0.0,0.0,0.0,0.0,0.0,0.0,0.0,0.0,0.0,0.0,0.0,0.0,0.0,0.0,4.1906,5.169,5.8913,6.3405,6.6601,6.7349,6.5492,5.9205,5.2672,4.5986,0.0,0.0,0.0,0.0,0.0,0.0,0.0,0.0,0.0,0.0,0.0,0.0,0.0,0.0,0.0,0.0,0.0,0.0,0.0,0.0,0.0,0.0,0.0,0.0,0.0,0.0,0.0,0.0,0.0,0.0,0.0,0.0,0.0,0.0,0.0,0.0,0.0,0.0,0.0,3.5086,3.7401,0.0,0.0,0.0,0.0,0.0,0.0,0.0,0.0,3.0012,0.0,0.0,0.0,0.0,0.0,0.0,0.0,0.0,0.0,0.0,0.0,0.0,0.0,0.0,0.0,0.0,0.0,0.0,0.0,0.0,0.0,0.0,0.0,0.0,0.0,0.0,0.0,0.0,0.0,0.0,0.0,0.0,0.0,0.0,0.0,0.0,0.0,0.0,0.0,0.0,0.0,0.0,0.0,0.0,0.0,0.0,0.0,0.0,0.0,0.0,0.0,0.0,0.0,0.0,0.0,0.0,4.9943,5.6637,5.9966,6.3095,6.3897,6.1961,5.5705,4.9189,4.2579,0.0,0.0,0.0,0.0,0.0,0.0,0.0,0.0,0.0,0.0,0.0,0.0,0.0,0.0,0.0,0.0,0.0,0.0,0.0,0.0,0.0,0.0,0.0,0.0,0.0,0.0,0.0,0.0,0.0,0.0,0.0,0.0,0.0,0.0,0.0,0.0,0.0,0.0,2.5492,2.902,0.0,0.0,0.0,0.0,0.0,0.0,0.0,0.0,2.6663,0.0,0.0,0.0,0.0,0.0,0.0,0.0,0.0,0.0,0.0,0.0,0.0,0.0,0.0,0.0,0.0,0.0,0.0,0.0,0.0,0.0,0.0,0.0,0.0,0.0,0.0,0.0,0.0,0.0,0.0,0.0,0.0,0.0,0.0,0.0,0.0,0.0,0.0,0.0,0.0,0.0,0.0,0.0,0.0,0.0,0.0,0.0,0.0,0.0,0.0,0.0,0.0,0.0,0.0,0.0,0.0,0.0,0.0,5.3976,5.79,6.1881,6.264,5.9834,5.3525,4.6999,0.0,0.0,0.0,0.0,0.0,0.0,0.0,0.0,0.0,0.0,0.0,0.0,0.0,0.0,0.0,0.0,0.0,0.0,0.0,0.0,0.0,0.0,0.0,0.0,0.0,0.0,0.0,0.0,0.0,0.0,0.0,0.0,0.0,0.0,0.0,0.0,0.0,0.0,0.0,0.0,0.0,0.0,0.0,0.0,0.0,0.0,0.0,0.0,0.0,0.0,0.0,0.0,0.0,0.0,0.0,0.0,0.0,0.0,0.0,0.0,0.0,0.0,0.0,0.0,0.0,0.0,0.0,0.0,0.0,0.0,0.0,0.0,0.0,0.0,0.0,0.0,0.0,0.0,0.0,0.0,0.0,0.0,0.0,0.0,0.0,0.0,0.0,0.0,0.0,0.0,0.0,0.0,0.0,0.0,0.0,0.0,0.0,0.0,0.0,0.0,0.0,0.0,0.0,0.0,0.0,0.0,0.0,0.0,5.1022,5.5627,6.0083,6.1059,5.8246,5.147,4.4728,0.0,0.0,0.0,0.0,0.0,0.0,0.0,0.0,0.0,0.0,0.0,0.0,0.0,0.0,0.0,0.0,0.0,0.0,0.0,0.0,0.0,0.0,0.0,0.0,0.0,0.0,0.0,0.0,0.0,0.0,0.0,0.0,0.0,0.0,0.0,0.0,0.0,0.0,0.0,0.0,0.0,0.0,0.0,0.0,0.0,0.0,0.0,0.0,2.1866,0.0,0.0,0.0,0.0,0.0,0.0,0.0,0.0,0.0,0.0,0.0,0.0,0.0,0.0,0.0,0.0,0.0,0.0,0.0,0.0,0.0,0.0,0.0,0.0,0.0,0.0,0.0,0.0,0.0,0.0,0.0,0.0,0.0,0.0,0.0,0.0,0.0,0.0,0.0,0.0,0.0,0.0,0.0,0.0,0.0,0.0,0.0,0.0,0.0,0.0,0.0,0.0,0.0,0.0,0.0,0.0,0.0,0.0,0.0,4.7661,5.2292,5.5758,5.7205,5.64,4.8811,4.1501,0.0,0.0,0.0,0.0,0.0,0.0,0.0,0.0,0.0,0.0,0.0,0.0,0.0,0.0,0.0,0.0,0.0,0.0,0.0,0.0,0.0,0.0,0.0,0.0,0.0,0.0,0.0,0.0,0.0,0.0,0.0,0.0,0.0,0.0,0.0,0.0,0.0,0.0,0.0,0.0,0.0,0.0,0.0,0.0,0.0,0.0,0.0,0.0,0.0,0.0,0.0,0.0,0.0,0.0,0.0,0.0,0.0,0.0,0.0,0.0,0.0,0.0,0.0,0.0,0.0,0.0,0.0,0.0,0.0,0.0,0.0,0.0,0.0,0.0,0.0,0.0,0.0,0.0,0.0,0.0,0.0,0.0,0.0,0.0,0.0,0.0,0.0,0.0,0.0,0.0,0.0,0.0,0.0,0.0,0.0,0.0,0.0,0.0,0.0,0.0,0.0,0.0,0.0,0.0,0.0,0.0,0.0,0.0,4.2817,4.7531,5.1765,5.3454,5.2327,4.6121,3.9649,0.0,0.0,0.0,0.0,0.0,0.0,0.0,0.0,0.0,0.0,0.0,0.0,0.0,0.0,0.0,0.0,0.0,0.0,0.0,0.0,0.0,0.0,0.0,0.0,0.0,0.0,0.0,0.0,0.0,0.0,0.0,0.0,0.0,0.0,0.0,0.0,0.0,0.0,0.0,0.0,0.0,0.0,0.0,0.0,0.0,0.0,0.0,0.0,0.0,0.0,0.0,0.0,0.0,0.0,0.0,0.0,0.0,0.0,0.0,0.0,0.0,0.0,0.0,0.0,0.0,0.0,0.0,0.0,0.0,0.0,0.0,0.0,0.0,0.0,0.0,0.0,0.0,0.0,0.0,0.0,0.0,0.0,0.0,0.0,0.0,0.0,0.0,0.0,0.0,0.0,0.0,0.0,0.0,0.0,0.0,0.0,0.0,0.0,0.0,0.0,0.0,0.0,0.0,0.0,0.0,0.0,0.0,0.0,0.0,4.4366,4.7296,4.8146,4.6801,4.2358,3.6781,0.0,0.0,0.0,0.0,0.0,0.0,0.0,0.0,0.0,0.0,0.0,0.0,0.0,0.0,0.0,0.0,0.0,0.0,0.0,0.0,0.0,0.0,0.0,0.0,0.0,0.0,0.0,0.0,0.0,0.0,0.0,0.0,0.0,0.0,0.0,0.0,0.0,0.0,0.0,0.0,0.0,0.0,0.0,0.0,0.0,0.0,0.0,0.0,0.0,0.0,0.0,0.0,0.0,0.0,0.0,0.0,0.0,0.0,0.0,0.0,0.0,0.0,0.0,0.0,0.0,0.0,0.0,0.0,0.0,0.0,0.0,0.0,0.0,0.0,0.0,0.0,0.0,0.0,0.0,0.0,0.0,0.0,0.0,0.0,0.0,0.0,0.0,0.0,0.0,0.0,0.0,0.0,0.0,0.0,0.0,0.0,0.0,0.0,0.0,0.0,0.0,0.0,0.0,0.0,0.0,0.0,0.0,0.0,0.0,4.4616,4.1968,4.0482,4.0265,3.6908,3.1889,0.0,0.0,0.0,0.0,0.0,0.0,0.0,0.0,0.0,0.0,0.0,0.0,0.0,0.0,0.0,0.0,0.0,0.0,0.0,0.0,0.0,0.0,0.0,0.0,0.0,0.0,0.0,0.0,0.0,0.0,0.0,0.0,0.0,0.0,0.0,0.0,0.0,0.0,0.0,0.0,0.0,0.0,0.0,0.0,0.0,0.0,0.0,0.0,0.0,0.0,0.0,0.0,0.0,0.0,0.0,0.0,0.0,0.0,0.0,0.0,0.0,0.0,0.0,0.0,0.0,0.0,0.0,0.0,0.0,0.0,0.0,0.0,0.0,0.0,0.0,0.0,0.0,0.0,0.0,0.0,0.0,0.0,0.0,0.0,0.0,0.0,0.0,0.0,0.0,0.0,0.0,0.0,0.0,0.0,0.0,0.0,0.0,0.0,0.0,0.0,0.0,0.0,0.0,0.0,0.0,0.0,0.0,0.0,0.0,3.9826,3.8928,3.875,3.9749,3.4413,2.9368,2.4828,0.0,0.0,0.0,0.0,0.0,0.0,0.0,0.0,0.0,0.0,0.0,0.0,0.0,0.0,0.0,0.0,0.0,0.0,0.0,0.0,0.0,0.0,0.0,0.0,0.0,0.0,0.0,0.0,0.0,0.0,0.0,0.0,0.0,0.0,0.0,0.0,0.0,0.0,0.0,0.0,0.0,0.0,0.0,0.0,0.0,0.0,0.0,0.0,0.0,0.0,0.0,0.0,0.0,0.0,0.0,0.0,0.0,0.0,0.0,0.0,0.0,0.0,0.0,0.0,0.0,0.0,0.0,0.0,0.0,0.0,0.0,0.0,0.0,0.0,0.0,0.0,0.0,0.0,0.0,0.0,0.0,0.0,0.0,0.0,0.0,0.0,0.0,0.0,0.0,0.0,0.0,0.0,0.0,0.0,0.0,0.0,0.0,0.0,0.0,0.0,0.0,0.0,0.0,0.0,0.0,0.0,0.0,0.0,3.4966,3.5597,3.6388,3.7307,3.1995,2.743,0.0,0.0,0.0,0.0,0.0,0.0,0.0,0.0,0.0,0.0,0.0,0.0,0.0,0.0,0.0,0.0,0.0,0.0,0.0,0.0,0.0,0.0,0.0,0.0,0.0,0.0,0.0,0.0,0.0,0.0,0.0,0.0,0.0,0.0,0.0,0.0,0.0,0.0,0.0,0.0,0.0,0.0,0.0,0.0,0.0,0.0,0.0,0.0,0.0,0.0,0.0,0.0,0.0,0.0,0.0,0.0,0.0,0.0,0.0,0.0,0.0,0.0,0.0,0.0,0.0,0.0,0.0,0.0,0.0,0.0,0.0,0.0,0.0,0.0,0.0,0.0,0.0,0.0,0.0,0.0,0.0,0.0,0.0,0.0,0.0,0.0,0.0,0.0,0.0,0.0,0.0,0.0,0.0,0.0,0.0,0.0,0.0,0.0,0.0,0.0,0.0,0.0,0.0,0.0,0.0,0.0,0.0,0.0,2.5082,2.9829,3.1695,3.2682,3.2512,2.9311,2.5881,0.0,0.0,0.0,0.0,0.0,0.0,0.0,0.0,0.0,0.0,0.0,0.0,0.0,0.0,0.0,0.0,0.0,0.0,0.0,0.0,0.0,0.0,0.0,0.0,0.0,0.0,0.0,0.0,0.0,0.0,0.0,0.0,0.0,0.0,0.0,0.0,0.0,0.0,0.0,0.0,0.0,0.0,0.0,0.0,0.0,0.0,0.0,0.0,0.0,0.0,0.0,0.0,0.0,0.0,0.0,0.0,0.0,0.0,0.0,0.0,0.0,0.0,0.0,0.0,0.0,0.0,0.0,0.0,0.0,0.0,0.0,0.0,0.0,0.0,0.0,0.0,0.0,0.0,0.0,0.0,0.0,0.0,0.0,0.0,0.0,0.0,0.0,0.0,0.0,0.0,0.0,0.0,0.0,0.0,0.0,0.0,0.0,0.0,0.0,0.0,0.0,0.0,0.0,0.0,0.0,0.0,0.0,0.0,0.0,2.6649,2.9342,3.132,3.229,2.9154,2.5788,0.0,0.0,0.0,0.0,0.0,0.0,0.0,0.0,0.0,0.0,0.0,0.0,0.0,0.0,0.0,0.0,0.0,0.0,0.0,0.0,0.0,0.0,0.0,0.0,0.0,0.0,0.0,0.0,0.0,0.0,0.0,0.0,0.0,0.0,0.0,0.0,0.0,0.0,0.0,0.0,0.0,0.0,0.0,0.0,0.0,0.0,0.0,0.0,0.0,0.0,0.0,0.0,0.0,0.0,0.0,0.0,0.0,0.0,0.0,0.0,0.0,0.0,0.0,0.0,0.0,0.0,0.0,0.0,0.0,0.0,0.0,0.0,0.0,0.0,0.0,0.0,0.0,0.0,0.0,0.0,0.0,0.0,0.0,0.0,0.0,0.0,0.0,0.0,0.0,0.0,0.0,0.0,0.0,0.0,0.0,0.0,0.0,0.0,0.0,0.0,0.0,0.0,0.0,0.0,0.0,0.0,0.0,0.0,0.0,2.4257,2.6795,2.9238,3.1349,2.884,2.6034,0.0,0.0,0.0,0.0,0.0,0.0,0.0,0.0,0.0,0.0,0.0,0.0,0.0,0.0,0.0,0.0,0.0,0.0,0.0,0.0,0.0,0.0,0.0,0.0,0.0,0.0,0.0,0.0,0.0,0.0,0.0,0.0,0.0,0.0,0.0,0.0,0.0,0.0,0.0,0.0,0.0,0.0,0.0,0.0,0.0,0.0,0.0,0.0,0.0,0.0,0.0,0.0,0.0,0.0,0.0,0.0,0.0,0.0,0.0,0.0,0.0,0.0,0.0,0.0,0.0,0.0,0.0,0.0,0.0,0.0,0.0,0.0,0.0,0.0,0.0,0.0,0.0,0.0,0.0,0.0,0.0,0.0,0.0,0.0,0.0,0.0,0.0,0.0,0.0,0.0,0.0,0.0,0.0,0.0,0.0,0.0,0.0,0.0,0.0,0.0,0.0,0.0,0.0,0.0,0.0,0.0,0.0,0.0,0.0,2.2553,2.4241,2.6589,2.9503,2.8041,2.6361,0.0,0.0,0.0,0.0,0.0,0.0,0.0,0.0,0.0,0.0,0.0,0.0,0.0,0.0,0.0,0.0,0.0,0.0,0.0,0.0,0.0,0.0,0.0,0.0,0.0,0.0,0.0,0.0,0.0,0.0,0.0,0.0,0.0,0.0,0.0,0.0,0.0,0.0,0.0,0.0,0.0,0.0,0.0,0.0,0.0,0.0,0.0,0.0,0.0,0.0,0.0,0.0,0.0,0.0,0.0,0.0,0.0,0.0,0.0,0.0,0.0,0.0,0.0,0.0,0.0,0.0,0.0,0.0,0.0,0.0,0.0,0.0,0.0,0.0,0.0,0.0,0.0,0.0,0.0,0.0,0.0,0.0,0.0,0.0,0.0,0.0,0.0,0.0,0.0,0.0,0.0,0.0,0.0,0.0,0.0,0.0,0.0,0.0,0.0,0.0,0.0,0.0,0.0,0.0,0.0,0.0,0.0,0.0,0.0,0.0,2.4212,2.5427,2.6201,2.5751,2.4771,2.3105,0.0,0.0,0.0,0.0,0.0,0.0,0.0,0.0,0.0,0.0,0.0,0.0,0.0,0.0,0.0,0.0,0.0,0.0,0.0,0.0,0.0,0.0,0.0,0.0,0.0,0.0,0.0,0.0,0.0,0.0,0.0,0.0,0.0,0.0,0.0,0.0,0.0,0.0,0.0,0.0,0.0,0.0,0.0,0.0,0.0,0.0,0.0,0.0,0.0,0.0,0.0,0.0,0.0,0.0,0.0,0.0,0.0,0.0,0.0,0.0,0.0,0.0,0.0,0.0,0.0,0.0,0.0,0.0,0.0,0.0,0.0,0.0,0.0,0.0,0.0,0.0,0.0,0.0,0.0,0.0,0.0,0.0,0.0,0.0,0.0,0.0,0.0,0.0,0.0,0.0,0.0,0.0,0.0,0.0,0.0,0.0,0.0,0.0,0.0,0.0,0.0,0.0,0.0,0.0,0.0,0.0,0.0,0.0,0.0,0.0,2.4025,2.3938,2.4559,2.411,0.0,0.0,0.0,0.0,0.0,0.0,0.0,0.0,0.0,0.0,0.0,0.0,0.0,0.0,0.0,0.0,0.0,0.0,0.0,0.0,0.0,0.0,0.0,0.0,0.0,0.0,0.0,0.0,0.0,0.0,0.0,0.0,0.0,0.0,0.0,0.0,0.0,0.0,0.0,0.0,0.0,0.0,0.0,0.0,0.0,0.0,0.0,0.0,0.0,0.0,0.0,0.0,0.0,0.0,0.0,0.0,0.0,0.0,0.0,0.0,0.0,0.0,0.0,0.0,0.0,0.0,0.0,0.0,0.0,0.0,0.0,0.0,0.0,0.0,0.0,0.0,0.0,0.0,0.0,0.0,0.0,0.0,0.0,0.0,0.0,0.0,0.0,0.0,0.0,0.0,0.0,0.0,0.0,0.0,0.0,0.0,0.0,0.0,0.0,0.0,0.0,0.0,0.0,0.0,0.0,0.0,0.0,0.0,0.0,0.0,0.0,2.2392,2.2532,2.3777,0.0,2.2472,0.0,0.0,0.0,0.0,0.0,0.0,0.0,0.0,0.0,0.0,0.0,0.0,0.0,0.0,0.0,0.0,0.0,0.0,0.0,0.0,0.0,0.0,0.0,0.0,0.0,0.0,0.0,0.0,0.0,0.0,0.0,0.0,0.0,0.0,0.0,0.0,0.0,0.0,0.0,0.0,0.0,0.0,0.0,0.0,0.0,0.0,0.0,0.0,0.0,0.0,0.0,0.0,0.0,0.0,0.0,0.0,0.0,0.0,0.0,0.0,0.0,0.0,0.0,0.0,0.0,0.0,0.0,0.0,0.0,0.0,0.0,0.0,0.0,0.0,0.0,0.0,0.0,0.0,0.0,0.0,0.0,0.0,0.0,0.0,0.0,0.0,0.0,0.0,0.0,0.0,0.0,0.0,0.0,0.0,0.0,0.0,0.0,0.0,0.0,0.0,0.0,0.0,0.0,0.0,0.0,0.0,0.0,0.0,0.0,0.0,0.0,0.0,2.1638,2.149,2.2254,0.0,0.0,0.0,0.0,0.0,0.0,0.0,0.0,0.0,0.0,0.0,0.0,0.0,0.0,0.0,0.0,0.0,0.0,0.0,0.0,0.0,0.0,0.0,0.0,0.0,0.0,0.0,0.0,0.0,0.0,0.0,0.0,0.0,0.0,0.0,0.0,0.0,0.0,0.0,0.0,0.0,0.0,0.0,0.0,0.0,0.0,0.0,0.0,0.0,0.0,0.0,0.0,0.0,0.0,0.0,0.0,0.0,0.0,0.0,0.0,0.0,0.0,0.0,0.0,0.0,0.0,0.0,0.0,0.0,0.0,0.0,0.0,0.0,0.0,0.0,0.0,0.0,0.0,0.0,0.0,0.0,0.0,0.0,0.0,0.0,0.0,0.0,0.0,0.0,0.0,0.0,0.0,0.0,0.0,0.0,0.0,0.0,0.0,0.0,0.0,0.0,0.0,0.0,0.0,0.0,0.0,0.0,0.0,0.0,0.0,2.0798,2.2462,2.1684,2.1922,2.3382,0.0,0.0,0.0,0.0,0.0,0.0,0.0,0.0,0.0,0.0,0.0,0.0,0.0,0.0,0.0,0.0,0.0,0.0,0.0,0.0,0.0,0.0,0.0,0.0,0.0,0.0,0.0,0.0,0.0,0.0,0.0,0.0,0.0,0.0,0.0,0.0,0.0,0.0,0.0,0.0,0.0,0.0,0.0,0.0,0.0,0.0,0.0,0.0,0.0,0.0,0.0,0.0,0.0,0.0,0.0,0.0,0.0,0.0,0.0,0.0,0.0,0.0,0.0,0.0,0.0,0.0,0.0,0.0,0.0,0.0,0.0,0.0,0.0,0.0,0.0,0.0,0.0,0.0,0.0,0.0,0.0,0.0,0.0,0.0,0.0,0.0,0.0,0.0,0.0,0.0,0.0,0.0,0.0,0.0,0.0,0.0,0.0,0.0,0.0,0.0,0.0,0.0,0.0,0.0,0.0,0.0,0.0,0.0,0.0,0.0,2.0913,0.0,0.0,0.0,2.4761,0.0,0.0,0.0,0.0,0.0,0.0,0.0,0.0,0.0,0.0,0.0,0.0,0.0,0.0,0.0,0.0,0.0,0.0,0.0,0.0,0.0,0.0,0.0,0.0,0.0,0.0,0.0,0.0,0.0,0.0,0.0,0.0,0.0,0.0,0.0,0.0,0.0,0.0,0.0,0.0,0.0,0.0,0.0,0.0,0.0,0.0,0.0,0.0,0.0,0.0,0.0,0.0,0.0,0.0,0.0,0.0,0.0,0.0,0.0,0.0,0.0,0.0,0.0,0.0,0.0,0.0,0.0,0.0,0.0,0.0,0.0,0.0,0.0,0.0,0.0,0.0,0.0,0.0,0.0,0.0,0.0,0.0,0.0,0.0,0.0,0.0,0.0,0.0,0.0,0.0,0.0,0.0,0.0,0.0,0.0,0.0,0.0,0.0,0.0,0.0,0.0,0.0,0.0,0.0,0.0,0.0,0.0,0.0,0.0,0.0,0.0,0.0,0.0,0.0,0.0,0.0,0.0,0.0,0.0,0.0,0.0,0.0,0.0,0.0,0.0,0.0,0.0,0.0,0.0,0.0,0.0,0.0,0.0,0.0,0.0,0.0,0.0,0.0,0.0,0.0,0.0,0.0,0.0,0.0,0.0,0.0,0.0,0.0,0.0,0.0,0.0,0.0,0.0,0.0,0.0,0.0,0.0,0.0,0.0,0.0,0.0,0.0,0.0,0.0,0.0,0.0,0.0,0.0,0.0,0.0,0.0,0.0,0.0,0.0,0.0,0.0,0.0,0.0,0.0,0.0,0.0,0.0,0.0,0.0,0.0,0.0,0.0,0.0,0.0,0.0,0.0,0.0,0.0,0.0,0.0,0.0,0.0,0.0,0.0,0.0,0.0,0.0,0.0,0.0,0.0,0.0,0.0,0.0,0.0,0.0,0.0,0.0,0.0,0.0,0.0,0.0,0.0,0.0,0.0,0.0,0.0,0.0,0.0,0.0,0.0,0.0,0.0,0.0,0.0,0.0,0.0,0.0,0.0,0.0,0.0,0.0,0.0,0.0,0.0,0.0,0.0,0.0,0.0,0.0,0.0,0.0,0.0,0.0,0.0,0.0,0.0,0.0,0.0,0.0,0.0,0.0,0.0,0.0,0.0,0.0,0.0,0.0,0.0,0.0,0.0,0.0,0.0,0.0,0.0,0.0,0.0,0.0,0.0,0.0,0.0,0.0,0.0,0.0,0.0,0.0,0.0,0.0,0.0,0.0,0.0,0.0,0.0,0.0,0.0,0.0,0.0,0.0,0.0,0.0,0.0,0.0,0.0,0.0,0.0,0.0,0.0,0.0,0.0,0.0,0.0,0.0,0.0,0.0,0.0,0.0,0.0,0.0,0.0,0.0,0.0,0.0,0.0,0.0,0.0,0.0,0.0,0.0,0.0,0.0,0.0,0.0,0.0,0.0,0.0,0.0,0.0,0.0,0.0,0.0,0.0,0.0,0.0,0.0,0.0,0.0,0.0,0.0,0.0,0.0,0.0,0.0,0.0,0.0,0.0,0.0,0.0,0.0,0.0,0.0,0.0,0.0,0.0,0.0,0.0,0.0,0.0,0.0,0.0,0.0,0.0,0.0,0.0,0.0,0.0,0.0,0.0,0.0,0.0,0.0,0.0,0.0,0.0,0.0,0.0,0.0,0.0,0.0,0.0,0.0,0.0,0.0,0.0,0.0,0.0,0.0,0.0,0.0,0.0,0.0,0.0,0.0,0.0,0.0,0.0,0.0,0.0,0.0,0.0,0.0,0.0,0.0,0.0,0.0,0.0,0.0,0.0,0.0,0.0,0.0,0.0,0.0,0.0,0.0,0.0,0.0,0.0,0.0,0.0,0.0,0.0,0.0,0.0,0.0,0.0,0.0,0.0,0.0,0.0,0.0,0.0,0.0,0.0,0.0,0.0,0.0,0.0,0.0,0.0,0.0,0.0,0.0,0.0,0.0,0.0,0.0,0.0,0.0,0.0,0.0,0.0,0.0,0.0,0.0,0.0,0.0,0.0,0.0,0.0,0.0,0.0,0.0,0.0,0.0,0.0,0.0,0.0,0.0,0.0,0.0,0.0,0.0,0.0,0.0,0.0,0.0,0.0,0.0,0.0,0.0,0.0,0.0,0.0,0.0,0.0,0.0,0.0,0.0,0.0,0.0,0.0,0.0,0.0,0.0,0.0,0.0,0.0,0.0,0.0,0.0,0.0,0.0,0.0,0.0,0.0,0.0,0.0,0.0,0.0,0.0,0.0,0.0,0.0,0.0,0.0,0.0,0.0,0.0,0.0,0.0,0.0,0.0,0.0,0.0,0.0,0.0,0.0,0.0,0.0,0.0,0.0,0.0,0.0,0.0,0.0,0.0,0.0,0.0,0.0,0.0,0.0,0.0,0.0,0.0,0.0,0.0,0.0,0.0,0.0,0.0,0.0,0.0,0.0,0.0,0.0,0.0,0.0,0.0,0.0,0.0,0.0,0.0,0.0,0.0,0.0,0.0,0.0,0.0,0.0,0.0,0.0,0.0,0.0,0.0,0.0,0.0,0.0,0.0,0.0,0.0,0.0,0.0,0.0,0.0,0.0,0.0,0.0,0.0,0.0,0.0,0.0,0.0,0.0,0.0,0.0,0.0,0.0,0.0,0.0,0.0,0.0,0.0,0.0,0.0,0.0,0.0,0.0,0.0,0.0,0.0,0.0,0.0,0.0,0.0,0.0,0.0,0.0,0.0,0.0,0.0,0.0,0.0,0.0,0.0,0.0,0.0,0.0,0.0,0.0,0.0,0.0,0.0,0.0,0.0,0.0,0.0,0.0,0.0,0.0,0.0,0.0,0.0,0.0,0.0,0.0,0.0,0.0,0.0,0.0,0.0,0.0,0.0,0.0,0.0,0.0,0.0,0.0,0.0,0.0,0.0,0.0,0.0,0.0,0.0,0.0,0.0,0.0,0.0,0.0,0.0,0.0,0.0,0.0,0.0,0.0,0.0,0.0,0.0,0.0,0.0,0.0,0.0,0.0,0.0,0.0,0.0,0.0,0.0,0.0,0.0,0.0,0.0,0.0,0.0,0.0,0.0,0.0,0.0,0.0,0.0,0.0,0.0,0.0,0.0,0.0,0.0,0.0,0.0,0.0,0.0,0.0,0.0,0.0,0.0,0.0,0.0,0.0,0.0,0.0,0.0,0.0,0.0,0.0,0.0,0.0,0.0,0.0,0.0,0.0,0.0,0.0,0.0,0.0,0.0,0.0,0.0,0.0,0.0,0.0,0.0,0.0,0.0,0.0,0.0,0.0,0.0,0.0,0.0,0.0,0.0,0.0,0.0,0.0,0.0,0.0,0.0,0.0,0.0,0.0,0.0,0.0,0.0,0.0,0.0,0.0,0.0,0.0,0.0,0.0,0.0,0.0,0.0,0.0,0.0,0.0,0.0,0.0,0.0,0.0,0.0,0.0,0.0,0.0,0.0,0.0,0.0,0.0,0.0,0.0,0.0,0.0,0.0,0.0,0.0,0.0,0.0,0.0,0.0,0.0,0.0,0.0,0.0,0.0,0.0,0.0,0.0,0.0,0.0,0.0,0.0,0.0,0.0,0.0,0.0,0.0,0.0,0.0,0.0,0.0,0.0,0.0,0.0,0.0,0.0,0.0,0.0,0.0,0.0,0.0,0.0,0.0,0.0,0.0,0.0,0.0,0.0,0.0,0.0,0.0,0.0,0.0,0.0,0.0,0.0,0.0,0.0,0.0,0.0,0.0,0.0,0.0,0.0,0.0,0.0,0.0,0.0,0.0,0.0,0.0,0.0,0.0,0.0,0.0,0.0,0.0,0.0,0.0,0.0,0.0,0.0,0.0,0.0,0.0,0.0,0.0,0.0,0.0,0.0,0.0,0.0,0.0,0.0,0.0,0.0,0.0,0.0,0.0,0.0,0.0,0.0,0.0,0.0,0.0,0.0,0.0,0.0,0.0,0.0,0.0,0.0,0.0,0.0,0.0,0.0,0.0,0.0,0.0,0.0,0.0,0.0,0.0,0.0,0.0,0.0,0.0,0.0,0.0,0.0,0.0,0.0,0.0,0.0,0.0,0.0,0.0,0.0,0.0,0.0,0.0,0.0,0.0,0.0,0.0,0.0,0.0,0.0,0.0,0.0,0.0,0.0,0.0,0.0,0.0,0.0,0.0,0.0,0.0,0.0,0.0,0.0,0.0,0.0,0.0,0.0,0.0,0.0,0.0,0.0,0.0,0.0,0.0,0.0,0.0,0.0,0.0,0.0,0.0,0.0,0.0,0.0,0.0,0.0,0.0,0.0,0.0,0.0,0.0,0.0,0.0,0.0,0.0,0.0,0.0,0.0]}],[{"header":{"parameterUnit":"kt","parameterCategory":2,"dx":1,"dy":1,"la1":29.587661999999998,"la2":31.0,"lo1":-88.76705300000003,"lo2":-86.6583820000003,"nx":115,"ny":88,"refTime":"2022-11-01T06:00:00:Z","depth":0,"parameterNumber":2,"parameterNumberName":"V-component_of_WINDS"},"data":[6.7565,6.8926,6.9956,7.0674,7.0981,7.0572,6.9373,6.7738,6.6608,6.5686,6.4244,6.2891,6.1496,6.0239,5.95,5.9049,5.8879,5.8446,5.7753,5.7326,5.7563,5.6944,5.6667,5.6532,5.5446,5.5096,5.4814,5.3925,5.328,5.285,5.218,5.1205,5.0549,4.9671,4.8635,4.7823,4.6922,4.5463,4.3577,4.2443,4.2208,4.1424,3.9846,3.8957,3.8214,3.7827,3.7352,3.7078,3.6472,3.5446,3.3887,3.3073,3.3046,3.3617,3.4216,3.4581,3.4414,3.4408,3.4377,3.4314,3.4158,3.3929,3.4593,3.5726,3.5954,3.5891,3.5891,3.5924,3.6477,3.6008,3.5893,3.5842,3.5395,3.4842,3.4312,3.4805,3.5788,3.6628,3.7455,3.7762,3.7762,3.7377,3.6885,3.6015,3.5335,3.4608,3.4046,3.3877,3.4203,3.4425,3.4644,3.4717,3.455,3.4223,3.4027,3.3123,3.2597,3.3213,3.3227,3.2964,3.276,3.2843,3.2975,3.2995,3.305,3.3428,3.3625,3.3717,3.3579,3.3664,3.3664,3.3664,3.3692,3.4056,3.4252,6.71,6.7713,6.868,6.8839,6.8261,6.7464,6.6356,6.5036,6.3747,6.2895,6.1807,5.9845,5.902,5.8285,5.7388,5.7192,5.6806,5.6057,5.6224,5.6024,5.5747,5.5057,5.4689,5.4678,5.406,5.3611,5.3327,5.247,5.1522,5.1051,5.018,4.8831,4.7824,4.6993,4.5921,4.5093,4.4274,4.2893,4.1761,4.0754,4.0016,3.9409,3.7946,3.6913,3.6328,3.6385,3.5798,3.5291,3.4678,3.3712,3.3092,3.2361,3.2592,3.2684,3.2884,3.2899,3.293,3.2737,3.2499,3.2382,3.2054,3.1918,3.2164,3.2515,3.2866,3.2753,3.2753,3.3089,3.4047,3.4112,3.3952,3.3824,3.3343,3.2907,3.228,3.2116,3.3392,3.4549,3.5279,3.6165,3.5985,3.5608,3.4962,3.4252,3.3539,3.2639,3.2273,3.2089,3.1892,3.2049,3.2021,3.2008,3.1846,3.1859,3.194,3.144,3.098,3.1314,3.1601,3.1815,3.1901,3.1641,3.1598,3.1772,3.2213,3.2673,3.2839,3.3067,3.3422,3.3593,3.355,3.3493,3.3564,3.3707,3.3903,6.6534,6.6451,6.7157,6.7599,6.7655,6.6726,6.5533,6.4339,6.3086,6.1239,5.8752,5.7233,5.639,5.5955,5.4704,5.417,5.397,5.3679,5.3554,5.3182,5.2551,5.2705,5.2445,5.2162,5.201,5.1727,5.1516,5.1073,5.002,4.9298,4.8526,4.7362,4.6234,4.5229,4.4048,4.3001,4.2025,4.0992,4.0035,3.853,3.6922,3.6497,3.5412,3.4616,3.4187,3.4254,3.3807,3.3385,3.2968,3.2572,3.2156,3.1852,3.1722,3.2202,3.2361,3.2202,3.1722,3.1226,3.092,3.0612,3.0261,3.0436,3.0569,3.0905,3.1051,3.0261,3.0099,3.1402,3.2361,3.2361,3.2187,3.2042,3.1547,3.0905,3.0404,3.0356,3.1232,3.2435,3.3302,3.3934,3.3436,3.3061,3.249,3.1778,3.0789,2.9883,3.0233,3.0073,2.9678,2.964,2.9442,2.938,2.8691,2.8617,2.9478,2.9443,2.9346,2.9358,2.9519,2.9884,3.0375,3.036,3.0592,3.109,3.1545,3.1929,3.2156,3.2299,3.2611,3.3029,3.3128,3.3337,3.355,3.3721,3.3328,6.6286,6.572,6.5895,6.6241,6.6606,6.5431,6.4217,6.3031,6.1967,5.9403,5.6557,5.5443,5.4709,5.4119,5.2975,5.2233,5.1882,5.1588,5.066,5.0669,5.0604,5.0819,5.0212,5.0611,5.0284,4.9934,4.959,4.9296,4.8167,4.6905,4.5982,4.5098,4.384,4.2575,4.1589,4.0593,3.9675,3.8972,3.7604,3.5851,3.457,3.3792,3.3063,3.2394,3.2247,3.2353,3.2243,3.167,3.1376,3.1346,3.0989,3.0802,3.0759,3.1737,3.2057,3.1882,3.0759,2.9923,2.9424,2.9086,2.8734,2.8748,2.8924,2.9248,2.9086,2.8138,2.8314,2.9762,3.0583,3.0569,3.0408,3.0099,2.979,2.9128,2.8518,2.886,2.9199,3.0251,3.1456,3.1246,3.0966,3.041,2.9647,2.88,2.7821,2.7547,2.7826,2.7909,2.7652,2.7443,2.7397,2.7072,2.6246,2.6359,2.7239,2.7519,2.7875,2.7957,2.8254,2.8551,2.8856,2.9075,2.9571,3.0278,3.0738,3.0739,3.1019,3.1302,3.1912,3.2548,3.2803,3.2864,3.3089,3.3356,3.2767,6.6481,6.6122,6.552,6.4847,6.3597,6.244,6.1346,6.0139,5.8856,5.7122,5.5746,5.4784,5.3708,5.2824,5.1902,5.1419,5.0882,5.0318,4.991,4.9821,4.966,4.9386,4.9363,4.9477,4.9085,4.9018,4.8741,4.7684,4.6431,4.4556,4.3,4.1869,4.0794,3.9835,3.9082,3.8204,3.7334,3.6374,3.4826,3.3378,3.2416,3.187,3.1368,3.0323,3.0298,3.0647,3.0637,3.0141,2.9669,2.9804,2.9656,2.9426,2.9507,3.0028,3.0744,3.0612,2.9128,2.8138,2.7471,2.7294,2.698,2.7157,2.7333,2.7635,2.7307,2.6336,2.6664,2.7798,2.8789,2.8951,2.8464,2.8138,2.7974,2.7484,2.707,2.7133,2.7445,2.802,2.8917,2.939,2.892,2.8003,2.7454,2.6604,2.5612,2.5746,2.5869,2.6048,2.5679,2.532,2.5439,2.533,2.5078,2.5208,2.5676,2.5952,2.6347,2.6845,2.7354,2.7533,2.739,2.7876,2.8546,2.9032,2.9377,2.961,2.9801,3.0259,3.0616,3.1586,3.2236,3.2544,3.2671,3.2949,3.2795,6.6384,6.5992,6.5496,6.4819,6.375,6.1858,6.0458,5.939,5.7757,5.629,5.5138,5.4146,5.3111,5.2084,5.1419,5.0906,5.0501,4.9797,4.9111,4.8973,4.8581,4.8258,4.7979,4.7956,4.7799,4.7204,4.6658,4.6091,4.409,4.1993,4.0577,4.0007,3.8979,3.8178,3.7217,3.636,3.534,3.3762,3.2387,3.1078,3.0359,2.9756,2.9266,2.8543,2.819,2.9021,2.9445,2.8023,2.7574,2.7731,2.7817,2.7282,2.6596,2.7345,2.8138,2.7988,2.6829,2.5829,2.5169,2.5004,2.5015,2.5193,2.5358,2.5511,2.5015,2.4696,2.5181,2.5676,2.6664,2.732,2.6664,2.6183,2.6006,2.5841,2.5645,2.5611,2.5672,2.5911,2.6406,2.7117,2.6689,2.5975,2.5117,2.4288,2.3829,2.4158,2.4488,2.4468,2.435,2.4178,2.4297,2.4233,2.4222,2.4008,2.3906,2.4158,2.4431,2.4637,2.5322,2.5788,2.596,2.6253,2.6407,2.7071,2.7911,2.8128,2.8234,2.8746,2.9552,3.0677,3.1563,3.1635,3.1864,3.2333,3.3174,6.6384,6.6023,6.5596,6.489,6.396,6.1998,6.0229,5.8949,5.7272,5.5819,5.4605,5.3501,5.2612,5.1819,5.1041,5.0636,4.9957,4.9249,4.842,4.7862,4.7442,4.7019,4.6878,4.667,4.6071,4.5605,4.4843,4.3879,4.1738,4.0227,3.9054,3.7876,3.6623,3.6284,3.5627,3.4877,3.322,3.1681,3.0652,2.9603,2.8816,2.8178,2.7458,2.6893,2.6525,2.6897,2.7256,2.6208,2.5448,2.5433,2.5608,2.5084,2.3947,2.4391,2.5109,2.4968,2.4186,2.3355,2.2854,2.2687,2.2854,2.3199,2.3032,2.2854,2.2698,2.2698,2.2876,2.3688,2.4507,2.4672,2.4341,2.4175,2.4186,2.4175,2.4055,2.399,2.3913,2.4093,2.4342,2.4968,2.5003,2.4143,2.3658,2.2845,2.262,2.3138,2.3295,2.342,2.3504,2.3525,2.3672,2.363,2.3461,2.324,2.2987,2.2614,2.2618,2.2552,2.2984,2.3353,2.3755,2.4077,2.4175,2.485,2.5584,2.608,2.655,2.7403,2.8216,2.9477,3.0669,3.0799,3.124,3.2264,3.3188,6.6481,6.6157,6.5396,6.4655,6.3629,6.1951,6.0,5.786,5.6798,5.5509,5.3889,5.3168,5.215,5.1297,5.0612,5.007,4.9637,4.8166,4.7424,4.6722,4.5686,4.549,4.5392,4.5185,4.4266,4.3825,4.3098,4.1616,3.9311,3.8252,3.6783,3.5135,3.4536,3.3994,3.3295,3.2455,3.1216,2.9944,2.8846,2.801,2.717,2.6636,2.5772,2.5034,2.462,2.4911,2.469,2.4139,2.3494,2.315,2.3244,2.2772,2.2301,2.2064,2.2626,2.2835,2.2466,2.1819,2.1494,2.1347,2.1525,2.1189,2.0853,2.0853,2.1021,2.0853,2.1189,2.185,2.2175,2.2175,2.2007,2.2007,2.2175,2.2175,2.2175,2.2217,2.2112,2.2322,2.2544,2.2755,2.2809,2.265,2.2193,2.1842,2.143,2.1935,2.2098,2.2199,2.2045,2.226,2.2619,2.2578,2.2384,2.2332,2.1975,2.1471,2.1408,2.1871,2.185,2.1515,2.1662,2.1986,2.2488,2.3166,2.3665,2.4352,2.5039,2.5945,2.683,2.8104,2.9307,2.9853,3.088,3.2021,3.3539,6.5894,6.5726,6.5124,6.4449,6.3282,6.0278,5.8127,5.6401,5.4438,5.2859,5.1717,5.1392,5.0761,5.0169,4.9935,4.9637,4.8834,4.6927,4.5621,4.4557,4.3386,4.2818,4.2314,4.1805,4.1716,4.0611,3.9968,3.91,3.6983,3.6487,3.5384,3.3978,3.3118,3.2409,3.1442,3.0486,2.9262,2.8274,2.7155,2.631,2.5616,2.4906,2.4023,2.3125,2.2718,2.2636,2.2395,2.1826,2.0828,2.0724,2.0486,2.0238,1.9773,1.9673,2.0213,2.0427,2.0115,2.0028,2.0083,2.0169,1.9841,1.9503,1.9343,1.9343,1.9334,1.9334,1.9672,2.001,2.0338,2.0169,1.9832,1.9297,1.9475,1.9475,1.9484,1.9832,1.9869,2.0207,2.0584,2.128,2.1479,2.1091,2.0743,2.0386,2.0246,2.0512,2.094,2.0589,2.0437,2.0898,2.1315,2.1198,2.1032,2.0964,2.0666,2.0284,2.0386,2.0862,2.0684,2.0347,2.0328,2.0487,2.1169,2.1683,2.2342,2.3021,2.371,2.4572,2.5815,2.7033,2.8201,2.9404,3.0619,3.2049,3.3707,6.39,6.3832,6.3203,6.2491,6.136,5.8532,5.6726,5.5503,5.3541,5.1588,5.0178,4.959,4.9119,4.8489,4.8308,4.7742,4.6749,4.4737,4.367,4.2502,4.1411,4.0329,3.9913,3.9815,3.9077,3.8242,3.7694,3.6881,3.5004,3.4929,3.4074,3.3369,3.2562,3.1442,3.0074,2.8676,2.7731,2.6607,2.563,2.462,2.3905,2.3175,2.2286,2.0926,2.0838,2.0592,2.0344,1.9884,1.915,1.8622,1.8604,1.8085,1.7129,1.788,1.8364,1.8715,1.8571,1.8307,1.8688,1.8452,1.8147,1.7986,1.7816,1.7978,1.7978,1.7978,1.8147,1.8317,1.8648,1.8487,1.8147,1.7621,1.7451,1.7451,1.7629,1.7799,1.7799,1.8308,1.8656,1.9352,1.9521,1.9156,1.9165,1.9031,1.8683,1.8915,1.9113,1.9077,1.8897,1.9492,1.9811,1.9511,1.9112,1.9447,1.9582,1.9086,1.8995,1.9503,1.9343,1.9174,1.9174,1.9334,1.9841,2.001,2.0853,2.1683,2.2196,2.2963,2.458,2.6019,2.7225,2.8421,2.982,3.1668,3.3496,6.1011,6.06,5.9944,5.9016,5.7741,5.7055,5.6196,5.4807,5.3501,5.1522,4.9282,4.84,4.7472,4.663,4.6031,4.5318,4.4163,4.2982,4.1866,4.0851,3.9743,3.9315,3.8841,3.8406,3.7524,3.6998,3.6437,3.5631,3.4093,3.3789,3.3101,3.2409,3.1732,3.0607,2.883,2.7155,2.607,2.553,2.4427,2.3539,2.2636,2.1599,2.0547,1.9505,1.9245,1.8825,1.8414,1.7962,1.7667,1.7214,1.715,1.6396,1.5484,1.6411,1.7297,1.7903,1.7696,1.7544,1.7482,1.6932,1.6561,1.643,1.6275,1.6437,1.6616,1.6616,1.6608,1.6608,1.6949,1.6957,1.6786,1.6437,1.6267,1.6267,1.6267,1.6445,1.6096,1.6259,1.6778,1.7297,1.7289,1.7289,1.7646,1.7654,1.7306,1.7127,1.7476,1.7476,1.7306,1.7567,1.7797,1.7396,1.6523,1.7053,1.7747,1.7492,1.7638,1.7986,1.8165,1.8165,1.8165,1.8496,1.8674,1.8504,1.9512,2.1199,2.1367,2.1545,2.313,2.4751,2.5904,2.7389,2.9365,3.1104,3.2753,6.0566,6.0019,5.9427,5.7281,5.4215,5.3748,5.2785,5.1722,5.0825,4.8931,4.674,4.6221,4.5519,4.4895,4.4127,4.341,4.2372,4.1074,3.9794,3.8743,3.775,3.6839,3.6399,3.6149,3.6091,3.5307,3.4907,3.4407,3.3271,3.3136,3.2291,3.1323,3.0212,2.8799,2.7102,2.5834,2.4809,2.41,2.3176,2.2328,2.1041,2.0008,1.8972,1.8227,1.7648,1.7066,1.677,1.664,1.6343,1.6037,1.574,1.5293,1.5259,1.5481,1.6466,1.6915,1.7021,1.6967,1.6586,1.5913,1.4666,1.4693,1.4735,1.4735,1.4735,1.4735,1.4557,1.4557,1.4735,1.4907,1.4735,1.4214,1.4043,1.4386,1.4557,1.4728,1.4379,1.4721,1.5071,1.5413,1.5762,1.6275,1.6453,1.6275,1.5762,1.5413,1.5762,1.577,1.5584,1.5584,1.577,1.5071,1.4207,1.5071,1.6111,1.6275,1.6437,1.6957,1.7484,1.7322,1.7671,1.8003,1.8173,1.8343,1.9183,2.0535,2.1239,2.1469,2.2291,2.3274,2.4617,2.5985,2.7897,2.9417,3.1248,5.8241,5.7854,5.7037,5.5026,5.2332,5.1896,5.1069,5.012,4.9152,4.7831,4.6235,4.4895,4.3767,4.2807,4.209,4.1352,4.0477,3.9011,3.8096,3.7022,3.6277,3.5439,3.4853,3.4815,3.4474,3.4359,3.3922,3.3369,3.2579,3.202,3.1204,2.9693,2.815,2.6733,2.5658,2.4744,2.3616,2.2636,2.1737,2.079,1.959,1.8552,1.7805,1.7214,1.6334,1.6037,1.5583,1.5451,1.5302,1.5153,1.4854,1.4548,1.4288,1.457,1.5394,1.6147,1.5463,1.5455,1.535,1.3903,1.2572,1.2602,1.2668,1.2674,1.2157,1.2152,1.2324,1.2668,1.3018,1.3184,1.2846,1.2324,1.1979,1.2152,1.2324,1.2674,1.2846,1.3534,1.3878,1.3871,1.4221,1.4735,1.4735,1.4728,1.4043,1.3699,1.4056,1.4069,1.3712,1.3534,1.3356,1.284,1.2324,1.2846,1.4049,1.4728,1.5242,1.5933,1.6802,1.6818,1.7176,1.7509,1.7833,1.8504,1.9183,2.0029,2.0743,2.1201,2.165,2.2339,2.3509,2.4603,2.602,2.7537,2.9959,5.5009,5.4569,5.3346,5.2392,5.1727,5.113,5.0397,4.9232,4.8509,4.7338,4.5898,4.4124,4.1956,4.0734,3.993,3.9041,3.7718,3.7507,3.6939,3.6286,3.5664,3.4985,3.4437,3.3922,3.3807,3.3539,3.3136,3.2562,3.1867,3.0777,2.9108,2.7325,2.6339,2.5204,2.4271,2.3547,2.2638,2.1609,2.0269,1.9296,1.8287,1.7362,1.6613,1.6029,1.5591,1.5144,1.4391,1.4548,1.4406,1.3808,1.3808,1.3651,1.3244,1.3858,1.4765,1.5117,1.4651,1.364,1.2937,1.1532,1.0752,1.0866,1.0772,1.0599,0.9908,0.9735,0.9735,1.0086,1.1295,1.164,1.1117,1.0945,1.0777,1.095,1.1128,1.1295,1.164,1.2157,1.233,1.233,1.2502,1.3018,1.3018,1.2324,1.1801,1.1979,1.2163,1.2335,1.1985,1.1462,1.129,1.1122,1.0782,1.1128,1.2324,1.3184,1.4049,1.4907,1.5599,1.6127,1.65,1.6834,1.7151,1.7833,1.8343,1.9183,1.9888,2.013,2.0402,2.1302,2.1901,2.2638,2.3746,2.5292,2.7932,5.4539,5.3542,5.1805,5.0644,4.9656,4.8213,4.7077,4.5917,4.5234,4.4197,4.2732,4.1515,4.0116,3.9045,3.8368,3.7939,3.7466,3.6949,3.6299,3.5644,3.4966,3.4304,3.3637,3.2948,3.2562,3.2173,3.1902,3.1168,3.0156,2.8785,2.7302,2.5204,2.4911,2.397,2.3036,2.2479,2.2044,2.0846,1.9364,1.8037,1.6676,1.5574,1.4673,1.4084,1.3486,1.288,1.273,1.2887,1.2901,1.2601,1.2608,1.2177,1.1832,1.2863,1.4118,1.4533,1.3087,1.1655,1.0005,0.9215,0.8722,0.8806,0.9047,0.8696,0.8003,0.6444,0.6099,0.766,0.922,0.974,0.922,0.9047,0.9398,0.9744,1.009,1.0086,1.0258,1.0782,1.0955,1.1128,1.1128,1.1473,1.0599,0.9908,0.9908,1.0258,1.0436,1.0609,1.0258,0.9566,0.974,1.0086,0.9917,1.0095,1.1122,1.2157,1.3018,1.3706,1.4564,1.5085,1.5449,1.5963,1.6127,1.6989,1.7671,1.8012,1.7492,1.8233,1.8975,1.9944,2.0883,2.1062,2.1685,2.3239,2.5335,5.3174,5.2808,5.1265,5.0146,4.9158,4.74,4.607,4.5003,4.3906,4.2699,4.1489,4.0414,3.9254,3.8152,3.7241,3.71,3.6909,3.656,3.5907,3.5098,3.4171,3.3369,3.2697,3.1867,3.146,3.1187,3.0673,3.0025,2.8976,2.7634,2.6437,2.5128,2.4183,2.326,2.25,2.1748,2.0846,1.9653,1.8274,1.6512,1.4729,1.3479,1.2723,1.2287,1.1987,1.1837,1.168,1.1686,1.1737,1.1394,1.1115,1.0719,1.0222,1.1085,1.2772,1.3418,1.1325,0.8793,0.7088,0.7058,0.7247,0.7472,0.7142,0.6965,0.6444,0.5053,0.4359,0.558,0.749,0.8007,0.7486,0.7313,0.7837,0.8362,0.8531,0.8527,0.8527,0.9051,0.9576,0.9749,0.9917,0.9043,0.8172,0.783,0.8007,0.8354,0.87,0.9047,0.87,0.8354,0.87,0.9047,0.9225,0.9402,1.0436,1.1122,1.1985,1.2502,1.3356,1.3878,1.4406,1.4756,1.4756,1.5442,1.5994,1.5658,1.5135,1.6095,1.7824,1.8852,1.9858,1.9467,1.945,2.0996,2.288,5.1862,5.223,5.1007,5.022,4.9286,4.718,4.597,4.5022,4.3209,4.2112,4.0702,3.9636,3.83,3.7353,3.6429,3.6446,3.6322,3.5776,3.4966,3.4171,3.3101,3.2173,3.1357,3.0777,3.0415,3.0229,2.9763,2.8908,2.8081,2.7588,2.6597,2.5143,2.3982,2.3086,2.1795,2.0679,1.9423,1.7943,1.6752,1.4846,1.2649,1.1649,1.1217,1.0918,1.0771,1.0794,1.0357,1.0368,1.0533,1.0216,0.964,0.8823,0.7871,0.8262,0.9611,0.9457,0.7647,0.4735,0.4501,0.5038,0.5743,0.592,0.558,0.5055,0.4705,0.3834,0.3489,0.4712,0.5928,0.6273,0.5923,0.5923,0.6099,0.6621,0.6969,0.6618,0.6792,0.749,0.8014,0.8188,0.7663,0.6788,0.6267,0.6096,0.6099,0.6621,0.7139,0.7486,0.766,0.7837,0.8184,0.8184,0.8362,0.9225,1.0086,1.0431,1.1122,1.1295,1.1807,1.2324,1.2674,1.2852,1.3203,1.3394,1.3457,1.3476,1.3372,1.4227,1.6452,1.7613,1.8062,1.7946,1.7761,1.8715,2.0224,5.2032,5.1579,5.0044,4.8782,4.7443,4.4966,4.3268,4.2042,4.0321,3.8983,3.7829,3.6656,3.5914,3.5534,3.5477,3.5755,3.5998,3.4721,3.3922,3.3118,3.2038,3.1084,3.0107,2.9342,2.9128,2.9331,2.8741,2.8233,2.7521,2.7176,2.5842,2.4561,2.3569,2.2507,2.086,1.9518,1.811,1.6734,1.526,1.3777,1.201,1.0802,0.9803,0.9329,0.9169,0.8826,0.848,0.8467,0.844,0.817,0.7648,0.707,0.6427,0.5879,0.5374,0.4439,0.2845,0.2042,0.2076,0.2786,0.401,0.4359,0.4363,0.4012,0.3312,0.2963,0.2965,0.4189,0.4709,0.4709,0.4533,0.4709,0.506,0.5409,0.5232,0.5055,0.5577,0.5925,0.645,0.6099,0.5577,0.5055,0.4881,0.4709,0.4883,0.5403,0.5925,0.627,0.627,0.6621,0.732,0.732,0.8011,0.8878,0.9571,0.9917,1.0431,1.0604,1.095,1.1122,1.1122,1.1295,1.1295,1.1468,1.1549,1.152,1.1606,1.2149,1.446,1.6162,1.6506,1.6969,1.7161,1.7924,1.9275,5.113,5.0986,4.9572,4.8564,4.7261,4.4587,4.2706,4.1571,3.9115,3.7373,3.639,3.5259,3.4386,3.4072,3.4387,3.4664,3.4625,3.3789,3.2849,3.2038,3.0947,2.9985,2.9294,2.8599,2.8451,2.843,2.7765,2.7004,2.6651,2.6399,2.535,2.3815,2.2768,2.1496,1.992,1.8346,1.6761,1.502,1.3633,1.1953,1.0066,0.9338,0.8467,0.7992,0.7663,0.735,0.6851,0.6809,0.6743,0.6442,0.5862,0.5101,0.4189,0.3224,0.2184,0.1462,0.0165,-0.0504,0.0171,0.1389,0.1916,0.2266,0.2093,0.1918,0.1569,0.1395,0.122,0.1918,0.2267,0.3489,0.3489,0.4012,0.4189,0.4363,0.4363,0.4361,0.4359,0.4709,0.4707,0.4359,0.401,0.3662,0.3489,0.3489,0.3838,0.4187,0.4883,0.4881,0.4705,0.5403,0.6276,0.6798,0.7493,0.8535,0.9229,0.9571,1.0086,1.0086,1.0258,1.009,1.009,1.009,1.009,0.9749,0.9541,0.95,0.9777,1.1021,1.3044,1.4955,1.5392,1.5811,1.6383,1.7147,1.87,4.9886,5.0138,4.9074,4.8184,4.7141,4.4476,4.2666,4.149,3.8594,3.6874,3.6224,3.4815,3.3735,3.358,3.3782,3.374,3.352,3.2912,3.2038,3.1101,3.0123,2.9139,2.8599,2.7931,2.7853,2.7706,2.6871,2.5987,2.5642,2.5274,2.4405,2.3232,2.1802,2.0444,1.8924,1.7261,1.5451,1.3481,1.2107,1.0589,0.8976,0.8004,0.7428,0.6648,0.6492,0.6135,0.5755,0.5662,0.545,0.4849,0.3905,0.2765,0.122,0.0153,-0.0156,-0.0646,-0.1796,-0.2474,-0.169,-0.0516,-0.0347,-0.0523,-0.0697,-0.0697,-0.0697,-0.0697,-0.1046,-0.0872,0.0349,0.1918,0.2442,0.279,0.2965,0.279,0.279,0.3139,0.2266,0.2616,0.3313,0.3313,0.279,0.2442,0.2267,0.2267,0.2442,0.279,0.3488,0.3836,0.366,0.4185,0.5058,0.5928,0.6972,0.7844,0.8713,0.9051,0.9393,0.9393,0.9398,0.9398,0.9056,0.8882,0.8725,0.8393,0.7956,0.8105,0.9192,1.0489,1.2052,1.3613,1.4239,1.4663,1.5418,1.617,1.7731,4.9463,4.8182,4.75,4.6206,4.4455,4.2602,4.1168,4.0081,3.7942,3.6956,3.6589,3.4841,3.4345,3.456,3.4223,3.3365,3.2762,3.2039,3.1221,3.0415,2.9432,2.8599,2.7761,2.6976,2.651,2.6346,2.561,2.5282,2.4751,2.4313,2.3371,2.2363,2.0671,1.9125,1.7662,1.5906,1.3883,1.2081,1.0801,0.941,0.8077,0.7491,0.675,0.579,0.5464,0.4914,0.4346,0.4141,0.3605,0.3019,0.2787,0.0306,-0.2136,-0.306,-0.2027,-0.2114,-0.3537,-0.4061,-0.3667,-0.3727,-0.3599,-0.3488,-0.3662,-0.3488,-0.3488,-0.3313,-0.3488,-0.3139,-0.2615,-0.0871,0.122,0.1046,0.0523,0.0697,0.122,0.0523,-0.0872,-0.0349,0.1395,0.1918,0.1569,0.1046,0.1046,0.0872,0.1046,0.122,0.2267,0.279,0.2616,0.279,0.3662,0.4533,0.5754,0.6798,0.732,0.7663,0.8531,0.8531,0.8709,0.8362,0.7841,0.7671,0.7326,0.6834,0.7084,0.7584,0.8287,0.9773,1.1092,1.224,1.3294,1.407,1.4639,1.5392,1.6356,4.811,4.7023,4.5655,4.4558,4.3523,4.1654,4.0353,3.9322,3.7479,3.6565,3.6244,3.4944,3.4461,3.4722,3.4029,3.3296,3.2596,3.1807,3.0947,2.9831,2.9016,2.818,2.734,2.5956,2.5027,2.4823,2.4321,2.3691,2.3138,2.2542,2.1772,2.0642,1.9431,1.783,1.6186,1.4383,1.2525,1.0823,0.9536,0.848,0.7249,0.6641,0.5871,0.5288,0.4237,0.3526,0.282,0.2299,0.1451,0.0,-0.2467,-0.5323,-0.6695,-0.4426,-0.2929,-0.3314,-0.4578,-0.5314,-0.5388,-0.5492,-0.5426,-0.5137,-0.52,-0.5217,-0.5053,-0.5055,-0.5055,-0.5229,-0.4531,-0.3484,-0.122,-0.1743,-0.1743,-0.1569,-0.1046,-0.1395,-0.2092,-0.1569,-0.0349,0.0174,0.0174,-0.0174,-0.0523,-0.0697,-0.0523,-0.0523,0.0523,0.0697,0.0523,0.0697,0.1743,0.3488,0.4707,0.558,0.6102,0.6795,0.749,0.7663,0.7663,0.7316,0.6624,0.6276,0.5931,0.6151,0.6378,0.6866,0.7522,0.9204,1.0716,1.164,1.2706,1.3288,1.4058,1.5013,1.5778,4.6733,4.5758,4.3909,4.2958,4.2213,4.0506,3.9387,3.8663,3.6713,3.6009,3.5826,3.4648,3.4283,3.4543,3.3652,3.3072,3.2394,3.2039,3.1204,2.9815,2.8862,2.7886,2.6621,2.519,2.4075,2.3657,2.3056,2.2347,2.1634,2.1132,2.0165,1.9171,1.8336,1.6788,1.483,1.2873,1.094,0.968,0.8598,0.752,0.6359,0.5755,0.5142,0.4179,0.2975,0.196,0.1132,-0.0159,-0.1581,-0.3787,-0.7345,-0.9939,-0.9743,-0.6291,-0.4283,-0.4934,-0.6117,-0.7141,-0.7008,-0.723,-0.708,-0.7111,-0.7054,-0.6792,-0.6264,-0.6441,-0.6615,-0.6618,-0.6792,-0.5917,-0.3832,-0.4185,-0.4185,-0.3488,-0.3139,-0.2965,-0.279,-0.2267,-0.1743,-0.1569,-0.1569,-0.1918,-0.2442,-0.2092,-0.2092,-0.2092,-0.1918,-0.1743,-0.1569,-0.1395,0.0349,0.279,0.3836,0.4883,0.5406,0.5925,0.6447,0.645,0.6447,0.627,0.5403,0.4883,0.4709,0.5091,0.567,0.6279,0.6726,0.8184,0.9911,1.1019,1.2123,1.2906,1.3682,1.4632,1.5592,4.5865,4.4042,4.2527,4.1006,3.9426,3.8397,3.78,3.6806,3.5922,3.5753,3.5628,3.4032,3.3932,3.4643,3.3401,3.2441,3.221,3.2208,3.168,3.0656,2.9001,2.7184,2.6056,2.4777,2.3775,2.3044,2.2755,2.2033,2.1163,2.0289,1.9569,1.8552,1.7567,1.6063,1.3927,1.1361,0.9675,0.8886,0.7878,0.6708,0.5685,0.5078,0.4266,0.2785,0.1626,0.0161,-0.1589,-0.3325,-0.5566,-0.8894,-1.1326,-1.2935,-1.318,-0.9461,-0.7334,-0.7502,-0.9027,-1.0097,-0.9672,-0.9985,-1.0247,-0.9966,-0.9619,-0.9038,-0.8511,-0.8684,-0.8865,-0.8696,-0.9562,-0.8515,-0.6438,-0.5749,-0.5751,-0.5227,-0.4533,-0.4012,-0.3489,-0.2965,-0.2616,-0.2616,-0.2616,-0.2616,-0.279,-0.3139,-0.3489,-0.3139,-0.3315,-0.3315,-0.3313,-0.2442,-0.0349,0.1743,0.2965,0.4012,0.4535,0.5229,0.5406,0.5406,0.5401,0.5227,0.4359,0.3662,0.3488,0.4016,0.5089,0.5852,0.6319,0.7389,0.9068,1.0379,1.1123,1.2129,1.3105,1.4058,1.5212,4.3979,4.2761,4.0724,3.9352,3.8531,3.8419,3.7805,3.691,3.6611,3.6506,3.5891,3.47,3.4274,3.4523,3.3698,3.303,3.2505,3.2493,3.2156,3.134,2.9677,2.7591,2.5772,2.4348,2.3488,2.2755,2.2322,2.1599,2.0727,1.9862,1.8983,1.7962,1.6816,1.502,1.2873,1.032,0.8716,0.7875,0.6675,0.5813,0.4957,0.3984,0.2704,0.1599,-0.0158,-0.1565,-0.3108,-0.5326,-0.8432,-1.1861,-1.4154,-1.5539,-1.6111,-1.3284,-1.1091,-1.0191,-1.1837,-1.2774,-1.2495,-1.2294,-1.2589,-1.261,-1.2347,-1.1945,-1.1612,-1.1612,-1.1796,-1.1629,-1.2656,-1.1446,-0.8688,-0.7656,-0.7139,-0.6615,-0.5749,-0.5229,-0.4363,-0.3838,-0.3489,-0.3315,-0.3489,-0.3489,-0.3139,-0.3838,-0.4189,-0.4363,-0.4537,-0.4712,-0.4537,-0.279,-0.1046,0.0523,0.1918,0.279,0.3488,0.4361,0.4883,0.4361,0.4185,0.4359,0.3488,0.2442,0.2442,0.2615,0.4359,0.5628,0.6145,0.7039,0.8514,0.963,1.0306,1.1156,1.2323,1.3288,1.4639,4.2194,4.1358,3.929,3.8107,3.7846,3.8146,3.7632,3.6783,3.6923,3.6327,3.565,3.4807,3.4046,3.3621,3.3471,3.3094,3.2505,3.2549,3.2198,3.146,3.0244,2.8444,2.6339,2.4335,2.3344,2.29,2.2178,2.1297,2.0446,1.9569,1.8679,1.7353,1.6221,1.443,1.183,0.942,0.7917,0.6858,0.549,0.4777,0.3899,0.2158,0.077,-0.0156,-0.2158,-0.367,-0.4886,-0.7162,-1.0329,-1.4139,-1.6253,-1.7833,-1.8346,-1.6306,-1.4413,-1.3699,-1.4586,-1.5361,-1.4914,-1.4766,-1.488,-1.5178,-1.4995,-1.4892,-1.5063,-1.5056,-1.5056,-1.5242,-1.4899,-1.3686,-1.0934,-0.9908,-0.9211,-0.8346,-0.783,-0.6965,-0.558,-0.4709,-0.4189,-0.3838,-0.4012,-0.4012,-0.4012,-0.4359,-0.4881,-0.4883,-0.5058,-0.5229,-0.4881,-0.366,-0.3139,-0.122,0.0174,0.1395,0.2616,0.3664,0.4012,0.3315,0.2965,0.2965,0.2092,0.1395,0.122,0.1743,0.3836,0.5306,0.5986,0.6649,0.7797,0.8954,0.9783,1.0571,1.1545,1.2685,1.4028,4.0659,3.983,3.859,3.7625,3.7057,3.6933,3.6539,3.5831,3.5672,3.5206,3.4559,3.3995,3.3029,3.2077,3.2088,3.196,3.1677,3.1992,3.2058,3.1561,3.0773,2.9389,2.757,2.5443,2.3983,2.32,2.2467,2.1454,2.0435,1.9569,1.8394,1.6918,1.5932,1.4295,1.1392,0.8806,0.6995,0.6088,0.5183,0.351,0.1531,0.0458,-0.0917,-0.2903,-0.4429,-0.5946,-0.7182,-0.9177,-1.1602,-1.4307,-1.7533,-1.9466,-2.0035,-1.8228,-1.6782,-1.6564,-1.7438,-1.7371,-1.7143,-1.7277,-1.7699,-1.7635,-1.7602,-1.7808,-1.8012,-1.7986,-1.8147,-1.8487,-1.6957,-1.4742,-1.3184,-1.284,-1.2324,-1.1117,-1.0086,-0.8878,-0.6621,-0.5406,-0.4883,-0.4535,-0.4189,-0.4189,-0.4363,-0.5055,-0.5577,-0.5925,-0.5928,-0.5925,-0.5577,-0.5055,-0.4886,-0.3838,-0.2442,-0.0872,0.1395,0.2267,0.2442,0.1918,0.1395,0.1046,0.0349,0.0174,0.0174,0.1743,0.3498,0.4638,0.5632,0.6229,0.7105,0.8032,0.9101,1.0164,1.1137,1.2266,1.3408,3.9515,3.8866,3.7847,3.701,3.654,3.7044,3.674,3.5816,3.6036,3.5385,3.4149,3.3347,3.2471,3.1633,3.1679,3.16,3.1585,3.2103,3.2483,3.2318,3.1776,3.0652,2.9093,2.7502,2.5745,2.3827,2.2599,2.1744,2.0738,1.9716,1.8394,1.6631,1.5169,1.3215,1.0331,0.8055,0.6244,0.518,0.3352,0.1371,-0.0152,-0.183,-0.3353,-0.5033,-0.6399,-0.7609,-0.8987,-1.1639,-1.4116,-1.591,-1.8001,-1.992,-2.1337,-2.0223,-1.899,-1.8795,-1.8888,-1.9081,-1.8607,-1.899,-1.9468,-1.9937,-2.0009,-2.0159,-2.0188,-2.0207,-2.0019,-2.0019,-1.8665,-1.7127,-1.5413,-1.5056,-1.4365,-1.3349,-1.1807,-1.0258,-0.9051,-0.7486,-0.6447,-0.5751,-0.5403,-0.5229,-0.5058,-0.558,-0.6276,-0.6105,-0.6627,-0.6972,-0.5754,-0.558,-0.5232,-0.4709,-0.401,-0.2441,-0.0174,0.0523,0.0872,0.0349,-0.0349,-0.1046,-0.0697,-0.0523,0.0349,0.2093,0.2965,0.4085,0.4872,0.546,0.6243,0.7045,0.8101,0.9143,1.0005,1.1345,1.2327,3.8194,3.7654,3.698,3.639,3.6192,3.6641,3.6381,3.5499,3.5734,3.5103,3.3824,3.289,3.2009,3.1389,3.1272,3.1336,3.1566,3.1847,3.2279,3.2628,3.2305,3.1312,3.0168,2.9174,2.7098,2.4427,2.2887,2.1744,2.1018,1.9862,1.8394,1.6622,1.4995,1.2594,1.0018,0.7757,0.5788,0.4113,0.1522,-0.0609,-0.2131,-0.4113,-0.5639,-0.7014,-0.8215,-0.9717,-1.1241,-1.4092,-1.6146,-1.7636,-1.9173,-2.0571,-2.1955,-2.1545,-2.0927,-2.0384,-2.0662,-2.0636,-1.9981,-2.0385,-2.0909,-2.1258,-2.1779,-2.1922,-2.1809,-2.2101,-2.1871,-2.0853,-1.9681,-1.8835,-1.7468,-1.6251,-1.5056,-1.455,-1.3012,-1.1473,-1.0436,-0.9216,-0.8007,-0.6965,-0.6444,-0.6099,-0.5754,-0.6279,-0.6798,-0.6627,-0.7149,-0.732,-0.6276,-0.6447,-0.627,-0.5754,-0.4707,-0.3658,-0.2615,-0.1918,-0.1569,-0.1743,-0.2616,-0.3139,-0.1744,-0.0698,0.0698,0.192,0.2442,0.3169,0.3934,0.4705,0.5657,0.645,0.7227,0.8027,0.9036,1.0017,1.117,3.6459,3.6251,3.6182,3.5996,3.5726,3.5499,3.5091,3.4812,3.4364,3.3846,3.3108,3.254,3.1677,3.1046,3.0693,3.0882,3.1327,3.0979,3.1494,3.2869,3.2123,3.1284,3.0373,2.9825,2.8011,2.5122,2.3251,2.2093,2.1669,2.0084,1.8572,1.7205,1.531,1.2751,1.0158,0.7912,0.5636,0.274,0.0152,-0.2131,-0.4267,-0.6247,-0.7765,-0.8669,-1.0024,-1.198,-1.4398,-1.5913,-1.7644,-1.9161,-2.0574,-2.1885,-2.2879,-2.2552,-2.1861,-2.1798,-2.2333,-2.1976,-2.1345,-2.1875,-2.2251,-2.2148,-2.3068,-2.3451,-2.285,-2.3655,-2.3564,-2.1767,-1.9981,-1.8504,-1.8665,-1.6957,-1.5249,-1.4564,-1.3884,-1.268,-1.1468,-1.0782,-0.9744,-0.818,-0.7316,-0.6795,-0.6624,-0.6972,-0.7493,-0.7493,-0.8014,-0.8188,-0.7493,-0.7316,-0.7486,-0.7146,-0.6273,-0.5401,-0.4709,-0.4189,-0.4012,-0.3838,-0.4363,-0.4189,-0.2443,-0.0872,0.0523,0.1395,0.1918,0.2449,0.3199,0.4282,0.5048,0.5621,0.6224,0.6998,0.7761,0.8516,0.9653,3.5741,3.5914,3.5891,3.5703,3.5364,3.5047,3.4812,3.4513,3.3998,3.3347,3.265,3.1969,3.1342,3.0822,3.0144,3.0473,3.1314,3.08,3.167,3.338,3.2811,3.2035,3.1394,3.0838,2.9118,2.6803,2.5674,2.4406,2.2608,2.0785,1.8664,1.6613,1.4375,1.183,0.9118,0.6547,0.4265,0.1674,-0.1218,-0.3808,-0.5633,-0.7912,-0.9274,-1.0331,-1.1987,-1.395,-1.5731,-1.7047,-1.8513,-2.0155,-2.1409,-2.2709,-2.3722,-2.3197,-2.2615,-2.2168,-2.3025,-2.3434,-2.2744,-2.3397,-2.3606,-2.3045,-2.3944,-2.4202,-2.3417,-2.4032,-2.3508,-2.2223,-2.1008,-2.0048,-1.9013,-1.7646,-1.629,-1.5599,-1.4735,-1.3878,-1.3018,-1.2508,-1.1468,-1.0081,-0.9047,-0.8358,-0.7837,-0.8188,-0.8362,-0.8188,-0.8878,-0.8878,-0.8358,-0.818,-0.8007,-0.8011,-0.6795,-0.6447,-0.6276,-0.5229,-0.4881,-0.4537,-0.4888,-0.4012,-0.2616,-0.122,-0.0,0.0697,0.1222,0.1751,0.2633,0.3695,0.4415,0.4962,0.5547,0.5964,0.6518,0.7072,0.7845,3.4661,3.5153,3.5493,3.5387,3.5153,3.5047,3.4727,3.4321,3.3652,3.3129,3.2581,3.1565,3.1027,3.0822,2.9917,3.0238,3.1332,3.0514,3.137,3.326,3.2471,3.1985,3.1572,3.0673,2.9211,2.7356,2.6705,2.5272,2.2818,2.0668,1.8596,1.6414,1.4086,1.146,0.883,0.6544,0.3808,0.0913,-0.2741,-0.5335,-0.6999,-0.8816,-1.0476,-1.1837,-1.3494,-1.5136,-1.6622,-1.7667,-1.9061,-2.0714,-2.1949,-2.2995,-2.4151,-2.4307,-2.3703,-2.3108,-2.3777,-2.4045,-2.3585,-2.3978,-2.417,-2.3792,-2.4409,-2.4573,-2.3938,-2.3954,-2.3515,-2.2174,-2.1683,-2.0783,-1.9214,-1.8425,-1.7646,-1.6453,-1.5762,-1.4907,-1.4049,-1.354,-1.2858,-1.1295,-1.0609,-0.9744,-0.9398,-0.9576,-0.9576,-0.9051,-0.9393,-0.9398,-0.8878,-0.9051,-0.9051,-0.8358,-0.7313,-0.6792,-0.732,-0.6273,-0.5577,-0.5234,-0.5062,-0.4361,-0.4012,-0.279,-0.1918,-0.1395,-0.0349,0.0349,0.0524,0.1577,0.2276,0.3158,0.4386,0.4776,0.5321,0.6038,0.6437,3.3393,3.4084,3.4834,3.5153,3.5153,3.5153,3.4856,3.4299,3.3522,3.2978,3.2581,3.1474,3.0934,3.0822,2.9917,3.0238,3.1135,2.9995,3.0732,3.266,3.141,3.0886,3.0914,2.9779,2.8298,2.6673,2.611,2.4703,2.2482,2.0237,1.8418,1.6748,1.4235,1.1793,0.9143,0.7458,0.4721,0.0152,-0.381,-0.6554,-0.7912,-0.8967,-1.0777,-1.3037,-1.4532,-1.5871,-1.7343,-1.8257,-1.9485,-2.1157,-2.1968,-2.2923,-2.4276,-2.5184,-2.5337,-2.4653,-2.4447,-2.4113,-2.3878,-2.3957,-2.397,-2.4009,-2.4451,-2.4452,-2.3547,-2.3616,-2.3065,-2.1978,-2.1227,-2.0389,-1.9304,-1.9031,-1.8425,-1.7119,-1.6786,-1.5762,-1.4221,-1.4049,-1.3018,-1.164,-1.1473,-1.1306,-1.0614,-1.0797,-1.0614,-1.009,-1.009,-1.0095,-0.9576,-1.0105,-0.9922,-0.8878,-0.8184,-0.7837,-0.7146,-0.6276,-0.5583,-0.5411,-0.5583,-0.5409,-0.5237,-0.5062,-0.4189,-0.3489,-0.2442,-0.1743,-0.1395,-0.0872,-0.0,0.0697,0.1918,0.3489,0.3862,0.489,0.5257,3.3108,3.3782,3.4428,3.4834,3.5153,3.5153,3.4856,3.4321,3.3782,3.3129,3.2581,3.1939,3.1251,3.0596,2.969,2.9865,3.0763,2.9869,3.0583,3.2416,3.1043,3.011,2.9704,2.8655,2.7184,2.5847,2.5203,2.4238,2.243,1.9863,1.7398,1.5426,1.349,1.0881,0.7934,0.5484,0.2896,-0.0152,-0.4117,-0.671,-0.7462,-0.8371,-1.018,-1.2751,-1.4099,-1.5574,-1.7343,-1.8247,-1.9349,-2.0941,-2.2334,-2.3038,-2.3275,-2.4776,-2.5892,-2.6364,-2.59,-2.4969,-2.3944,-2.4491,-2.4361,-2.3526,-2.3904,-2.3862,-2.3111,-2.2565,-2.2074,-2.1672,-2.0552,-1.9439,-1.8842,-1.8845,-1.8531,-1.7791,-1.7127,-1.6445,-1.542,-1.4749,-1.3719,-1.2502,-1.2335,-1.2514,-1.1829,-1.1657,-1.1478,-1.0619,-1.0441,-1.0268,-1.0268,-0.9753,-0.958,-0.9056,-0.8014,-0.7146,-0.6621,-0.6102,-0.6276,-0.5928,-0.6094,-0.6267,-0.5928,-0.6975,-0.6975,-0.5058,-0.4886,-0.4363,-0.3488,-0.3313,-0.2965,-0.2442,-0.0872,0.1046,0.2092,0.2965,0.3488,3.1675,3.2671,3.3311,3.427,3.5364,3.5703,3.5387,3.4749,3.4213,3.3565,3.278,3.2361,3.1585,3.0484,2.969,2.9865,3.0817,2.9869,3.0429,3.1902,3.0322,2.9098,2.8556,2.7229,2.5783,2.4451,2.3792,2.2676,2.1129,1.891,1.6419,1.3738,1.2258,0.9889,0.6714,0.4569,0.2134,-0.0305,-0.3969,-0.5953,-0.6402,-0.7466,-0.9279,-1.1843,-1.3194,-1.4987,-1.7057,-1.7952,-1.914,-2.0603,-2.1892,-2.2503,-2.278,-2.4125,-2.542,-2.6291,-2.6177,-2.5587,-2.4518,-2.4335,-2.4062,-2.3213,-2.3344,-2.3188,-2.2455,-2.1888,-2.1424,-2.1222,-2.0445,-1.9486,-1.9064,-1.905,-1.8847,-1.8065,-1.7571,-1.6794,-1.5599,-1.4914,-1.3884,-1.233,-1.2508,-1.2508,-1.1818,-1.1651,-1.1306,-1.0614,-1.0441,-1.0095,-0.9922,-0.9229,-0.8709,-0.8366,-0.7323,-0.645,-0.6102,-0.6102,-0.6102,-0.6264,-0.6577,-0.6922,-0.6929,-0.7804,-0.7954,-0.645,-0.5928,-0.558,-0.5055,-0.4881,-0.4883,-0.4537,-0.2965,-0.1743,-0.0,0.1395,0.2616,2.9821,3.1224,3.2142,3.3596,3.5627,3.6286,3.61,3.5259,3.4749,3.3955,3.3175,3.2759,3.1788,3.0484,2.9804,2.991,3.0425,2.9621,2.9792,3.0729,2.9044,2.786,2.7182,2.5381,2.3961,2.2888,2.1549,2.027,1.8977,1.7612,1.5265,1.215,1.0916,0.8748,0.566,0.4265,0.2134,-0.0764,-0.3363,-0.4731,-0.4865,-0.6378,-0.8335,-1.0707,-1.2058,-1.4,-1.6762,-1.7562,-1.8567,-2.0168,-2.0869,-2.159,-2.2296,-2.3217,-2.4139,-2.513,-2.5828,-2.5786,-2.5075,-2.4049,-2.3331,-2.3188,-2.29,-2.2611,-2.2178,-2.1744,-2.1308,-2.058,-2.0497,-2.0003,-1.9307,-1.9426,-1.923,-1.8036,-1.7863,-1.7086,-1.5362,-1.4543,-1.3521,-1.129,-1.1813,-1.1979,-1.1295,-1.1122,-1.0777,-1.009,-0.9917,-0.9744,-0.9229,-0.8709,-0.8188,-0.7497,-0.663,-0.5934,-0.5757,-0.5762,-0.592,-0.641,-0.6486,-0.7122,-0.7839,-0.8333,-0.8477,-0.7562,-0.7105,-0.6596,-0.6082,-0.5746,-0.5923,-0.5757,-0.5409,-0.4712,-0.2267,0.0,0.1743,3.0005,3.0964,3.2256,3.3613,3.5004,3.6273,3.6517,3.5868,3.5236,3.4513,3.3739,3.278,3.1545,3.0087,2.9538,2.9166,2.8891,2.8244,2.8299,2.8908,2.6977,2.5674,2.4978,2.3026,2.1413,2.016,1.85,1.7353,1.6592,1.5249,1.3798,1.2294,0.9766,0.7175,0.4424,0.3357,0.1679,-0.0763,-0.2292,-0.363,-0.4746,-0.5923,-0.762,-0.9644,-1.1336,-1.3468,-1.6055,-1.6289,-1.6958,-1.8486,-1.9038,-1.9463,-1.9899,-2.1214,-2.3143,-2.5575,-2.5786,-2.5502,-2.5062,-2.4205,-2.3331,-2.2467,-2.2611,-2.2467,-2.1744,-2.1599,-2.1297,-2.0457,-1.993,-1.9436,-1.8871,-1.8656,-1.8418,-1.8296,-1.7182,-1.607,-1.525,-1.3916,-1.2324,-1.1462,-1.129,-1.1122,-1.0782,-1.0609,-1.0436,-0.9917,-0.9398,-0.8878,-0.8535,-0.8014,-0.7667,-0.75,-0.7149,-0.6627,-0.6102,-0.5931,-0.6067,-0.6983,-0.7343,-0.7941,-0.8765,-0.9263,-0.9135,-0.8789,-0.8498,-0.804,-0.7807,-0.7483,-0.7139,-0.6624,-0.645,-0.5754,-0.4535,-0.2266,0.0,2.8754,2.9875,3.0833,3.2441,3.4336,3.5546,3.6283,3.6448,3.5517,3.4463,3.3437,3.2573,3.1303,2.9728,2.9063,2.8472,2.7867,2.7272,2.7098,2.7063,2.5523,2.4189,2.3015,2.1121,1.947,1.7855,1.6006,1.4805,1.3982,1.2602,1.1639,1.0932,0.8452,0.5743,0.306,0.2289,0.0764,-0.1526,-0.2568,-0.3431,-0.4415,-0.5376,-0.67,-0.834,-1.0236,-1.233,-1.4807,-1.5178,-1.597,-1.7591,-1.7778,-1.7598,-1.7358,-1.9499,-2.2238,-2.5378,-2.4711,-2.3983,-2.3845,-2.3416,-2.2837,-2.2089,-2.1959,-2.1532,-2.083,-2.0623,-2.0265,-1.9965,-1.9569,-1.8938,-1.8274,-1.8033,-1.778,-1.7717,-1.6638,-1.5433,-1.4135,-1.3015,-1.1807,-1.0254,-1.0086,-0.9917,-0.9225,-0.922,-0.922,-0.9398,-0.8709,-0.8184,-0.8354,-0.8188,-0.7841,-0.7663,-0.7663,-0.732,-0.6624,-0.6108,-0.6226,-0.7118,-0.7718,-0.8402,-0.912,-0.9683,-0.9747,-0.9752,-0.9555,-0.9312,-0.9058,-0.8806,-0.8342,-0.7837,-0.7316,-0.6795,-0.5928,-0.4533,-0.2441,2.7367,2.8655,2.9298,3.115,3.3662,3.4569,3.5622,3.6495,3.5376,3.3965,3.2445,3.1926,3.0784,2.9201,2.8177,2.7474,2.6862,2.625,2.5618,2.5133,2.3901,2.2541,2.0905,1.9496,1.7824,1.5928,1.3903,1.2486,1.1592,1.0136,0.9221,0.9027,0.7059,0.4464,0.1847,0.1071,-0.0457,-0.2734,-0.3273,-0.3825,-0.4102,-0.4853,-0.5833,-0.7183,-0.8966,-1.103,-1.3311,-1.3895,-1.4925,-1.6627,-1.6324,-1.5785,-1.485,-1.7673,-2.1003,-2.4279,-2.2733,-2.175,-2.1737,-2.1828,-2.1677,-2.1445,-2.0956,-2.0209,-1.9653,-1.8956,-1.8697,-1.9067,-1.8941,-1.8542,-1.7667,-1.7381,-1.6975,-1.6423,-1.6053,-1.4991,-1.302,-1.2264,-1.1247,-0.9038,-0.8861,-0.8663,-0.7957,-0.7785,-0.7961,-0.8145,-0.8165,-0.7844,-0.8354,-0.8511,-0.8326,-0.7999,-0.818,-0.8011,-0.7316,-0.6267,-0.652,-0.742,-0.7923,-0.8514,-0.9295,-0.9672,-0.9977,-1.034,-1.0234,-1.0055,-0.9956,-0.9942,-0.9371,-0.87,-0.8531,-0.8011,-0.6621,-0.5903,-0.4849,2.7954,2.8846,3.016,3.1413,3.2819,3.4128,3.4884,3.5311,0.0,0.0,0.0,2.9597,2.8498,2.7386,2.6475,2.5632,2.4793,2.395,2.3202,2.2545,2.0933,1.9768,1.8989,1.728,1.5656,1.4161,1.2506,1.1351,1.0759,0.9017,0.8049,0.7702,0.6105,0.4271,0.251,0.0,-0.2115,-0.3701,-0.3983,-0.4086,-0.4428,-0.5004,-0.5683,-0.6449,-0.8186,-1.0157,-1.208,-1.2298,-1.2746,-1.3737,-1.374,-1.3373,-1.2706,-1.4726,-1.8021,-2.223,-2.0172,-1.8571,-1.883,-1.9101,-1.9159,-1.8757,-1.9204,-1.9043,-1.8261,-1.7047,-1.6923,-1.8171,-1.7738,-1.7205,-1.7066,-1.6405,-1.5701,-1.5093,-1.4543,-1.3946,-1.2911,-1.1861,-1.0572,-0.934,-0.8572,-0.8325,-0.7982,-0.7982,-0.8155,-0.8171,-0.8083,-0.8358,-0.8865,-0.8747,-0.8692,-0.8819,-0.8819,-0.8688,-0.7815,-0.7188,-0.7369,-0.8061,-0.8379,-0.8907,-0.9691,-0.998,-1.0056,-1.0433,-1.0501,-1.0393,-1.0591,-1.0458,-1.0086,-0.9566,-0.9229,-0.8713,-0.7486,-0.6361,-0.5237,2.805,2.8475,2.9362,3.0645,0.0,3.3206,3.3383,3.2996,3.2436,3.1041,2.9,2.806,2.6942,2.5802,2.4835,2.4003,2.3037,2.2329,2.1469,2.0429,1.9018,1.7988,1.6901,1.5401,1.3979,1.2425,1.1107,0.9948,0.9301,0.7786,0.691,0.6426,0.487,0.3417,0.2017,-0.0599,-0.2649,-0.4121,-0.427,-0.4249,-0.4047,-0.451,-0.5178,-0.5891,-0.7403,0.0,0.0,0.0,0.0,0.0,0.0,0.0,0.0,0.0,0.0,-1.7964,-1.6122,-1.5005,-1.5444,-1.5661,-1.5813,-1.6143,-1.6899,-1.6584,-1.4813,-1.4417,-1.4946,-1.6491,-1.6881,-1.6615,-1.5946,-1.5033,-1.4242,-1.3538,-1.3244,-1.2641,-1.1663,-1.0954,-0.999,-0.8737,-0.8191,-0.7807,-0.7307,-0.7307,-0.7307,-0.7649,-0.7714,-0.7955,-0.8369,-0.8583,-0.8817,-0.8918,-0.9063,-0.8699,-0.8064,-0.7949,-0.8134,-0.8502,-0.8726,-0.9158,-0.9587,-0.9592,-0.9628,-1.0363,-1.0356,-1.0294,-1.078,-1.0906,-1.0619,-1.0263,-0.9744,-0.9176,-0.812,-0.6854,-0.5456,2.6131,2.8119,2.859,2.9836,3.146,3.1976,3.1684,3.0823,3.0109,2.8894,2.731,2.633,2.5155,2.3939,2.3008,2.2183,2.1463,2.0764,1.9761,1.8631,1.7627,1.6438,1.4763,1.3797,1.2584,1.1075,0.993,0.8896,0.8039,0.6843,0.5892,0.5422,0.4106,0.2562,0.1052,0.0,0.0,0.0,-0.441,-0.3978,-0.3384,-0.3878,-0.4583,-0.5321,-0.6504,0.0,-0.9085,-0.9644,-1.0424,-1.1238,-1.1013,0.0,0.0,0.0,0.0,0.0,0.0,0.0,0.0,0.0,0.0,0.0,-1.3792,-1.3368,-1.1443,-1.1947,-1.2966,-1.4585,-1.5805,-1.5991,-1.4403,-1.3678,-1.2921,-1.2156,-1.214,-1.1505,-1.0231,-1.0155,-0.9683,-0.8109,-0.7794,-0.7305,-0.6654,-0.6327,-0.6651,-0.6981,-0.7169,-0.7219,-0.7285,-0.7652,-0.825,-0.8804,-0.8611,-0.8398,-0.8305,-0.8385,-0.8449,-0.8828,-0.9123,-0.9148,-0.9133,-0.9138,-0.9597,-0.9905,-1.0076,-1.0216,-1.0819,-1.093,-1.0814,-1.0524,-0.998,-0.9517,-0.8668,-0.7297,-0.5671,1.9376,2.8701,2.9324,3.0008,3.067,3.0536,3.0247,2.9849,2.8637,2.7332,2.5772,2.3246,2.1896,2.1434,2.0484,2.0002,1.9751,1.8946,1.8024,1.6928,1.6159,1.5095,1.3596,1.2898,1.1847,1.0377,0.9534,0.8806,0.7967,0.6442,0.5314,0.4592,0.4012,0.2433,0.0143,-0.3755,-0.5279,-0.4418,-0.3788,-0.3093,-0.2354,-0.3593,-0.4521,-0.5046,-0.5765,-0.6595,-0.751,-0.7944,-0.8632,-0.9387,-0.9342,-0.9371,-0.9517,-0.9038,-0.9018,0.0,-0.8441,0.0,0.0,0.0,0.0,0.0,0.0,0.0,0.0,-1.0593,-1.1264,-1.286,-1.4184,-1.4445,-1.2928,-1.2288,-1.1808,-1.1406,-1.1366,-1.1071,-1.0028,-0.969,-0.9297,-0.8217,-0.7446,-0.6976,-0.6488,-0.634,-0.634,-0.6488,-0.6729,-0.6409,-0.5459,-0.5709,-0.6866,-0.8957,-0.8159,-0.7731,-0.808,-0.8316,-0.8528,-0.9289,-0.9277,-0.9143,-0.8982,-0.9289,-0.9597,-0.9461,-0.9805,-1.024,-1.0594,-1.0737,-1.0419,-1.0055,-0.9805,-0.9472,-0.8934,-0.7608,-0.5666,0.8845,1.9359,1.9857,2.3042,2.7866,2.8167,2.7743,2.6826,2.6387,2.5185,2.3373,2.1211,1.948,1.816,1.7587,1.7404,1.7507,1.7012,1.6576,1.6063,1.5451,1.4416,1.3255,1.2695,1.1697,1.0371,0.9562,0.8826,0.8049,0.6466,0.5338,0.4707,0.3688,0.2271,0.0389,-0.1558,-0.2546,-0.2266,-0.1889,-0.1482,-0.1051,-0.2528,-0.3672,-0.4343,-0.4714,-0.5348,-0.6091,-0.6698,-0.7456,-0.8086,-0.8496,-0.873,-0.8918,-0.8322,-0.7549,0.0,0.0,0.0,0.0,0.0,0.0,0.0,0.0,0.0,0.0,0.0,-0.9905,-0.8815,-1.1559,-1.2416,-0.9667,-0.9715,-1.0101,-1.0572,-0.9968,-0.938,-0.8987,-0.8811,-0.8314,-0.7268,-0.6956,-0.6336,-0.5513,-0.5569,-0.5587,-0.5513,-0.4804,-0.3752,-0.2499,-0.322,-0.457,-0.648,-0.681,-0.6987,-0.7692,-0.8028,-0.8508,-0.8964,-0.8888,-0.883,-0.8679,-0.883,-0.9138,-0.9153,-0.9471,-1.0013,-1.0372,-1.042,-1.0488,-1.0245,-1.0029,-0.9587,-0.9147,-0.805,-0.6489,-0.0784,1.1689,0.9243,1.4642,2.4658,2.5185,2.4534,2.3151,2.3209,2.2268,2.0504,1.8988,1.7237,1.544,1.4944,1.4714,1.47,1.4659,1.4762,1.4843,1.4405,1.3711,1.2854,1.2367,1.1582,1.0392,0.9535,0.8798,0.7944,0.6485,0.5246,0.4573,0.3239,0.2022,0.1026,0.0843,0.0516,0.0,0.0436,0.0749,0.0763,-0.0916,-0.2272,-0.2824,-0.3334,-0.3968,-0.4574,-0.5496,-0.6361,-0.7019,-0.7444,-0.7858,-0.8263,-0.7772,0.0,0.0,0.0,0.0,0.0,0.0,0.0,0.0,0.0,-0.6341,-0.5932,0.0,-0.8037,0.0,-0.8637,-1.0039,-0.7609,-0.7884,0.0,0.0,-0.8462,-0.7911,-0.7743,-0.7834,-0.7417,-0.6206,-0.5964,-0.5511,-0.4492,-0.4278,-0.3987,-0.3423,-0.2181,-0.0823,0.0278,-0.0833,-0.2373,-0.3849,-0.4882,-0.5754,-0.6755,-0.7609,-0.813,-0.8239,-0.8226,-0.8226,-0.8226,-0.8375,-0.8547,-0.8758,-0.9202,-0.9496,-0.9768,-1.0034,-1.0314,-1.0393,-1.0087,-0.9602,-0.9138,-0.8537,-0.7318,-0.6759,1.121,0.1025,0.6449,2.1582,2.1568,2.0659,1.9322,1.8692,1.7905,1.7022,1.5634,1.4622,1.4086,1.2722,0.0,1.1109,1.1868,1.227,1.2546,1.2611,1.2541,1.2343,1.1675,1.0829,0.9976,0.9079,0.8123,0.725,0.5947,0.4788,0.3818,0.2763,0.2095,0.1817,0.1902,0.1861,0.171,0.276,0.3353,0.3361,0.1069,-0.0305,-0.0304,-0.1339,-0.2052,-0.2628,-0.408,-0.5274,-0.5981,-0.5651,-0.6018,-0.7027,0.0,0.0,0.0,0.0,0.0,0.0,0.0,0.0,0.0,0.0,0.0,0.0,0.0,0.0,0.0,-0.5704,0.0,-0.8114,-0.7814,0.0,0.0,0.0,-0.7425,-0.632,-0.6647,-0.6487,-0.5073,0.0,0.0,-0.3396,-0.2874,-0.1864,0.0123,0.0486,0.0993,0.2091,0.1052,-0.0406,-0.1728,-0.2631,-0.4098,-0.582,-0.6736,-0.715,-0.7427,-0.7538,-0.7401,-0.7263,-0.7821,-0.8184,-0.7916,-0.8557,-0.9226,-0.883,-0.934,-0.9812,-0.9849,-0.978,-0.9587,-0.9259,-0.8655,-0.7589,-1.6286,0.1618,-0.3196,0.3109,1.6037,1.6213,1.5697,1.4994,1.4875,1.4469,1.37,1.2305,1.1303,1.0634,0.9295,0.0,0.0,0.0,1.0222,1.0972,1.1707,1.2116,1.1937,1.1904,1.1284,1.0275,0.9243,0.8187,0.7093,0.5712,0.4344,0.2932,0.0,0.0,0.1643,0.1896,0.2157,0.2289,0.3075,0.3559,0.3971,0.2903,0.1984,0.0914,0.0587,0.0143,-0.0421,-0.2339,-0.3938,-0.5238,-0.4826,-0.5305,0.0,0.0,0.0,0.0,0.0,0.0,0.0,0.0,0.0,0.0,0.0,-0.4176,-0.4229,0.0,0.0,0.0,-0.5695,-0.6981,-0.7456,-0.6491,0.0,0.0,0.0,0.0,0.0,0.0,0.0,-0.3957,-0.348,-0.2974,-0.2034,-0.1095,0.0,0.1599,0.206,0.2659,0.3465,0.0,0.1758,0.013,-0.0794,-0.214,-0.4151,-0.5499,-0.6259,-0.6369,-0.6611,-0.6643,-0.6745,-0.7227,-0.7535,-0.7521,-0.8041,-0.8433,-0.8613,-0.9063,-0.94,-0.968,-0.9527,-0.9481,-0.9749,-0.9036,-0.8213,-1.8753,0.0,0.0,0.0,0.0,1.1476,1.1193,1.0758,1.1047,1.0911,1.04,0.9115,0.0,0.0,0.0,0.0,0.0,0.0,0.8145,0.917,1.0291,1.0957,1.1342,1.143,1.0969,0.9968,0.8912,0.7744,0.6579,0.496,0.3503,0.2088,0.0,0.0,0.0,0.0,0.2415,0.2681,0.3267,0.3661,0.4119,0.4124,0.3662,0.2589,0.2599,0.2205,0.1065,-0.0728,-0.2491,-0.422,-0.4,0.0,0.0,0.0,0.0,0.0,0.0,0.0,0.0,0.0,0.0,0.0,0.0,0.0,0.0,0.0,0.0,0.0,0.0,0.0,-0.624,-0.5409,-0.4724,0.0,0.0,0.0,0.0,0.0,0.0,0.0,0.0,0.0,-0.1203,-0.0,0.1359,0.0,0.0,0.406,0.4614,0.4289,0.3363,0.206,0.0746,0.0,-0.2357,-0.4255,-0.5506,-0.5388,-0.5725,-0.6016,-0.6139,-0.6311,-0.661,-0.7036,-0.7521,-0.7761,-0.7896,-0.8131,-0.8463,-0.8951,-0.8856,-0.8918,-0.946,-0.9043,-0.8632,0.0,0.0,0.0,0.0,0.0,0.0,0.0,0.0,0.7112,0.721,0.0,0.6179,0.0,0.0,0.0,0.0,0.35,0.4672,0.0,0.0,0.7872,0.8917,0.9866,0.9739,0.9336,0.8739,0.7781,0.6661,0.5429,0.3528,0.0,0.0,0.0,0.0,0.0,0.0,0.3002,0.3109,0.3674,0.4167,0.4265,0.4267,0.4422,0.4721,0.497,0.3855,0.1505,0.0446,-0.1067,-0.3043,-0.3301,0.0,0.0,0.0,0.0,0.0,0.0,0.0,0.0,0.0,0.0,0.0,0.0,0.0,0.0,0.0,0.0,0.0,0.0,0.0,0.0,-0.4719,0.0,0.0,0.0,0.0,0.0,0.0,0.0,0.0,0.0,0.0,-0.0944,0.0372,0.1974,0.4273,0.0,0.0,0.0,0.0,0.4237,0.4107,0.192,-0.0,-0.0727,-0.3205,-0.4884,-0.446,0.0,0.0,-0.5274,-0.559,-0.5983,-0.6553,-0.7144,-0.7279,-0.6131,-0.6388,-0.6806,-0.7665,-0.7716,-0.7802,-0.8204,-0.8507,-0.8451,0.0,0.0,0.0,0.0,0.0,0.0,0.0,0.0,0.0,0.4843,0.0,0.4205,0.0,0.0,0.0,0.0,0.0,0.0,0.0,0.0,0.6812,0.7872,0.8756,0.8805,0.8444,0.0,0.6598,0.5154,0.0,0.0,0.0,0.0,0.0,0.0,0.0,0.0,0.2691,0.3087,0.3681,0.4326,0.5017,0.5338,0.5794,0.6547,0.6437,0.5364,0.3219,0.1079,-0.0902,0.0,0.0,0.0,0.0,0.0,0.0,0.0,0.0,0.0,0.0,0.0,0.0,0.0,0.0,0.0,0.0,0.0,0.0,0.0,0.0,0.0,0.0,0.0,-0.375,0.0,0.0,0.0,0.0,0.0,0.0,0.0,0.0,0.0,-0.0913,0.0172,0.1529,0.348,0.4648,0.5552,0.6058,0.0,0.0,0.0,0.0,0.0,0.0,0.0,-0.3479,-0.3629,-0.4278,-0.4774,-0.4561,-0.491,-0.5304,-0.5637,0.0,0.0,-0.6074,-0.6205,-0.645,-0.6894,-0.6866,-0.6964,-0.7763,-0.7739,-0.741,0.0,0.0,0.0,0.0,0.0,0.0,0.0,0.0,0.0,0.3197,0.331,0.0,0.0,0.0,0.0,0.0,0.0,0.0,0.0,0.0,0.0,0.0,0.7218,0.7362,0.0,0.0,0.0,0.0,0.0,0.0,0.0,0.0,0.0,0.0,0.0,0.0,0.2709,0.3308,0.3773,0.4428,0.5478,0.5949,0.6706,0.7765,0.7382,0.6362,0.4933,0.0,0.0,0.0,0.0,0.0,0.0,0.0,0.0,0.0,0.0,0.0,0.0,0.0,0.0,0.0,0.0,0.0,0.0,0.0,0.0,0.0,0.0,0.0,0.0,0.0,-0.3433,0.0,0.0,0.0,0.0,0.0,0.0,0.0,0.0,0.0,0.0,0.0,0.1227,0.2849,0.4908,0.6381,0.6727,0.6909,0.6493,0.0,0.0,0.0,0.0,0.0,0.0,0.0,0.0,0.0,0.0,0.0,0.0,0.0,0.0,-0.497,-0.5354,-0.5325,-0.5341,-0.5714,0.0,0.0,0.0,0.0,0.0,0.0,0.0,0.0,0.0,0.0,0.0,0.0,0.0,0.0,0.0,0.1972,0.0,0.0,0.1191,0.0,0.0,0.0,0.0,0.0,0.0,0.0,0.0,0.0,0.0,0.0,0.0,0.0,0.0,0.0,0.0,0.0,0.0,0.0,0.0,0.0,0.0,0.2964,0.3665,0.3975,0.4503,0.5481,0.6247,0.7306,0.8513,0.7827,0.7197,0.6583,0.0,0.0,0.0,0.0,0.0,0.0,0.0,0.0,0.0,0.0,0.0,0.0,0.0,0.0,0.0,0.0,0.0,0.0,0.0,0.0,0.0,0.0,0.0,0.0,0.0,0.0,-0.3318,-0.2284,-0.1751,0.0,0.0,0.0,0.0,0.0,0.0,0.0,0.0,0.0,0.2363,0.5402,0.7522,0.7517,0.7603,0.73,0.6488,0.6032,0.469,0.2212,0.103,-0.0,0.0,0.0,0.0,0.0,0.0,0.0,0.0,0.0,0.0,0.0,0.0,0.0,0.0,0.0,0.0,0.0,0.0,0.0,0.0,0.0,0.0,0.0,0.0,0.0,0.0,0.0,0.0,0.0,0.0,0.0,0.0,0.0,0.0,0.0,0.0,0.0,0.0,0.0,0.0,0.0,0.0,0.0,0.0,0.0,0.0,0.0,0.0,0.0,0.0,0.0,0.0,0.0,0.0,0.0,0.2522,0.286,0.3978,0.5228,0.624,0.7306,0.8371,0.9254,0.8414,0.7515,0.0,0.0,0.0,0.0,0.0,0.0,0.0,0.0,0.0,0.0,0.0,0.0,0.0,0.0,0.0,0.0,0.0,0.0,0.0,0.0,0.0,0.0,0.0,0.0,0.0,0.0,0.0,0.0,-0.2612,-0.1902,-0.1343,0.0,0.0,0.0,0.0,0.0,0.0,0.0,0.0,0.0,0.0,0.6158,0.6913,0.7889,0.8095,0.7101,0.6318,0.5317,0.3759,0.2455,0.1317,0.0324,0.0,0.0,0.0,0.0,0.0,0.0,0.0,0.0,0.0,0.0,0.0,0.0,0.0,0.0,0.0,0.0,0.0,0.0,0.0,0.0,0.0,0.0,0.0,0.0,0.0,0.0,0.0,0.0,0.0,0.0,0.0,0.0,0.0,0.0,0.0,0.0,0.0,0.0,0.0,0.0,0.0,0.0,0.0,0.0,0.0,0.0,0.0,0.0,0.0,0.0,0.0,0.0,0.0,0.175,0.2054,0.38,0.5607,0.7139,0.822,0.9133,0.9878,0.8697,0.7592,0.0,0.0,0.0,0.0,0.0,0.0,0.0,0.0,0.0,0.0,0.0,0.0,0.0,0.0,0.0,0.0,0.0,0.0,0.0,0.0,0.0,0.0,0.0,0.0,0.0,0.0,0.0,0.0,-0.2558,-0.2053,-0.115,0.0,0.0,0.0,0.0,0.0,0.0,0.0,0.0,0.0,0.0,0.5415,0.6779,0.819,0.0,0.0,0.6899,0.5992,0.486,0.3911,0.2878,0.1652,0.0744,0.0,0.0,0.0,0.0,0.0,0.0,0.0,0.0,0.0,0.0,0.0,0.0,0.0,0.0,0.0,0.0,0.0,0.0,0.0,0.0,0.0,0.0,0.0,0.0,0.0,0.0,0.0,0.0,0.0,0.0,0.0,0.0,0.0,0.0,0.0,0.0,0.0,0.0,0.0,0.0,0.0,0.0,0.0,0.0,0.0,0.0,0.0,0.0,0.0,0.0,0.0,0.0,0.085,0.1583,0.3595,0.5796,0.7904,0.8835,0.9592,1.0325,0.8945,0.7478,0.0,0.0,0.0,0.0,0.0,0.0,0.0,0.0,0.0,0.0,0.0,0.0,0.0,0.0,0.0,0.0,0.0,0.0,0.0,0.0,0.0,0.0,0.0,0.0,0.0,0.0,0.0,0.0,0.0,0.0,0.0,0.0,0.0,0.0,0.0,0.0,0.0,0.0,0.0,0.0,0.0,0.5135,0.6816,0.8244,0.8875,0.0,0.7582,0.6789,0.574,0.5333,0.4575,0.2608,0.0,0.0,0.0,0.0,0.0,0.0,0.0,0.0,0.0,0.0,0.0,0.0,0.0,0.0,0.0,0.0,0.0,0.0,0.0,0.0,0.0,0.0,0.0,0.0,0.0,0.0,0.0,0.0,0.0,0.0,0.0,0.0,0.0,0.0,0.0,0.0,0.0,0.0,0.0,0.0,0.0,0.0,0.0,0.0,0.0,0.0,0.0,0.0,0.0,0.0,0.0,0.0,0.0,0.0,0.3071,0.4835,0.6501,0.8348,0.943,1.004,1.032,0.8897,0.0,0.0,0.0,0.0,0.0,0.0,0.0,0.0,0.0,0.0,0.0,0.0,0.0,0.0,0.0,0.0,0.0,0.0,0.0,0.0,0.0,0.0,0.0,0.0,0.0,0.0,0.0,-0.1403,0.0,0.0,0.0,0.0,0.0,0.0,0.0,0.0,0.0,0.0,0.0,0.0,0.0,0.0,0.4484,0.5839,0.7743,0.8622,0.0,0.0,0.7428,0.644,0.5662,0.4853,0.0,0.0,0.0,0.0,0.0,0.0,0.0,0.0,0.0,0.0,0.0,0.0,0.0,0.0,0.0,0.0,0.0,0.0,0.0,0.0,0.0,0.0,0.0,0.0,0.0,0.0,0.0,0.0,0.0,0.0,0.0,0.0,0.0,0.0,0.0,0.0,0.0,0.0,0.0,0.0,0.0,0.0,0.0,0.0,0.0,0.0,0.0,0.0,0.0,0.0,0.0,0.0,0.0,0.0,0.0981,0.3324,0.519,0.7078,0.8965,1.0136,1.0795,1.0493,0.9166,0.7485,0.0,0.0,0.0,0.0,0.0,0.0,0.0,0.0,0.0,0.0,0.0,0.0,0.0,0.0,0.0,0.0,0.0,0.0,0.0,0.0,0.0,0.0,0.0,0.0,0.0,0.0,0.0,0.0,0.0,0.0,0.0,0.0,0.0,0.0,0.0,0.0,0.0,0.0,0.0,0.0,0.0,0.0,0.5481,0.7299,0.0,0.0,0.0,0.7055,0.664,0.0,0.0,0.0,0.0,0.0,0.0,0.0,0.0,0.0,0.0,0.0,0.0,0.0,0.0,0.0,0.0,0.0,0.0,0.0,0.0,0.0,0.0,0.0,0.0,0.0,0.0,0.0,0.0,0.0,0.0,0.0,0.0,0.0,0.0,0.0,0.0,0.0,0.0,0.0,0.0,0.0,0.0,0.0,0.0,0.0,0.0,0.0,0.0,0.0,0.0,0.0,0.0,0.0,0.0,0.0,0.0,0.0,0.2957,0.5262,0.7458,0.9514,1.0815,1.1235,1.0892,0.9408,0.7638,0.0,0.0,0.0,0.0,0.0,0.0,0.0,0.0,0.0,0.0,0.0,0.0,0.0,0.0,0.0,0.0,0.0,0.0,0.0,0.0,0.0,0.0,0.0,0.0,0.0,0.0,0.0,0.0,0.0,0.0,0.0,0.0,0.0,0.0,0.0,0.0,0.0,0.0,0.0,0.0,0.0,0.4629,0.5467,0.6821,0.7452,0.0,0.0,0.6203,0.6292,0.5976,0.0,0.0,0.0,0.0,0.0,0.0,0.0,0.0,0.0,0.0,0.0,0.0,0.0,0.0,0.0,0.0,0.0,0.0,0.0,0.0,0.0,0.0,0.0,0.0,0.0,0.0,0.0,0.0,0.0,0.0,0.0,0.0,0.0,0.0,0.0,0.0,0.0,0.0,0.0,0.0,0.0,0.0,0.0,0.0,0.0,0.0,0.0,0.0,0.0,0.0,0.0,0.0,0.0,0.0,0.0,0.0,0.2853,0.5313,0.7597,0.9514,1.0809,1.1442,1.1198,0.9697,0.7783,0.0,0.0,0.0,0.0,0.0,0.0,0.0,0.0,0.0,0.0,0.0,0.0,0.0,0.0,0.0,0.0,0.0,0.0,0.0,0.0,0.0,0.0,0.0,0.0,0.0,0.0,0.0,0.0,0.0,0.0,0.0,0.0,0.0,0.0,0.0,0.0,0.0,0.0,0.0,0.0,0.0,0.4854,0.4983,0.6197,0.0,0.0,0.0,0.0,0.582,0.5763,0.0,0.0,0.0,0.0,0.0,0.0,0.0,0.0,0.0,0.0,0.0,0.0,0.0,0.0,0.0,0.0,0.0,0.0,0.0,0.0,0.0,0.0,0.0,0.0,0.0,0.0,0.0,0.0,0.0,0.0,0.0,0.0,0.0,0.0,0.0,0.0,0.0,0.0,0.0,0.0,0.0,0.0,0.0,0.0,0.0,0.0,0.0,0.0,0.0,0.0,0.0,0.0,0.0,0.0,0.0,0.0,0.2842,0.5772,0.7998,0.9353,1.0898,1.1714,1.1412,1.032,0.8695,0.0,0.0,0.0,0.0,0.0,0.0,0.0,0.0,0.0,0.0,0.0,0.0,0.0,0.0,0.0,0.0,0.0,0.0,0.0,0.0,0.0,0.0,0.0,0.0,0.0,0.0,0.0,0.0,0.0,0.0,0.0,0.0,0.0,0.0,0.0,0.0,0.0,0.0,0.0,0.0,0.2919,0.4573,0.4649,0.0,0.0,0.0,0.0,0.0,0.0,0.5727,0.5452,0.0,0.0,0.0,0.0,0.0,0.0,0.0,0.0,0.0,0.0,0.0,0.0,0.0,0.0,0.0,0.0,0.0,0.0,0.0,0.0,0.0,0.0,0.0,0.0,0.0,0.0,0.0,0.0,0.0,0.0,0.0,0.0,0.0,0.0,0.0,0.0,0.0,0.0,0.0,0.0,0.0,0.0,0.0,0.0,0.0,0.0,0.0,0.0,0.0,0.0,0.0,0.0,0.0,0.0,0.0,0.2655,0.6118,0.828,0.9052,1.0996,1.2027,1.1843,1.0973,0.9762,0.7902,0.0,0.0,0.0,0.0,0.0,0.0,0.0,0.0,0.0,0.0,0.0,0.0,0.0,0.0,0.0,0.0,0.0,0.0,0.0,0.0,0.0,0.0,0.0,0.0,0.0,0.0,0.0,0.0,0.0,0.0,0.0,0.0,0.0,0.0,0.0,0.0,0.0,0.0,0.0,0.2761,0.4427,0.0,0.0,0.0,0.0,0.0,0.0,0.0,0.0,0.5359,0.0,0.0,0.0,0.0,0.0,0.0,0.0,0.0,0.0,0.0,0.0,0.0,0.0,0.0,0.0,0.0,0.0,0.0,0.0,0.0,0.0,0.0,0.0,0.0,0.0,0.0,0.0,0.0,0.0,0.0,0.0,0.0,0.0,0.0,0.0,0.0,0.0,0.0,0.0,0.0,0.0,0.0,0.0,0.0,0.0,0.0,0.0,0.0,0.0,0.0,0.0,0.0,0.0,0.0,0.0,0.0,0.569,0.7834,0.8695,1.0558,1.1698,1.2325,1.108,0.9784,0.876,0.0,0.0,0.0,0.0,0.0,0.0,0.0,0.0,0.0,0.0,0.0,0.0,0.0,0.0,0.0,0.0,0.0,0.0,0.0,0.0,0.0,0.0,0.0,0.0,0.0,0.0,0.0,0.0,0.0,0.0,0.0,0.0,0.0,0.0,0.0,0.0,0.0,0.0,-0.1727,0.2411,0.0,0.0,0.0,0.0,0.0,0.0,0.0,0.0,0.5485,0.0,0.0,0.0,0.0,0.0,0.0,0.0,0.0,0.0,0.0,0.0,0.0,0.0,0.0,0.0,0.0,0.0,0.0,0.0,0.0,0.0,0.0,0.0,0.0,0.0,0.0,0.0,0.0,0.0,0.0,0.0,0.0,0.0,0.0,0.0,0.0,0.0,0.0,0.0,0.0,0.0,0.0,0.0,0.0,0.0,0.0,0.0,0.0,0.0,0.0,0.0,0.0,0.0,0.0,0.0,0.0,0.0,0.0,0.6508,0.8395,1.0217,1.161,1.2309,1.1133,0.9883,0.0,0.0,0.0,0.0,0.0,0.0,0.0,0.0,0.0,0.0,0.0,0.0,0.0,0.0,0.0,0.0,0.0,0.0,0.0,0.0,0.0,0.0,0.0,0.0,0.0,0.0,0.0,0.0,0.0,0.0,0.0,0.0,0.0,0.0,0.0,0.0,0.0,0.0,0.0,0.0,0.0,0.0,0.0,0.0,0.0,0.0,0.0,0.0,0.0,0.0,0.0,0.0,0.0,0.0,0.0,0.0,0.0,0.0,0.0,0.0,0.0,0.0,0.0,0.0,0.0,0.0,0.0,0.0,0.0,0.0,0.0,0.0,0.0,0.0,0.0,0.0,0.0,0.0,0.0,0.0,0.0,0.0,0.0,0.0,0.0,0.0,0.0,0.0,0.0,0.0,0.0,0.0,0.0,0.0,0.0,0.0,0.0,0.0,0.0,0.0,0.0,0.0,0.0,0.0,0.0,0.0,0.0,0.0,0.525,0.819,0.992,1.1179,1.2115,1.094,0.9609,0.0,0.0,0.0,0.0,0.0,0.0,0.0,0.0,0.0,0.0,0.0,0.0,0.0,0.0,0.0,0.0,0.0,0.0,0.0,0.0,0.0,0.0,0.0,0.0,0.0,0.0,0.0,0.0,0.0,0.0,0.0,0.0,0.0,0.0,0.0,0.0,0.0,0.0,0.0,0.0,0.0,0.0,0.0,0.0,0.0,0.0,0.0,0.0,0.5199,0.0,0.0,0.0,0.0,0.0,0.0,0.0,0.0,0.0,0.0,0.0,0.0,0.0,0.0,0.0,0.0,0.0,0.0,0.0,0.0,0.0,0.0,0.0,0.0,0.0,0.0,0.0,0.0,0.0,0.0,0.0,0.0,0.0,0.0,0.0,0.0,0.0,0.0,0.0,0.0,0.0,0.0,0.0,0.0,0.0,0.0,0.0,0.0,0.0,0.0,0.0,0.0,0.0,0.0,0.0,0.0,0.0,0.0,0.0,0.4904,0.8633,0.9081,1.0087,1.1475,0.9931,0.8538,0.0,0.0,0.0,0.0,0.0,0.0,0.0,0.0,0.0,0.0,0.0,0.0,0.0,0.0,0.0,0.0,0.0,0.0,0.0,0.0,0.0,0.0,0.0,0.0,0.0,0.0,0.0,0.0,0.0,0.0,0.0,0.0,0.0,0.0,0.0,0.0,0.0,0.0,0.0,0.0,0.0,0.0,0.0,0.0,0.0,0.0,0.0,0.0,0.0,0.0,0.0,0.0,0.0,0.0,0.0,0.0,0.0,0.0,0.0,0.0,0.0,0.0,0.0,0.0,0.0,0.0,0.0,0.0,0.0,0.0,0.0,0.0,0.0,0.0,0.0,0.0,0.0,0.0,0.0,0.0,0.0,0.0,0.0,0.0,0.0,0.0,0.0,0.0,0.0,0.0,0.0,0.0,0.0,0.0,0.0,0.0,0.0,0.0,0.0,0.0,0.0,0.0,0.0,0.0,0.0,0.0,0.0,0.0,0.4123,0.7635,0.8083,0.8586,0.9109,0.8444,0.7528,0.0,0.0,0.0,0.0,0.0,0.0,0.0,0.0,0.0,0.0,0.0,0.0,0.0,0.0,0.0,0.0,0.0,0.0,0.0,0.0,0.0,0.0,0.0,0.0,0.0,0.0,0.0,0.0,0.0,0.0,0.0,0.0,0.0,0.0,0.0,0.0,0.0,0.0,0.0,0.0,0.0,0.0,0.0,0.0,0.0,0.0,0.0,0.0,0.0,0.0,0.0,0.0,0.0,0.0,0.0,0.0,0.0,0.0,0.0,0.0,0.0,0.0,0.0,0.0,0.0,0.0,0.0,0.0,0.0,0.0,0.0,0.0,0.0,0.0,0.0,0.0,0.0,0.0,0.0,0.0,0.0,0.0,0.0,0.0,0.0,0.0,0.0,0.0,0.0,0.0,0.0,0.0,0.0,0.0,0.0,0.0,0.0,0.0,0.0,0.0,0.0,0.0,0.0,0.0,0.0,0.0,0.0,0.0,0.0,0.5939,0.6647,0.6874,0.689,0.6804,0.632,0.0,0.0,0.0,0.0,0.0,0.0,0.0,0.0,0.0,0.0,0.0,0.0,0.0,0.0,0.0,0.0,0.0,0.0,0.0,0.0,0.0,0.0,0.0,0.0,0.0,0.0,0.0,0.0,0.0,0.0,0.0,0.0,0.0,0.0,0.0,0.0,0.0,0.0,0.0,0.0,0.0,0.0,0.0,0.0,0.0,0.0,0.0,0.0,0.0,0.0,0.0,0.0,0.0,0.0,0.0,0.0,0.0,0.0,0.0,0.0,0.0,0.0,0.0,0.0,0.0,0.0,0.0,0.0,0.0,0.0,0.0,0.0,0.0,0.0,0.0,0.0,0.0,0.0,0.0,0.0,0.0,0.0,0.0,0.0,0.0,0.0,0.0,0.0,0.0,0.0,0.0,0.0,0.0,0.0,0.0,0.0,0.0,0.0,0.0,0.0,0.0,0.0,0.0,0.0,0.0,0.0,0.0,0.0,0.0,0.3609,0.4226,0.4881,0.5659,0.5269,0.4695,0.0,0.0,0.0,0.0,0.0,0.0,0.0,0.0,0.0,0.0,0.0,0.0,0.0,0.0,0.0,0.0,0.0,0.0,0.0,0.0,0.0,0.0,0.0,0.0,0.0,0.0,0.0,0.0,0.0,0.0,0.0,0.0,0.0,0.0,0.0,0.0,0.0,0.0,0.0,0.0,0.0,0.0,0.0,0.0,0.0,0.0,0.0,0.0,0.0,0.0,0.0,0.0,0.0,0.0,0.0,0.0,0.0,0.0,0.0,0.0,0.0,0.0,0.0,0.0,0.0,0.0,0.0,0.0,0.0,0.0,0.0,0.0,0.0,0.0,0.0,0.0,0.0,0.0,0.0,0.0,0.0,0.0,0.0,0.0,0.0,0.0,0.0,0.0,0.0,0.0,0.0,0.0,0.0,0.0,0.0,0.0,0.0,0.0,0.0,0.0,0.0,0.0,0.0,0.0,0.0,0.0,0.0,0.0,0.0,0.1739,0.221,0.3135,0.4617,0.4149,0.3801,0.3655,0.0,0.0,0.0,0.0,0.0,0.0,0.0,0.0,0.0,0.0,0.0,0.0,0.0,0.0,0.0,0.0,0.0,0.0,0.0,0.0,0.0,0.0,0.0,0.0,0.0,0.0,0.0,0.0,0.0,0.0,0.0,0.0,0.0,0.0,0.0,0.0,0.0,0.0,0.0,0.0,0.0,0.0,0.0,0.0,0.0,0.0,0.0,0.0,0.0,0.0,0.0,0.0,0.0,0.0,0.0,0.0,0.0,0.0,0.0,0.0,0.0,0.0,0.0,0.0,0.0,0.0,0.0,0.0,0.0,0.0,0.0,0.0,0.0,0.0,0.0,0.0,0.0,0.0,0.0,0.0,0.0,0.0,0.0,0.0,0.0,0.0,0.0,0.0,0.0,0.0,0.0,0.0,0.0,0.0,0.0,0.0,0.0,0.0,0.0,0.0,0.0,0.0,0.0,0.0,0.0,0.0,0.0,0.0,0.0229,0.101,0.2066,0.351,0.3222,0.3065,0.0,0.0,0.0,0.0,0.0,0.0,0.0,0.0,0.0,0.0,0.0,0.0,0.0,0.0,0.0,0.0,0.0,0.0,0.0,0.0,0.0,0.0,0.0,0.0,0.0,0.0,0.0,0.0,0.0,0.0,0.0,0.0,0.0,0.0,0.0,0.0,0.0,0.0,0.0,0.0,0.0,0.0,0.0,0.0,0.0,0.0,0.0,0.0,0.0,0.0,0.0,0.0,0.0,0.0,0.0,0.0,0.0,0.0,0.0,0.0,0.0,0.0,0.0,0.0,0.0,0.0,0.0,0.0,0.0,0.0,0.0,0.0,0.0,0.0,0.0,0.0,0.0,0.0,0.0,0.0,0.0,0.0,0.0,0.0,0.0,0.0,0.0,0.0,0.0,0.0,0.0,0.0,0.0,0.0,0.0,0.0,0.0,0.0,0.0,0.0,0.0,0.0,0.0,0.0,0.0,0.0,0.0,0.0,-0.0821,-0.0846,0.0622,0.1713,0.2559,0.2564,0.2549,0.0,0.0,0.0,0.0,0.0,0.0,0.0,0.0,0.0,0.0,0.0,0.0,0.0,0.0,0.0,0.0,0.0,0.0,0.0,0.0,0.0,0.0,0.0,0.0,0.0,0.0,0.0,0.0,0.0,0.0,0.0,0.0,0.0,0.0,0.0,0.0,0.0,0.0,0.0,0.0,0.0,0.0,0.0,0.0,0.0,0.0,0.0,0.0,0.0,0.0,0.0,0.0,0.0,0.0,0.0,0.0,0.0,0.0,0.0,0.0,0.0,0.0,0.0,0.0,0.0,0.0,0.0,0.0,0.0,0.0,0.0,0.0,0.0,0.0,0.0,0.0,0.0,0.0,0.0,0.0,0.0,0.0,0.0,0.0,0.0,0.0,0.0,0.0,0.0,0.0,0.0,0.0,0.0,0.0,0.0,0.0,0.0,0.0,0.0,0.0,0.0,0.0,0.0,0.0,0.0,0.0,0.0,0.0,0.0,-0.0407,0.0576,0.1573,0.247,0.2615,0.271,0.0,0.0,0.0,0.0,0.0,0.0,0.0,0.0,0.0,0.0,0.0,0.0,0.0,0.0,0.0,0.0,0.0,0.0,0.0,0.0,0.0,0.0,0.0,0.0,0.0,0.0,0.0,0.0,0.0,0.0,0.0,0.0,0.0,0.0,0.0,0.0,0.0,0.0,0.0,0.0,0.0,0.0,0.0,0.0,0.0,0.0,0.0,0.0,0.0,0.0,0.0,0.0,0.0,0.0,0.0,0.0,0.0,0.0,0.0,0.0,0.0,0.0,0.0,0.0,0.0,0.0,0.0,0.0,0.0,0.0,0.0,0.0,0.0,0.0,0.0,0.0,0.0,0.0,0.0,0.0,0.0,0.0,0.0,0.0,0.0,0.0,0.0,0.0,0.0,0.0,0.0,0.0,0.0,0.0,0.0,0.0,0.0,0.0,0.0,0.0,0.0,0.0,0.0,0.0,0.0,0.0,0.0,0.0,0.0,0.037,0.0702,0.1404,0.233,0.2714,0.2909,0.0,0.0,0.0,0.0,0.0,0.0,0.0,0.0,0.0,0.0,0.0,0.0,0.0,0.0,0.0,0.0,0.0,0.0,0.0,0.0,0.0,0.0,0.0,0.0,0.0,0.0,0.0,0.0,0.0,0.0,0.0,0.0,0.0,0.0,0.0,0.0,0.0,0.0,0.0,0.0,0.0,0.0,0.0,0.0,0.0,0.0,0.0,0.0,0.0,0.0,0.0,0.0,0.0,0.0,0.0,0.0,0.0,0.0,0.0,0.0,0.0,0.0,0.0,0.0,0.0,0.0,0.0,0.0,0.0,0.0,0.0,0.0,0.0,0.0,0.0,0.0,0.0,0.0,0.0,0.0,0.0,0.0,0.0,0.0,0.0,0.0,0.0,0.0,0.0,0.0,0.0,0.0,0.0,0.0,0.0,0.0,0.0,0.0,0.0,0.0,0.0,0.0,0.0,0.0,0.0,0.0,0.0,0.0,0.0,0.1281,0.0952,0.1161,0.2063,0.27,0.3062,0.0,0.0,0.0,0.0,0.0,0.0,0.0,0.0,0.0,0.0,0.0,0.0,0.0,0.0,0.0,0.0,0.0,0.0,0.0,0.0,0.0,0.0,0.0,0.0,0.0,0.0,0.0,0.0,0.0,0.0,0.0,0.0,0.0,0.0,0.0,0.0,0.0,0.0,0.0,0.0,0.0,0.0,0.0,0.0,0.0,0.0,0.0,0.0,0.0,0.0,0.0,0.0,0.0,0.0,0.0,0.0,0.0,0.0,0.0,0.0,0.0,0.0,0.0,0.0,0.0,0.0,0.0,0.0,0.0,0.0,0.0,0.0,0.0,0.0,0.0,0.0,0.0,0.0,0.0,0.0,0.0,0.0,0.0,0.0,0.0,0.0,0.0,0.0,0.0,0.0,0.0,0.0,0.0,0.0,0.0,0.0,0.0,0.0,0.0,0.0,0.0,0.0,0.0,0.0,0.0,0.0,0.0,0.0,0.0,0.0,0.0687,0.0721,0.1316,0.231,0.2932,0.3093,0.0,0.0,0.0,0.0,0.0,0.0,0.0,0.0,0.0,0.0,0.0,0.0,0.0,0.0,0.0,0.0,0.0,0.0,0.0,0.0,0.0,0.0,0.0,0.0,0.0,0.0,0.0,0.0,0.0,0.0,0.0,0.0,0.0,0.0,0.0,0.0,0.0,0.0,0.0,0.0,0.0,0.0,0.0,0.0,0.0,0.0,0.0,0.0,0.0,0.0,0.0,0.0,0.0,0.0,0.0,0.0,0.0,0.0,0.0,0.0,0.0,0.0,0.0,0.0,0.0,0.0,0.0,0.0,0.0,0.0,0.0,0.0,0.0,0.0,0.0,0.0,0.0,0.0,0.0,0.0,0.0,0.0,0.0,0.0,0.0,0.0,0.0,0.0,0.0,0.0,0.0,0.0,0.0,0.0,0.0,0.0,0.0,0.0,0.0,0.0,0.0,0.0,0.0,0.0,0.0,0.0,0.0,0.0,0.0,0.0,0.0577,0.0941,0.1987,0.2694,0.0,0.0,0.0,0.0,0.0,0.0,0.0,0.0,0.0,0.0,0.0,0.0,0.0,0.0,0.0,0.0,0.0,0.0,0.0,0.0,0.0,0.0,0.0,0.0,0.0,0.0,0.0,0.0,0.0,0.0,0.0,0.0,0.0,0.0,0.0,0.0,0.0,0.0,0.0,0.0,0.0,0.0,0.0,0.0,0.0,0.0,0.0,0.0,0.0,0.0,0.0,0.0,0.0,0.0,0.0,0.0,0.0,0.0,0.0,0.0,0.0,0.0,0.0,0.0,0.0,0.0,0.0,0.0,0.0,0.0,0.0,0.0,0.0,0.0,0.0,0.0,0.0,0.0,0.0,0.0,0.0,0.0,0.0,0.0,0.0,0.0,0.0,0.0,0.0,0.0,0.0,0.0,0.0,0.0,0.0,0.0,0.0,0.0,0.0,0.0,0.0,0.0,0.0,0.0,0.0,0.0,0.0,0.0,0.0,0.0,0.0,0.0586,0.0935,0.1767,0.0,0.2958,0.0,0.0,0.0,0.0,0.0,0.0,0.0,0.0,0.0,0.0,0.0,0.0,0.0,0.0,0.0,0.0,0.0,0.0,0.0,0.0,0.0,0.0,0.0,0.0,0.0,0.0,0.0,0.0,0.0,0.0,0.0,0.0,0.0,0.0,0.0,0.0,0.0,0.0,0.0,0.0,0.0,0.0,0.0,0.0,0.0,0.0,0.0,0.0,0.0,0.0,0.0,0.0,0.0,0.0,0.0,0.0,0.0,0.0,0.0,0.0,0.0,0.0,0.0,0.0,0.0,0.0,0.0,0.0,0.0,0.0,0.0,0.0,0.0,0.0,0.0,0.0,0.0,0.0,0.0,0.0,0.0,0.0,0.0,0.0,0.0,0.0,0.0,0.0,0.0,0.0,0.0,0.0,0.0,0.0,0.0,0.0,0.0,0.0,0.0,0.0,0.0,0.0,0.0,0.0,0.0,0.0,0.0,0.0,0.0,0.0,0.0,0.0,0.1323,0.1786,0.2192,0.0,0.0,0.0,0.0,0.0,0.0,0.0,0.0,0.0,0.0,0.0,0.0,0.0,0.0,0.0,0.0,0.0,0.0,0.0,0.0,0.0,0.0,0.0,0.0,0.0,0.0,0.0,0.0,0.0,0.0,0.0,0.0,0.0,0.0,0.0,0.0,0.0,0.0,0.0,0.0,0.0,0.0,0.0,0.0,0.0,0.0,0.0,0.0,0.0,0.0,0.0,0.0,0.0,0.0,0.0,0.0,0.0,0.0,0.0,0.0,0.0,0.0,0.0,0.0,0.0,0.0,0.0,0.0,0.0,0.0,0.0,0.0,0.0,0.0,0.0,0.0,0.0,0.0,0.0,0.0,0.0,0.0,0.0,0.0,0.0,0.0,0.0,0.0,0.0,0.0,0.0,0.0,0.0,0.0,0.0,0.0,0.0,0.0,0.0,0.0,0.0,0.0,0.0,0.0,0.0,0.0,0.0,0.0,0.0,0.0,0.0545,0.0784,0.1184,0.1629,0.1943,0.0,0.0,0.0,0.0,0.0,0.0,0.0,0.0,0.0,0.0,0.0,0.0,0.0,0.0,0.0,0.0,0.0,0.0,0.0,0.0,0.0,0.0,0.0,0.0,0.0,0.0,0.0,0.0,0.0,0.0,0.0,0.0,0.0,0.0,0.0,0.0,0.0,0.0,0.0,0.0,0.0,0.0,0.0,0.0,0.0,0.0,0.0,0.0,0.0,0.0,0.0,0.0,0.0,0.0,0.0,0.0,0.0,0.0,0.0,0.0,0.0,0.0,0.0,0.0,0.0,0.0,0.0,0.0,0.0,0.0,0.0,0.0,0.0,0.0,0.0,0.0,0.0,0.0,0.0,0.0,0.0,0.0,0.0,0.0,0.0,0.0,0.0,0.0,0.0,0.0,0.0,0.0,0.0,0.0,0.0,0.0,0.0,0.0,0.0,0.0,0.0,0.0,0.0,0.0,0.0,0.0,0.0,0.0,0.0,0.0,0.0502,0.0,0.0,0.0,0.184,0.0,0.0,0.0,0.0,0.0,0.0,0.0,0.0,0.0,0.0,0.0,0.0,0.0,0.0,0.0,0.0,0.0,0.0,0.0,0.0,0.0,0.0,0.0,0.0,0.0,0.0,0.0,0.0,0.0,0.0,0.0,0.0,0.0,0.0,0.0,0.0,0.0,0.0,0.0,0.0,0.0,0.0,0.0,0.0,0.0,0.0,0.0,0.0,0.0,0.0,0.0,0.0,0.0,0.0,0.0,0.0,0.0,0.0,0.0,0.0,0.0,0.0,0.0,0.0,0.0,0.0,0.0,0.0,0.0,0.0,0.0,0.0,0.0,0.0,0.0,0.0,0.0,0.0,0.0,0.0,0.0,0.0,0.0,0.0,0.0,0.0,0.0,0.0,0.0,0.0,0.0,0.0,0.0,0.0,0.0,0.0,0.0,0.0,0.0,0.0,0.0,0.0,0.0,0.0,0.0,0.0,0.0,0.0,0.0,0.0,0.0,0.0,0.0,0.0,0.0,0.0,0.0,0.0,0.0,0.0,0.0,0.0,0.0,0.0,0.0,0.0,0.0,0.0,0.0,0.0,0.0,0.0,0.0,0.0,0.0,0.0,0.0,0.0,0.0,0.0,0.0,0.0,0.0,0.0,0.0,0.0,0.0,0.0,0.0,0.0,0.0,0.0,0.0,0.0,0.0,0.0,0.0,0.0,0.0,0.0,0.0,0.0,0.0,0.0,0.0,0.0,0.0,0.0,0.0,0.0,0.0,0.0,0.0,0.0,0.0,0.0,0.0,0.0,0.0,0.0,0.0,0.0,0.0,0.0,0.0,0.0,0.0,0.0,0.0,0.0,0.0,0.0,0.0,0.0,0.0,0.0,0.0,0.0,0.0,0.0,0.0,0.0,0.0,0.0,0.0,0.0,0.0,0.0,0.0,0.0,0.0,0.0,0.0,0.0,0.0,0.0,0.0,0.0,0.0,0.0,0.0,0.0,0.0,0.0,0.0,0.0,0.0,0.0,0.0,0.0,0.0,0.0,0.0,0.0,0.0,0.0,0.0,0.0,0.0,0.0,0.0,0.0,0.0,0.0,0.0,0.0,0.0,0.0,0.0,0.0,0.0,0.0,0.0,0.0,0.0,0.0,0.0,0.0,0.0,0.0,0.0,0.0,0.0,0.0,0.0,0.0,0.0,0.0,0.0,0.0,0.0,0.0,0.0,0.0,0.0,0.0,0.0,0.0,0.0,0.0,0.0,0.0,0.0,0.0,0.0,0.0,0.0,0.0,0.0,0.0,0.0,0.0,0.0,0.0,0.0,0.0,0.0,0.0,0.0,0.0,0.0,0.0,0.0,0.0,0.0,0.0,0.0,0.0,0.0,0.0,0.0,0.0,0.0,0.0,0.0,0.0,0.0,0.0,0.0,0.0,0.0,0.0,0.0,0.0,0.0,0.0,0.0,0.0,0.0,0.0,0.0,0.0,0.0,0.0,0.0,0.0,0.0,0.0,0.0,0.0,0.0,0.0,0.0,0.0,0.0,0.0,0.0,0.0,0.0,0.0,0.0,0.0,0.0,0.0,0.0,0.0,0.0,0.0,0.0,0.0,0.0,0.0,0.0,0.0,0.0,0.0,0.0,0.0,0.0,0.0,0.0,0.0,0.0,0.0,0.0,0.0,0.0,0.0,0.0,0.0,0.0,0.0,0.0,0.0,0.0,0.0,0.0,0.0,0.0,0.0,0.0,0.0,0.0,0.0,0.0,0.0,0.0,0.0,0.0,0.0,0.0,0.0,0.0,0.0,0.0,0.0,0.0,0.0,0.0,0.0,0.0,0.0,0.0,0.0,0.0,0.0,0.0,0.0,0.0,0.0,0.0,0.0,0.0,0.0,0.0,0.0,0.0,0.0,0.0,0.0,0.0,0.0,0.0,0.0,0.0,0.0,0.0,0.0,0.0,0.0,0.0,0.0,0.0,0.0,0.0,0.0,0.0,0.0,0.0,0.0,0.0,0.0,0.0,0.0,0.0,0.0,0.0,0.0,0.0,0.0,0.0,0.0,0.0,0.0,0.0,0.0,0.0,0.0,0.0,0.0,0.0,0.0,0.0,0.0,0.0,0.0,0.0,0.0,0.0,0.0,0.0,0.0,0.0,0.0,0.0,0.0,0.0,0.0,0.0,0.0,0.0,0.0,0.0,0.0,0.0,0.0,0.0,0.0,0.0,0.0,0.0,0.0,0.0,0.0,0.0,0.0,0.0,0.0,0.0,0.0,0.0,0.0,0.0,0.0,0.0,0.0,0.0,0.0,0.0,0.0,0.0,0.0,0.0,0.0,0.0,0.0,0.0,0.0,0.0,0.0,0.0,0.0,0.0,0.0,0.0,0.0,0.0,0.0,0.0,0.0,0.0,0.0,0.0,0.0,0.0,0.0,0.0,0.0,0.0,0.0,0.0,0.0,0.0,0.0,0.0,0.0,0.0,0.0,0.0,0.0,0.0,0.0,0.0,0.0,0.0,0.0,0.0,0.0,0.0,0.0,0.0,0.0,0.0,0.0,0.0,0.0,0.0,0.0,0.0,0.0,0.0,0.0,0.0,0.0,0.0,0.0,0.0,0.0,0.0,0.0,0.0,0.0,0.0,0.0,0.0,0.0,0.0,0.0,0.0,0.0,0.0,0.0,0.0,0.0,0.0,0.0,0.0,0.0,0.0,0.0,0.0,0.0,0.0,0.0,0.0,0.0,0.0,0.0,0.0,0.0,0.0,0.0,0.0,0.0,0.0,0.0,0.0,0.0,0.0,0.0,0.0,0.0,0.0,0.0,0.0,0.0,0.0,0.0,0.0,0.0,0.0,0.0,0.0,0.0,0.0,0.0,0.0,0.0,0.0,0.0,0.0,0.0,0.0,0.0,0.0,0.0,0.0,0.0,0.0,0.0,0.0,0.0,0.0,0.0,0.0,0.0,0.0,0.0,0.0,0.0,0.0,0.0,0.0,0.0,0.0,0.0,0.0,0.0,0.0,0.0,0.0,0.0,0.0,0.0,0.0,0.0,0.0,0.0,0.0,0.0,0.0,0.0,0.0,0.0,0.0,0.0,0.0,0.0,0.0,0.0,0.0,0.0,0.0,0.0,0.0,0.0,0.0,0.0,0.0,0.0,0.0,0.0,0.0,0.0,0.0,0.0,0.0,0.0,0.0,0.0,0.0,0.0,0.0,0.0,0.0,0.0,0.0,0.0,0.0,0.0,0.0,0.0,0.0,0.0,0.0,0.0,0.0,0.0,0.0,0.0,0.0,0.0,0.0,0.0,0.0,0.0,0.0,0.0,0.0,0.0,0.0,0.0,0.0,0.0,0.0,0.0,0.0,0.0,0.0,0.0,0.0,0.0,0.0,0.0,0.0,0.0,0.0,0.0,0.0,0.0,0.0,0.0,0.0,0.0,0.0,0.0,0.0,0.0,0.0,0.0,0.0,0.0,0.0,0.0,0.0,0.0,0.0,0.0,0.0,0.0,0.0,0.0,0.0,0.0,0.0,0.0,0.0,0.0,0.0,0.0,0.0,0.0,0.0,0.0,0.0,0.0,0.0,0.0,0.0,0.0,0.0,0.0,0.0,0.0,0.0,0.0,0.0,0.0,0.0,0.0,0.0,0.0,0.0,0.0,0.0,0.0,0.0,0.0,0.0,0.0,0.0,0.0,0.0,0.0,0.0,0.0,0.0,0.0,0.0,0.0,0.0,0.0,0.0,0.0,0.0,0.0,0.0,0.0,0.0,0.0,0.0,0.0,0.0,0.0,0.0,0.0,0.0,0.0,0.0,0.0,0.0,0.0,0.0,0.0,0.0,0.0,0.0,0.0,0.0,0.0,0.0,0.0,0.0,0.0,0.0,0.0,0.0,0.0,0.0,0.0,0.0,0.0,0.0,0.0,0.0,0.0,0.0,0.0,0.0,0.0,0.0,0.0,0.0,0.0,0.0,0.0,0.0,0.0,0.0,0.0,0.0,0.0,0.0,0.0,0.0,0.0,0.0,0.0,0.0,0.0,0.0,0.0,0.0,0.0,0.0,0.0,0.0,0.0,0.0,0.0,0.0,0.0,0.0,0.0,0.0,0.0,0.0,0.0,0.0,0.0,0.0,0.0,0.0,0.0,0.0,0.0,0.0,0.0,0.0,0.0,0.0,0.0,0.0,0.0,0.0,0.0,0.0,0.0,0.0,0.0,0.0,0.0,0.0,0.0,0.0,0.0,0.0,0.0,0.0,0.0,0.0,0.0,0.0,0.0,0.0,0.0,0.0,0.0,0.0,0.0,0.0,0.0,0.0,0.0,0.0,0.0,0.0,0.0,0.0,0.0,0.0,0.0,0.0,0.0,0.0,0.0,0.0,0.0]}]]]